[[[{"header":{"parameterUnit":"kt","parameterCategory":2,"dx":1,"dy":1,"la1":29.587661999999998,"la2":31.0,"lo1":-88.76705300000003,"lo2":-86.6583820000003,"nx":115,"ny":88,"refTime":"2022-10-27T00:00:00:Z","depth":0,"parameterNumber":1,"parameterNumberName":"U-component_of_WINDS"},"data":[8.0084,8.0084,8.0084,8.0084,8.0084,8.0084,8.0084,8.0084,8.0084,8.0084,8.0084,8.0084,8.0084,8.0084,8.0084,8.0084,8.0084,8.0084,8.0084,8.0112,8.0344,8.0626,8.1181,8.2032,8.2772,8.3208,8.348,8.3534,8.3586,8.364,8.3724,8.4429,8.4375,8.3981,8.3142,8.3112,8.3364,8.2962,8.3227,8.4462,8.6334,8.7909,8.9888,8.9968,8.972,8.9404,8.9228,8.9228,8.9228,8.9228,8.9228,8.9228,8.9228,8.9228,8.9228,8.9093,8.9122,8.8529,8.7993,8.7146,8.6384,8.4888,8.3477,8.3005,8.2639,8.2215,8.1829,8.1829,8.18,8.18,8.18,8.18,8.18,8.18,8.18,8.18,8.18,8.18,8.18,8.18,8.18,8.18,8.18,8.18,8.18,8.18,8.18,8.18,8.18,8.18,8.18,8.18,8.18,8.18,8.18,8.18,8.18,8.18,8.182,8.1961,8.2093,8.2284,8.2653,8.3038,8.346,8.3752,8.3926,8.409,8.4177,8.4177,8.4177,8.4177,8.4255,8.4604,8.5321,8.0084,8.0084,8.0084,8.0084,8.0084,8.0084,8.0084,8.0084,8.0084,8.0084,8.0084,8.0084,8.0084,8.0084,8.0084,8.0084,8.0084,8.0084,8.0084,8.0112,8.02,8.0511,8.1011,8.1587,8.2252,8.2799,8.3181,8.3344,8.386,8.3997,8.4727,8.6222,8.6462,8.6307,8.631,8.6024,8.5449,8.4787,8.5326,8.6668,8.7742,8.9042,8.9467,8.9477,8.9269,8.9234,8.9228,8.9228,8.9228,8.9228,8.9228,8.9228,8.9228,8.9228,8.9228,8.9228,8.9228,8.9065,8.8726,8.7964,8.7287,8.6243,8.4522,8.3542,8.3203,8.2695,8.2046,8.1829,8.18,8.18,8.18,8.18,8.18,8.18,8.18,8.18,8.18,8.18,8.18,8.18,8.18,8.18,8.18,8.18,8.18,8.18,8.18,8.18,8.18,8.18,8.18,8.18,8.18,8.18,8.18,8.18,8.18,8.18,8.1841,8.2061,8.2312,8.2672,8.3058,8.3401,8.3616,8.3849,8.4052,8.4052,8.4158,8.4177,8.411,8.4052,8.409,8.4342,8.4943,8.0084,8.0084,8.0084,8.0084,8.0084,8.0084,8.0084,8.0084,8.0084,8.0084,8.0084,8.0084,8.0084,8.0084,8.0084,8.0084,8.0084,8.0084,8.0084,8.0084,8.0172,8.0511,8.071,8.1177,8.2063,8.2389,8.2769,8.3754,8.4812,8.5026,8.5371,8.654,8.683,8.6778,8.6804,8.691,8.678,8.7069,8.806,8.8656,8.8905,8.9703,9.0031,8.9369,8.9206,8.9206,8.9228,8.9228,8.9228,8.9228,8.9228,8.9228,8.9228,8.9228,8.9228,8.9228,8.9228,8.9228,8.9087,8.8664,8.8077,8.6977,8.5481,8.419,8.3852,8.3308,8.261,8.1829,8.18,8.18,8.18,8.18,8.18,8.18,8.18,8.18,8.18,8.18,8.18,8.18,8.18,8.18,8.18,8.18,8.18,8.18,8.18,8.18,8.18,8.18,8.18,8.18,8.18,8.18,8.18,8.18,8.18,8.18,8.18,8.2101,8.2452,8.2949,8.3284,8.3303,8.344,8.379,8.3868,8.379,8.3877,8.411,8.4071,8.3965,8.4071,8.4255,8.4487,8.0084,8.0084,8.0084,8.0084,8.0084,8.0084,8.0084,8.0084,8.0084,8.0084,8.0168,8.053,8.0785,8.0896,8.0947,8.0923,8.0669,8.0502,8.0168,8.0112,8.0757,8.1287,8.137,8.245,8.319,8.3377,8.3894,8.4972,8.6172,8.6701,8.7042,8.8449,8.8862,8.9145,8.9094,8.9068,8.9093,8.9194,9.0056,9.0517,9.011,9.0466,9.046,8.9601,8.9228,8.9228,8.9228,8.9228,8.9228,8.9228,8.9228,8.9228,8.9228,8.9228,8.9228,8.9228,8.9228,8.9228,8.9172,8.9059,8.867,8.7711,8.6666,8.5375,8.4388,8.3872,8.3167,8.2272,8.18,8.18,8.18,8.18,8.18,8.18,8.18,8.18,8.18,8.18,8.18,8.18,8.18,8.18,8.18,8.18,8.18,8.18,8.18,8.18,8.18,8.18,8.18,8.18,8.18,8.18,8.18,8.18,8.18,8.18,8.1913,8.2213,8.2523,8.3008,8.3421,8.3323,8.3303,8.3538,8.3693,8.3635,8.3771,8.4052,8.4061,8.4042,8.4129,8.4177,8.4177,8.0084,8.0084,8.0084,8.0084,8.0084,8.0084,8.0084,8.0084,8.0084,8.0112,8.0502,8.1674,8.2255,8.2419,8.2416,8.2416,8.1781,8.126,8.0983,8.0196,8.1623,8.2529,8.3293,8.4512,8.5159,8.6674,8.733,8.6753,8.7852,8.8604,8.9886,9.2702,9.233,9.1907,9.1626,9.1596,9.1048,9.0844,9.1271,9.1518,9.0973,9.0671,9.0432,8.9432,8.9228,8.9228,8.9228,8.9228,8.9228,8.9228,8.9228,8.9228,8.9228,8.9228,8.9228,8.9228,8.9228,8.9228,8.9228,8.9228,8.9009,8.8614,8.7873,8.6525,8.5368,8.4606,8.3534,8.2582,8.1933,8.18,8.18,8.18,8.18,8.18,8.18,8.18,8.18,8.18,8.18,8.18,8.18,8.18,8.18,8.18,8.18,8.18,8.18,8.18,8.18,8.18,8.18,8.18,8.18,8.18,8.18,8.18,8.18,8.1921,8.2093,8.2324,8.2542,8.2988,8.3499,8.346,8.3382,8.3518,8.3538,8.3616,8.3732,8.3945,8.409,8.411,8.4148,8.4177,8.4197,8.0084,8.0084,8.0084,8.0084,8.0084,8.0084,8.0084,8.0084,8.0084,8.078,8.1619,8.2416,8.3187,8.4002,8.4083,8.3648,8.2936,8.2669,8.234,8.2313,8.3353,8.4135,8.4539,8.5345,8.691,8.733,8.7826,8.863,8.9093,9.009,9.1351,9.3313,9.3322,9.3272,9.3119,9.2694,9.2029,9.184,9.1578,9.1357,9.081,9.019,8.9833,8.9263,8.9228,8.9228,8.9228,8.9228,8.9228,8.9228,8.9228,8.9228,8.9228,8.9228,8.9228,8.9228,8.9228,8.9228,8.9228,8.9228,8.9228,8.8889,8.8014,8.7146,8.6271,8.5284,8.4098,8.2913,8.23,8.18,8.18,8.18,8.18,8.18,8.18,8.18,8.18,8.18,8.18,8.18,8.18,8.18,8.18,8.18,8.18,8.18,8.18,8.18,8.18,8.18,8.18,8.18,8.18,8.18,8.18,8.18,8.18,8.1881,8.2093,8.2332,8.2523,8.283,8.3097,8.3245,8.3421,8.3343,8.3293,8.3449,8.3674,8.3858,8.3994,8.4052,8.409,8.4158,8.4226,8.0084,8.0084,8.0084,8.0084,8.0084,8.0084,8.0084,8.0196,8.0673,8.1394,8.2693,8.3591,8.4917,8.5797,8.5852,8.5133,8.4758,8.4543,8.4218,8.4487,8.5052,8.6118,8.6883,8.7538,8.8707,8.9607,9.0091,9.0497,9.1252,9.2078,9.3302,9.3499,9.3333,9.3565,9.3126,9.221,9.2061,9.1714,9.0828,9.0545,9.0115,8.9714,8.9488,8.9263,8.9228,8.9228,8.9228,8.9228,8.9228,8.9228,8.9228,8.9228,8.9228,8.9228,8.9228,8.9228,8.9228,8.9228,8.9228,8.9228,8.9228,8.9002,8.8472,8.7845,8.7033,8.6074,8.486,8.3506,8.2498,8.199,8.18,8.18,8.18,8.18,8.18,8.18,8.18,8.18,8.18,8.18,8.18,8.18,8.18,8.18,8.18,8.18,8.18,8.18,8.18,8.18,8.18,8.18,8.18,8.18,8.18,8.18,8.18,8.1841,8.2081,8.2273,8.2463,8.2613,8.2751,8.2949,8.3176,8.3176,8.3117,8.3391,8.3713,8.3849,8.3994,8.4032,8.4071,8.4158,8.4197,8.0084,8.0084,8.0084,8.0084,8.0084,8.0084,8.014,8.0284,8.1839,8.2662,8.299,8.6089,8.7222,8.7511,8.7589,8.7327,8.7065,8.5985,8.5613,8.5747,8.7145,8.8242,8.9402,9.0552,9.1762,9.3576,9.409,9.3201,9.4563,9.4661,9.4494,9.4351,9.3444,9.3309,9.2968,9.2038,9.1014,9.0783,9.0144,8.9749,8.9686,8.9291,8.9256,8.9228,8.9228,8.9228,8.9228,8.9228,8.9228,8.9228,8.9228,8.9228,8.9228,8.9228,8.9228,8.9228,8.9228,8.9228,8.9228,8.9228,8.9228,8.92,8.898,8.8416,8.7513,8.6356,8.5227,8.4014,8.2639,8.2187,8.18,8.18,8.18,8.18,8.18,8.18,8.18,8.18,8.18,8.18,8.18,8.18,8.18,8.18,8.18,8.18,8.18,8.18,8.18,8.18,8.18,8.18,8.18,8.18,8.18,8.18,8.182,8.182,8.2041,8.2161,8.2384,8.2554,8.2633,8.2732,8.2949,8.3176,8.3343,8.3577,8.379,8.3907,8.409,8.4139,8.4139,8.4177,8.4177,8.0084,8.0084,8.0084,8.0084,8.0084,8.0084,8.0785,8.1977,8.3488,8.4944,8.5955,8.7012,8.8241,8.9173,8.9328,8.907,8.7772,8.8059,8.8423,8.806,8.9609,9.078,9.1711,9.2712,9.3873,9.4559,9.5044,9.5506,9.5897,9.5931,9.5368,9.4437,9.3535,9.2801,9.1842,9.1075,8.9918,8.9833,8.9686,8.9228,8.9228,8.9228,8.9228,8.9228,8.9228,8.9228,8.9228,8.9228,8.9228,8.9228,8.9228,8.9228,8.9228,8.9228,8.9228,8.9228,8.9228,8.9228,8.9228,8.9228,8.9228,8.9228,8.9228,8.898,8.8416,8.6695,8.5538,8.438,8.2885,8.2215,8.1849,8.18,8.18,8.18,8.18,8.18,8.18,8.18,8.18,8.18,8.18,8.18,8.18,8.18,8.18,8.18,8.18,8.18,8.18,8.18,8.18,8.18,8.18,8.18,8.18,8.18,8.182,8.1869,8.1909,8.1949,8.2173,8.2503,8.2503,8.2562,8.2791,8.3058,8.3421,8.3771,8.3926,8.409,8.4177,8.4177,8.4177,8.4177,8.4177,8.0084,8.0084,8.0084,8.0084,8.0084,8.0084,8.1034,8.2638,8.384,8.5558,8.7406,8.8423,8.9405,9.0047,9.02,8.997,8.9378,9.0633,9.1137,9.0726,9.1714,9.3011,9.3701,9.4044,9.4629,9.5306,9.5594,9.6049,9.6572,9.5217,9.4686,9.4014,9.2683,9.1616,9.0482,8.9805,8.9228,8.9228,8.9228,8.9228,8.9228,8.9228,8.9228,8.9228,8.9228,8.9228,8.9228,8.9228,8.9228,8.9228,8.9228,8.9228,8.9228,8.9228,8.9228,8.9228,8.9228,8.9228,8.9228,8.9228,8.9228,8.9228,8.9228,8.9206,8.9037,8.7174,8.613,8.5171,8.3598,8.2498,8.1905,8.182,8.18,8.18,8.18,8.18,8.18,8.18,8.18,8.18,8.18,8.18,8.18,8.18,8.18,8.18,8.18,8.18,8.18,8.18,8.18,8.18,8.18,8.18,8.18,8.18,8.182,8.1909,8.1929,8.1929,8.2101,8.2364,8.2443,8.2503,8.2692,8.29,8.3332,8.3693,8.3974,8.4177,8.4177,8.4177,8.4177,8.4177,8.4177,8.0168,8.0084,8.0084,8.014,8.0335,8.0168,8.1311,8.3211,8.3404,8.5129,8.8059,8.9482,9.0302,9.0379,9.0634,9.0861,9.1239,9.1744,9.2368,9.2932,9.3431,9.4093,9.4726,9.5161,9.5498,9.6358,9.643,9.6363,9.6596,9.5184,9.3773,9.2931,9.1752,9.046,8.9376,8.9228,8.9228,8.9228,8.9228,8.9228,8.9228,8.9228,8.9228,8.9228,8.9228,8.9228,8.9228,8.9228,8.9228,8.9228,8.9228,8.9228,8.9228,8.9228,8.9228,8.9228,8.9228,8.9228,8.9228,8.9228,8.9228,8.9228,8.9228,8.9228,8.8952,8.7964,8.6723,8.5509,8.4162,8.3005,8.2272,8.18,8.18,8.18,8.18,8.18,8.18,8.18,8.18,8.18,8.18,8.18,8.18,8.18,8.18,8.18,8.18,8.18,8.18,8.18,8.18,8.18,8.18,8.18,8.18,8.18,8.1841,8.1921,8.2001,8.2033,8.2213,8.2224,8.2324,8.2454,8.2653,8.292,8.3274,8.3644,8.3916,8.4148,8.4148,8.4177,8.4177,8.4177,8.4177,8.1173,8.0112,8.0084,8.0757,8.1784,8.1867,8.3458,8.5824,8.6063,8.7511,8.9585,9.0073,9.0405,9.066,9.1065,9.1721,9.2145,9.2793,9.363,9.4215,9.4677,9.5209,9.5786,9.6144,9.6168,9.6481,9.6624,9.6567,9.6454,9.5833,9.4422,9.2644,9.0928,8.994,8.9256,8.9228,8.9228,8.9228,8.9228,8.9228,8.9228,8.9228,8.9228,8.9228,8.9228,8.9228,8.9228,8.9228,8.9228,8.9228,8.9228,8.9228,8.9228,8.9228,8.9228,8.9228,8.9228,8.9228,8.9228,8.9228,8.9228,8.9228,8.9228,8.9228,8.8918,8.8043,8.6864,8.5679,8.436,8.309,8.199,8.18,8.18,8.18,8.18,8.18,8.18,8.18,8.18,8.18,8.18,8.18,8.18,8.18,8.18,8.18,8.18,8.18,8.18,8.18,8.18,8.18,8.18,8.18,8.18,8.18,8.182,8.1921,8.2021,8.2113,8.2133,8.1993,8.2033,8.2364,8.2672,8.2968,8.3234,8.3518,8.379,8.4081,8.4148,8.4177,8.4177,8.4177,8.4177,8.198,8.1145,8.176,8.2641,8.357,8.3594,8.5182,8.7407,8.7694,8.8682,9.0328,9.0431,9.0609,9.1065,9.1721,9.2295,9.3214,9.39,9.4702,9.5358,9.567,9.6001,9.6315,9.6576,9.6624,9.6624,9.6596,9.6511,9.5899,9.4907,9.4027,9.2931,9.1075,8.9918,8.9291,8.9228,8.9228,8.9228,8.9228,8.9228,8.9228,8.9228,8.9228,8.9228,8.9228,8.9228,8.9228,8.9228,8.9228,8.9228,8.9228,8.9228,8.9228,8.9228,8.9228,8.9228,8.9228,8.9228,8.9228,8.9228,8.9228,8.9228,8.9228,8.9228,8.9172,8.8579,8.7372,8.5904,8.4783,8.359,8.23,8.18,8.18,8.18,8.18,8.18,8.18,8.18,8.18,8.18,8.18,8.18,8.18,8.18,8.18,8.18,8.18,8.18,8.18,8.18,8.18,8.18,8.18,8.18,8.18,8.18,8.18,8.1901,8.1973,8.2133,8.2273,8.2073,8.2093,8.2364,8.2692,8.2968,8.3215,8.3411,8.3703,8.4052,8.4148,8.4177,8.4177,8.4177,8.4177,8.2908,8.2884,8.4247,8.4919,8.532,8.5293,8.6276,8.8085,8.7981,8.8966,9.0302,9.0456,9.0862,9.1518,9.1897,9.2867,9.4635,9.4875,9.5334,9.5929,9.6477,9.6358,9.6576,9.66,9.6524,9.641,9.6572,9.5885,9.4913,9.4162,9.3157,9.248,9.0827,9.0065,8.9523,8.9228,8.9228,8.9228,8.9228,8.9228,8.9228,8.9228,8.9228,8.9228,8.9228,8.9228,8.9228,8.9228,8.9228,8.9228,8.9228,8.9228,8.9228,8.9228,8.9228,8.9228,8.9228,8.9228,8.9228,8.9228,8.9228,8.9228,8.9228,8.9228,8.9228,8.92,8.7936,8.5876,8.5396,8.4183,8.2667,8.18,8.18,8.18,8.18,8.18,8.18,8.18,8.18,8.18,8.18,8.18,8.18,8.18,8.18,8.18,8.18,8.18,8.18,8.18,8.18,8.18,8.18,8.18,8.18,8.18,8.18,8.1881,8.1913,8.2093,8.2253,8.2432,8.2372,8.2562,8.2622,8.2929,8.3215,8.344,8.3684,8.4013,8.4177,8.4177,8.4177,8.4177,8.4177,8.5664,8.4436,8.3542,8.4754,8.6987,8.7013,8.8033,8.9611,8.9636,8.9945,9.0354,9.0431,9.0533,9.0888,9.1619,9.232,9.2917,9.3532,9.4434,9.5141,9.5526,9.5862,9.6196,9.641,9.6073,9.543,9.6096,9.5872,9.4808,9.3564,9.2,9.0138,9.0172,8.9573,8.9263,8.9228,8.9228,8.9228,8.9228,8.9228,8.9228,8.9228,8.9228,8.9228,8.9228,8.9228,8.9228,8.9228,8.9228,8.9228,8.9228,8.9228,8.9228,8.9228,8.9228,8.9206,8.8839,8.8918,8.9031,8.8946,8.92,8.9228,8.9228,8.9009,8.9115,8.9172,8.8212,8.5763,8.5566,8.4219,8.2554,8.182,8.18,8.18,8.18,8.18,8.18,8.18,8.18,8.18,8.18,8.18,8.18,8.18,8.18,8.18,8.18,8.18,8.18,8.18,8.18,8.18,8.18,8.18,8.18,8.18,8.18,8.1841,8.1861,8.1981,8.2081,8.2213,8.2463,8.2503,8.2483,8.2811,8.3234,8.344,8.3664,8.3936,8.4139,8.4158,8.4177,8.4177,8.4168,8.8267,8.7328,8.6406,8.7117,8.8734,8.8863,8.9456,9.0251,9.0405,9.0405,9.0405,9.0405,9.0405,9.0686,9.1469,9.212,9.2691,9.3286,9.3873,9.4316,9.4413,9.4653,9.5233,9.5233,9.5426,9.5141,9.5526,9.5598,9.4864,9.3565,9.2423,9.0922,8.9934,8.9228,8.9228,8.9228,8.9228,8.9228,8.9228,8.9228,8.9228,8.9228,8.9228,8.9228,8.9228,8.9228,8.9228,8.9228,8.9228,8.9228,8.9228,8.9228,8.9206,8.92,8.92,8.9122,8.836,8.8043,8.8297,8.7795,8.7563,8.7619,8.8043,8.8444,8.8501,8.867,8.819,8.577,8.5566,8.4332,8.2469,8.1877,8.18,8.18,8.18,8.18,8.18,8.18,8.18,8.18,8.18,8.18,8.18,8.18,8.18,8.18,8.18,8.18,8.18,8.18,8.18,8.18,8.18,8.18,8.18,8.18,8.18,8.182,8.1841,8.1901,8.1961,8.2133,8.2463,8.2573,8.2582,8.2811,8.3195,8.3421,8.3548,8.379,8.4052,8.4139,8.4177,8.4168,8.3983,9.0073,9.0021,8.9996,9.02,9.0303,9.0277,9.038,9.0405,9.0405,9.0405,9.0405,9.0405,9.0405,9.0609,9.1343,9.2195,9.2741,9.289,9.2964,9.3261,9.3335,9.3455,9.3628,9.3527,9.441,9.4681,9.5165,9.5161,9.4685,9.3578,9.2734,9.1944,9.0222,8.9228,8.9228,8.9228,8.9228,8.9228,8.9228,8.9228,8.9228,8.9228,8.9228,8.9228,8.9228,8.9228,8.9228,8.8839,8.8833,8.8833,8.8783,8.8726,8.8783,8.8805,8.8861,8.8501,8.7541,8.6412,8.7428,8.7315,8.6885,8.7196,8.7372,8.7485,8.8106,8.8614,8.8218,8.5848,8.5284,8.4098,8.2377,8.1849,8.18,8.18,8.18,8.18,8.18,8.18,8.18,8.18,8.18,8.18,8.18,8.18,8.18,8.18,8.18,8.18,8.18,8.18,8.18,8.18,8.18,8.18,8.18,8.18,8.18,8.18,8.1861,8.1921,8.1981,8.2073,8.2423,8.2613,8.2751,8.2909,8.3136,8.3303,8.3479,8.3654,8.3877,8.3994,8.4071,8.3954,8.3731,8.8215,8.8215,8.8241,8.9044,9.0251,9.0405,9.0405,9.0405,9.0405,9.0405,9.0405,9.0405,9.0405,9.0482,9.0659,9.0811,9.0964,9.1141,9.1619,9.212,9.2345,9.2791,9.3529,9.4142,9.441,9.4434,9.5042,9.5785,9.4566,9.3358,9.2344,9.1357,9.0109,8.9228,8.9228,8.9228,8.9228,8.9228,8.9228,8.9228,8.9228,8.9228,8.9228,8.9228,8.9228,8.9228,8.9093,8.8472,8.8071,8.7739,8.7174,8.6497,8.6356,8.6299,8.7203,8.8755,8.8783,8.8635,8.8692,8.824,8.7704,8.7654,8.8501,8.8748,8.8861,8.8494,8.819,8.5961,8.4747,8.3372,8.2179,8.18,8.18,8.18,8.18,8.18,8.18,8.18,8.18,8.18,8.18,8.18,8.18,8.18,8.18,8.18,8.18,8.18,8.18,8.18,8.18,8.18,8.18,8.18,8.18,8.18,8.18,8.18,8.1861,8.1941,8.2021,8.2073,8.2193,8.2384,8.2542,8.2613,8.294,8.3166,8.3073,8.3191,8.3568,8.3636,8.3296,8.312,8.2848,8.8966,8.8992,8.8966,8.9559,9.0277,9.0405,9.0405,9.0405,9.0405,9.0405,9.0405,9.0405,9.0405,9.0405,9.0405,9.0405,9.0456,9.0431,9.0659,9.1191,9.1721,9.2295,9.2741,9.3778,9.4069,9.4325,9.3981,9.3733,9.3686,9.2626,9.1673,9.0748,8.9777,8.9206,8.9228,8.9228,8.9228,8.9228,8.9228,8.9228,8.9228,8.9228,8.9228,8.9228,8.9228,8.9228,8.9093,8.8416,8.824,8.8071,8.7598,8.7372,8.7033,8.6695,8.6412,8.7739,8.7626,8.7541,8.8155,8.7704,8.7619,8.7569,8.7964,8.8218,8.8297,8.8212,8.7711,8.6271,8.4896,8.3111,8.1933,8.1849,8.18,8.18,8.18,8.18,8.18,8.18,8.18,8.18,8.18,8.18,8.18,8.18,8.18,8.18,8.18,8.18,8.18,8.18,8.18,8.18,8.18,8.18,8.18,8.18,8.18,8.18,8.1861,8.1981,8.2073,8.2233,8.2284,8.2176,8.2173,8.2193,8.2389,8.2393,8.2446,8.2536,8.2528,8.2459,8.2329,8.2092,8.1703,9.0405,9.0405,9.0405,9.0405,9.0405,9.0405,9.0405,9.0405,9.0405,9.0405,9.0405,9.0405,9.0405,9.0405,9.0405,9.0405,9.0405,9.0431,9.0584,9.1014,9.0844,9.139,9.1526,9.2147,9.3192,9.3679,9.3158,9.2593,9.2625,9.1673,9.1149,9.0748,8.9777,8.9234,8.9228,8.9228,8.9228,8.9228,8.9228,8.9228,8.9228,8.9228,8.9228,8.9228,8.9228,8.9228,8.9178,8.9009,8.8896,8.8868,8.8698,8.8748,8.8551,8.7287,8.7005,8.7569,8.7315,8.74,8.7739,8.6801,8.6017,8.5968,8.6582,8.6949,8.6977,8.6927,8.6638,8.5904,8.4522,8.3111,8.1962,8.18,8.18,8.18,8.18,8.18,8.18,8.18,8.18,8.18,8.18,8.18,8.18,8.18,8.18,8.18,8.18,8.18,8.18,8.18,8.18,8.18,8.18,8.18,8.18,8.18,8.18,8.18,8.1841,8.1953,8.2053,8.2244,8.2187,8.1883,8.1763,8.162,8.1475,8.1474,8.1496,8.1556,8.1382,8.1197,8.1006,8.0764,8.0423,9.0405,9.0405,9.0405,9.0405,9.0405,9.0405,9.0405,9.0405,9.0405,9.0405,9.0405,9.0405,9.0405,9.0405,9.0405,9.0405,9.0353,9.0352,9.0391,9.0762,8.9947,9.0,9.0217,9.0028,9.0516,9.2997,9.2328,9.2381,9.2248,9.165,9.0754,9.0692,8.9727,8.9263,8.9228,8.9228,8.9228,8.9228,8.9228,8.9228,8.9228,8.9228,8.9228,8.9228,8.9228,8.9228,8.9059,8.8438,8.7711,8.7513,8.661,8.7315,8.8472,8.8726,8.8811,8.8692,8.824,8.8021,8.7936,8.7478,8.6801,8.6949,8.6412,8.5904,8.5827,8.5799,8.5347,8.455,8.3893,8.2969,8.2018,8.18,8.18,8.18,8.18,8.18,8.18,8.18,8.18,8.18,8.18,8.18,8.18,8.18,8.18,8.18,8.18,8.18,8.18,8.18,8.18,8.18,8.18,8.18,8.18,8.18,8.18,8.18,8.18,8.1861,8.1881,8.1588,8.1099,8.1127,8.0952,8.0795,8.0621,8.0287,8.0266,8.058,8.0368,7.9856,7.9609,7.943,7.9136,8.98,9.0379,9.0405,9.0405,9.0405,9.0405,9.0405,9.0405,9.0405,9.0405,9.0405,9.0405,9.0405,9.0405,9.0379,8.9984,8.9588,8.9455,8.9468,8.9104,8.8996,8.9036,8.9484,8.8105,8.7656,8.9753,9.0216,9.0525,9.0703,9.0313,9.0115,8.9946,8.9495,8.9234,8.9228,8.9228,8.9228,8.9228,8.9228,8.9228,8.9228,8.9228,8.9228,8.9228,8.9228,8.9228,8.9228,8.8579,8.836,8.8043,8.7231,8.709,8.7964,8.7619,8.7259,8.7259,8.7259,8.7259,8.7259,8.6723,8.6328,8.625,8.5876,8.5594,8.546,8.4811,8.419,8.3647,8.3026,8.2498,8.1905,8.18,8.18,8.18,8.18,8.18,8.18,8.18,8.18,8.18,8.18,8.18,8.18,8.18,8.18,8.18,8.18,8.18,8.18,8.1651,8.1679,8.1595,8.1679,8.1538,8.1518,8.1482,8.1341,8.1256,8.12,8.1228,8.1143,8.0607,8.0034,7.9583,7.9216,7.9253,7.936,7.8856,7.8631,7.8783,7.8716,7.8417,7.8208,7.8178,7.7984,8.8955,9.001,8.9984,9.0168,9.0353,9.0405,9.0405,9.0405,9.0405,9.0405,9.0405,9.0405,9.0405,9.0405,9.0353,8.9747,8.8823,8.9034,8.819,8.7182,8.7636,8.8129,8.7888,8.6579,8.6218,8.7562,8.7948,8.8508,8.9115,8.9432,8.9256,8.9291,8.9263,8.9228,8.9228,8.9228,8.9228,8.9228,8.9228,8.9228,8.9228,8.9228,8.9228,8.9228,8.9228,8.9228,8.9228,8.9228,8.8974,8.8331,8.7379,8.651,8.6403,8.577,8.5411,8.5411,8.5341,8.5412,8.5496,8.5396,8.5093,8.5058,8.4691,8.4719,8.4663,8.3683,8.3308,8.3005,8.2413,8.1962,8.18,8.18,8.18,8.18,8.18,8.18,8.18,8.18,8.18,8.18,8.18,8.18,8.18,8.18,8.18,8.18,8.18,8.18,8.1651,8.1454,8.1256,8.1002,8.0748,8.0043,8.0015,7.9987,7.9987,8.0015,8.0128,8.0184,8.0006,7.9555,7.9075,7.8463,7.7758,7.7779,7.7997,7.7571,7.7023,7.6931,7.6886,7.6864,7.6912,7.6939,7.6844,8.7745,8.8798,8.8798,8.9404,9.0221,9.0379,9.0273,9.0353,9.0379,9.0405,9.0405,9.0405,9.0405,9.0405,9.0379,8.9747,8.8718,8.9457,8.8561,8.7079,8.6135,8.587,8.605,8.5893,8.669,8.7786,8.8673,8.9031,8.9162,8.9228,8.9228,8.9228,8.9228,8.9228,8.9228,8.9228,8.9228,8.9228,8.9228,8.9228,8.9228,8.9065,8.8952,8.8924,8.8896,8.8833,8.8918,8.8918,8.8184,8.6017,8.5799,8.5341,8.4649,8.4493,8.4264,8.4258,8.4225,8.4541,8.5116,8.4247,8.3767,8.3675,8.2864,8.2244,8.2469,8.2441,8.2215,8.2195,8.1913,8.18,8.18,8.18,8.18,8.1764,8.1651,8.1764,8.18,8.18,8.18,8.18,8.1764,8.1792,8.18,8.18,8.1708,8.0777,8.0946,8.0889,8.0796,8.0458,8.0176,8.0119,7.9479,7.8661,7.8632,7.8632,7.8802,7.8971,7.9168,7.8886,7.868,7.8003,7.7758,7.7476,7.6686,7.6431,7.6571,7.6218,7.5672,7.5556,7.6077,7.5906,7.574,7.6183,7.6902,8.6555,8.7663,8.7638,8.7926,8.8376,8.9139,8.9376,8.9483,9.0062,9.0405,9.0405,9.0405,9.0405,9.0405,9.0379,8.9747,8.8772,8.9166,8.8058,8.608,8.5339,8.5295,8.5652,8.6027,8.7142,8.8452,8.9037,8.9184,8.9228,8.9228,8.9228,8.915,8.9228,8.9228,8.9093,8.9228,8.9228,8.9178,8.9228,8.9228,8.9122,8.8529,8.819,8.7993,8.74,8.7111,8.7118,8.709,8.6666,8.565,8.4755,8.4215,8.3805,8.3251,8.281,8.2859,8.2789,8.2941,8.3198,8.2893,8.2574,8.2461,8.2207,8.1849,8.18,8.18,8.18,8.18,8.18,8.18,8.18,8.18,8.18,8.1615,8.0466,7.9592,7.9583,7.9676,7.9563,7.9563,7.9592,7.9563,7.9583,7.9555,7.9555,7.962,7.9845,7.9809,7.9752,7.9188,7.8764,7.8764,7.835,7.8012,7.7927,7.788,7.7992,7.8181,7.8228,7.7504,7.6817,7.5717,7.566,7.5613,7.5285,7.5049,7.5141,7.4987,7.4677,7.4912,7.5361,7.5575,7.5747,7.6077,7.6946,8.5392,8.6398,8.6425,8.6609,8.7005,8.7795,8.819,8.8322,8.9087,8.9298,8.9509,8.9798,8.9852,8.9957,9.0194,8.9746,8.8982,8.9008,8.7767,8.542,8.4864,8.5049,8.5456,8.5753,8.6726,8.8142,8.8524,8.8965,8.9206,8.9228,8.9009,8.8755,8.8585,8.8529,8.8303,8.8106,8.8247,8.8247,8.819,8.8162,8.7993,8.7231,8.6857,8.6772,8.6045,8.5679,8.5566,8.5566,8.5163,8.376,8.2392,8.1718,8.106,8.0175,7.9508,7.9596,7.9866,8.0167,8.0511,8.0947,8.1313,8.1333,8.1595,8.182,8.18,8.18,8.18,8.18,8.18,8.18,8.18,8.18,8.1567,8.1191,7.9479,7.8181,7.8124,7.7955,7.7955,7.7955,7.8068,7.8153,7.8228,7.8181,7.8181,7.8181,7.8209,7.8209,7.8341,7.8003,7.7523,7.7476,7.7193,7.7137,7.7109,7.709,7.7118,7.7241,7.6845,7.6149,7.5406,7.4588,7.4418,7.4277,7.4598,7.4664,7.4447,7.4324,7.4306,7.4387,7.4786,7.511,7.5408,7.6044,7.6913,8.418,8.5181,8.5233,8.579,8.6662,8.6926,8.7005,8.7005,8.7191,8.7348,8.7455,8.8322,8.8719,8.9007,8.964,8.943,8.8929,8.9376,8.8057,8.5576,8.4149,8.3586,8.371,8.4288,8.5369,8.6629,8.7397,8.8208,8.8959,8.8889,8.8614,8.7485,8.7372,8.6892,8.6074,8.5791,8.5848,8.5763,8.5707,8.5735,8.5707,8.546,8.5425,8.5368,8.5086,8.4888,8.4776,8.4663,8.2941,7.9099,7.8205,7.7508,7.6202,7.5171,7.5401,7.5596,7.5571,7.6631,7.7478,7.8992,7.9936,8.0032,8.0802,8.18,8.1405,8.1284,8.1264,8.1341,8.1425,8.1538,8.1538,8.1482,8.0946,8.0043,7.8576,7.7786,7.7871,7.7749,7.7504,7.7617,7.7899,7.7871,7.7607,7.7588,7.7617,7.7664,7.756,7.7447,7.7353,7.6742,7.6375,7.5952,7.5529,7.5501,7.5613,7.5613,7.5642,7.566,7.5378,7.4964,7.4531,7.4362,7.4259,7.4277,7.4372,7.4344,7.4277,7.4277,7.4277,7.4332,7.4405,7.4524,7.5072,7.5913,7.6789,8.3653,8.4019,8.4046,8.4339,8.4711,8.5526,8.5765,8.5895,8.6581,8.6899,8.6952,8.7374,8.7508,8.7638,8.7981,8.7926,8.7613,8.7954,8.7107,8.5207,8.3967,8.2967,8.2397,8.2526,8.366,8.5702,8.6427,8.7058,8.7943,8.728,8.6688,8.6271,8.6187,8.5566,8.4437,8.4296,8.388,8.3288,8.3203,8.3203,8.3054,8.2385,8.1982,8.1877,8.1172,8.0805,8.0768,8.0768,7.9845,7.8215,7.7204,7.6413,7.5696,7.5661,7.5854,7.5993,7.6515,7.7004,7.7473,7.7654,7.8106,7.8543,7.8644,7.8874,7.9325,7.9385,7.9394,7.9366,7.9451,7.9394,7.9422,7.9394,7.883,7.7682,7.7109,7.6544,7.5736,7.5613,7.567,7.5754,7.5708,7.5642,7.5642,7.5595,7.5642,7.566,7.566,7.566,7.5529,7.5256,7.5106,7.4795,7.4485,7.4428,7.4287,7.4277,7.4277,7.4277,7.4277,7.4277,7.4277,7.4277,7.4277,7.4277,7.4277,7.4277,7.4277,7.4277,7.4277,7.4423,7.4542,7.4983,7.565,7.6319,7.7223,8.2697,8.313,8.3153,8.3224,8.3471,8.4233,8.46,8.4706,8.542,8.5818,8.5871,8.6185,8.6346,8.6398,8.6768,8.6926,8.6847,8.6056,8.5183,8.3943,8.2809,8.1809,8.1106,8.0558,8.1581,8.3689,8.4294,8.5059,8.5941,8.551,8.5004,8.496,8.4937,8.4268,8.3111,8.2631,8.2095,8.1276,8.0853,8.0627,8.0523,7.9741,7.9309,7.9197,7.8435,7.7504,7.6855,7.678,7.6798,7.6742,7.6048,7.5164,7.4319,7.4366,7.4456,7.4581,7.5252,7.5695,7.5665,7.5739,7.6047,7.647,7.6832,7.7069,7.7494,7.7858,7.804,7.8012,7.7955,7.7955,7.7955,7.7955,7.7334,7.5783,7.5613,7.5247,7.4626,7.4418,7.4277,7.4277,7.4277,7.4277,7.4316,7.4326,7.4485,7.4475,7.4447,7.4447,7.4372,7.4457,7.4277,7.4277,7.4277,7.4287,7.4277,7.4277,7.4277,7.4277,7.4277,7.4277,7.4277,7.4277,7.4277,7.4277,7.4277,7.4277,7.4277,7.4277,7.4277,7.435,7.4508,7.5258,7.6294,7.7274,7.8181,8.1141,8.2533,8.2635,8.2917,8.3295,8.3497,8.3468,8.3547,8.36,8.3785,8.4022,8.4706,8.5181,8.5339,8.6056,8.6715,8.624,8.4629,8.3181,8.2126,8.089,8.0257,7.9994,7.9016,7.9242,8.0334,8.1022,8.2428,8.4311,8.4188,8.3939,8.3657,8.3598,8.3026,8.182,8.0684,7.9958,7.9535,7.8539,7.8003,7.7955,7.7871,7.7786,7.7833,7.7842,7.677,7.4569,7.4485,7.4598,7.445,7.3684,7.2405,7.142,7.0606,6.9769,7.0299,7.0706,7.1008,7.1362,7.2855,7.3722,7.4094,7.5515,7.6182,7.6324,7.6948,7.7331,7.7218,7.7312,7.7606,7.7511,7.7474,7.6629,7.4777,7.4495,7.4485,7.4287,7.4277,7.4277,7.4277,7.4277,7.4277,7.4277,7.4277,7.4277,7.4277,7.4277,7.4277,7.4277,7.4277,7.4277,7.4277,7.4277,7.4277,7.4277,7.4277,7.4277,7.4277,7.4277,7.4277,7.4277,7.4277,7.4277,7.4277,7.4277,7.4277,7.4277,7.4277,7.4277,7.4287,7.4428,7.4756,7.5732,7.6759,7.8138,8.0853,8.2053,8.2493,8.273,8.292,8.3274,8.3415,8.3415,8.3415,8.3415,8.3442,8.3758,8.3943,8.4022,8.4339,8.45,8.4418,8.3785,8.3178,8.2756,8.1625,8.0653,7.9809,7.8693,7.835,7.8889,8.0272,8.1967,8.3546,8.2982,8.2543,8.2441,8.2385,8.1764,8.0494,7.9244,7.8124,7.7259,7.6103,7.5472,7.5444,7.5472,7.5463,7.5604,7.6337,7.5971,7.4372,7.4277,7.4277,7.4095,7.2988,7.2078,7.1555,7.075,7.0332,7.0364,7.1058,7.1547,7.1609,7.1648,7.1933,7.247,7.2671,7.2966,7.3477,7.3716,7.3849,7.3868,7.3868,7.4134,7.4482,7.4661,7.4345,7.3786,7.393,7.4259,7.4277,7.4277,7.4277,7.4277,7.4277,7.4277,7.4277,7.4277,7.4277,7.4277,7.4277,7.4277,7.4277,7.4277,7.4277,7.4277,7.4277,7.4277,7.4277,7.4277,7.4277,7.4277,7.4277,7.4277,7.4277,7.4277,7.4277,7.4277,7.4277,7.4277,7.4277,7.4277,7.4277,7.4277,7.4344,7.4682,7.5556,7.6299,7.7533,8.0124,8.0699,8.1639,8.2181,8.2371,8.2678,8.2844,8.287,8.3035,8.3083,8.313,8.3295,8.3415,8.3415,8.3201,8.3201,8.3415,8.3415,8.3178,8.2653,8.1994,8.0999,7.9862,7.8697,7.8139,7.8236,7.8904,8.0035,8.13,8.1102,8.1025,8.1288,8.1688,8.1425,8.0523,7.9262,7.8294,7.7428,7.5811,7.4936,7.5096,7.4964,7.5172,7.5585,7.6403,7.6244,7.4993,7.4964,7.4592,7.3848,7.2661,7.1794,7.1479,7.0712,7.0274,7.0306,7.0716,7.1004,7.0946,7.0538,7.0473,7.0954,7.0808,7.1127,7.1422,7.1756,7.1899,7.1946,7.1927,7.1908,7.2313,7.2511,7.2801,7.3109,7.3793,7.4277,7.4277,7.4277,7.4277,7.4277,7.4277,7.4277,7.4277,7.4277,7.4277,7.4277,7.4277,7.4277,7.4277,7.4277,7.4277,7.4277,7.4277,7.4277,7.4277,7.4277,7.4277,7.4277,7.4277,7.4277,7.4277,7.4277,7.4277,7.4277,7.4277,7.4277,7.4277,7.4277,7.4277,7.4277,7.4277,7.4767,7.5905,7.6159,7.7146,7.8851,7.862,8.0169,8.1107,8.1715,8.1737,8.1788,8.1988,8.2345,8.2561,8.2633,8.3059,8.3318,8.3295,8.2872,8.292,8.3342,8.3415,8.2888,8.1994,8.1836,8.1101,7.9839,7.875,7.8166,7.7845,7.733,7.7347,7.8059,7.8798,7.9616,8.0569,8.1458,8.1792,8.1538,8.041,7.9845,7.9583,7.7476,7.6347,7.6403,7.6432,7.6827,7.7306,7.7777,7.7137,7.6149,7.6065,7.5194,7.322,7.2398,7.1604,7.0873,6.9968,6.948,6.9434,6.9453,6.9453,6.9512,6.9512,6.9519,6.9571,7.0162,7.0688,7.0692,7.1223,7.1539,7.171,7.1577,7.1356,7.097,7.1414,7.2153,7.2876,7.3682,7.4131,7.4241,7.4277,7.4277,7.4277,7.4277,7.4277,7.4277,7.4277,7.4277,7.4277,7.4277,7.4277,7.4277,7.4277,7.4277,7.4277,7.4277,7.4277,7.4277,7.4277,7.4277,7.4277,7.4277,7.4277,7.4277,7.4277,7.4277,7.4277,7.4277,7.4277,7.4277,7.4277,7.4277,7.4277,7.4277,7.4541,7.5444,7.5905,7.6393,7.6253,7.6339,7.7548,7.8794,8.001,8.0412,8.1041,8.1814,8.1962,8.2033,8.2083,8.2202,8.249,8.2801,8.2656,8.2896,8.3392,8.3415,8.3204,8.2967,8.2914,8.1836,7.9971,7.9519,7.8539,7.7171,7.7181,7.7517,7.7894,7.9284,8.0569,8.1349,8.17,8.18,8.1728,8.0551,8.0353,8.0974,7.8793,7.7946,7.8745,7.8839,7.7749,7.5567,7.6178,7.6093,7.4833,7.4814,7.4469,7.3912,7.2633,7.1813,7.1566,7.0175,6.9394,6.9394,6.9394,6.9394,6.9394,6.9394,6.9394,6.9394,6.9578,6.9754,6.9793,6.9988,7.0078,7.0136,7.0104,7.0104,6.9851,7.0557,7.1383,7.2191,7.2941,7.3664,7.4131,7.4277,7.4241,7.4277,7.4241,7.4277,7.4277,7.4277,7.4277,7.4277,7.4277,7.4277,7.4277,7.4277,7.4277,7.4277,7.4277,7.4277,7.4277,7.4277,7.4277,7.4277,7.4277,7.4277,7.4277,7.4277,7.4277,7.4277,7.4277,7.4277,7.4277,7.4277,7.4277,7.4277,7.4277,7.4428,7.4908,7.4823,7.5168,7.596,7.6009,7.6695,7.7521,7.8338,7.8692,7.9192,7.983,8.0094,8.0397,8.0711,8.0109,8.0139,8.0613,8.0826,8.1151,8.1637,8.1872,8.2205,8.2677,8.2653,8.2205,8.1233,8.0415,7.9229,7.7946,7.7344,7.7192,7.7453,7.8631,8.0008,8.1167,8.166,8.18,8.1764,8.1079,8.1313,8.2461,8.0551,7.9902,8.0551,8.0184,7.8576,7.6196,7.6469,7.6328,7.52,7.5031,7.463,7.3784,7.2895,7.2088,7.1498,7.0519,6.98,6.9414,6.9394,6.9394,6.9394,6.9394,6.9394,6.9394,6.9394,6.9394,6.9394,6.9394,6.9394,6.9394,6.9414,6.9394,6.9499,7.0228,7.0912,7.1422,7.2181,7.2792,7.3304,7.359,7.3811,7.383,7.4058,7.4277,7.4277,7.4277,7.4277,7.4277,7.4277,7.4277,7.4277,7.4277,7.4277,7.4277,7.4277,7.4277,7.4277,7.4277,7.4277,7.4277,7.4277,7.4277,7.4277,7.4277,7.4277,7.4277,7.4277,7.4277,7.4277,7.4277,7.4277,7.4277,7.4277,7.4277,7.4277,7.4277,7.4332,7.6621,7.6671,7.6544,7.6695,7.6669,7.6771,7.6946,7.7144,7.7486,7.8211,7.8732,7.7417,7.7249,7.7761,7.8207,7.8715,7.9287,7.9639,8.0426,8.1414,8.1467,8.1991,8.2363,8.0675,7.9655,7.915,7.7401,7.6489,7.6532,7.7384,7.8631,8.0282,8.1237,8.1679,8.1792,8.1671,8.2264,8.3506,8.2546,8.1953,8.1764,8.0551,7.9225,7.7823,7.7617,7.7109,7.5905,7.6037,7.5138,7.3415,7.3016,7.2215,7.0888,7.0482,6.9978,6.9103,6.9025,6.9085,6.9032,6.9078,6.898,6.9085,6.8973,6.9006,6.9184,6.9104,6.9059,6.8953,6.9006,6.89,6.9137,6.9819,7.0309,7.0505,7.1324,7.188,7.2229,7.2689,7.3109,7.3146,7.3893,7.4277,7.4277,7.4277,7.4277,7.4277,7.4277,7.4277,7.4277,7.4277,7.4277,7.4277,7.4277,7.4277,7.4277,7.4277,7.4277,7.4277,7.4277,7.4277,7.4277,7.4277,7.4277,7.4277,7.4277,7.4277,7.4277,7.4277,7.4277,7.4277,7.4277,7.4277,7.4277,7.4277,7.4296,7.4411,7.4411,7.4434,7.4434,7.4487,7.5275,7.6161,7.6974,7.7065,7.6781,7.6149,7.58,7.6435,7.7686,7.7856,7.8311,7.9065,7.9224,7.9631,8.0261,8.0287,7.9937,7.9322,7.8825,7.8064,7.7194,7.6667,7.6403,7.6511,7.732,7.8343,7.9389,8.0019,8.0805,8.1792,8.0833,8.1397,8.3421,8.3308,8.2752,8.182,8.0551,7.8849,7.6742,7.5642,7.4964,7.472,7.4682,7.4496,7.3985,7.255,7.1299,7.0348,6.8755,6.7546,6.6814,6.6675,6.6656,6.6656,6.6656,6.6701,6.6682,6.6675,6.707,6.7827,6.7221,6.6701,6.6675,6.6799,6.6773,6.6905,6.772,6.8658,6.9351,7.035,7.1297,7.2558,7.296,7.3294,7.3893,7.4131,7.4249,7.4277,7.4277,7.4277,7.4277,7.4277,7.4277,7.4277,7.4277,7.4277,7.4277,7.4277,7.4146,7.4277,7.4203,7.4203,7.4277,7.4231,7.4203,7.4259,7.4259,7.4231,7.4174,7.4203,7.4146,7.4231,7.4231,7.4203,7.4277,7.4277,7.4277,7.4277,7.4277,7.4332,7.3694,7.3694,7.3694,7.3694,7.3722,7.4284,7.4891,7.5402,7.4871,7.4284,7.3799,7.4284,7.5024,7.5857,7.6084,7.6443,7.689,7.7141,7.7812,7.8686,7.8712,7.8817,7.886,7.8403,7.7796,7.719,7.6667,7.6403,7.6489,7.7325,7.7978,7.852,7.9638,8.0687,8.1716,8.1135,8.1699,8.3534,8.3054,8.2159,8.0918,7.914,7.725,7.5359,7.3544,7.2577,7.2548,7.2566,7.2548,7.2584,7.1378,7.03,6.9332,6.8095,6.694,6.5986,6.5911,6.5911,6.5911,6.5911,6.5911,6.5911,6.5911,6.6009,6.6125,6.5564,6.5376,6.5858,6.5911,6.5911,6.5937,6.6464,6.7041,6.7529,6.8465,6.9421,7.0232,7.0886,7.1792,7.2749,7.3206,7.3649,7.4184,7.4277,7.4277,7.4277,7.4277,7.4277,7.4277,7.3328,7.2548,7.2566,7.2566,7.2595,7.2566,7.3046,7.3423,7.3441,7.3451,7.3677,7.4203,7.3723,7.3526,7.3451,7.3469,7.3451,7.3441,7.3423,7.3733,7.4005,7.4277,7.4277,7.4277,7.4277,7.3908,7.3163,7.3189,7.3214,7.3167,7.3167,7.3167,7.3167,7.3065,7.21,7.169,7.1719,7.2735,7.3189,7.3211,7.351,7.3705,7.3815,7.4419,7.5449,7.6757,7.6988,7.786,7.9196,7.8266,7.7858,7.7823,7.6878,7.6403,7.6489,7.7149,7.7703,7.8132,7.9492,8.071,8.1486,8.1558,8.2151,8.328,8.2357,8.1324,8.0254,7.8013,7.6186,7.4859,7.2542,7.1123,7.0828,7.0704,7.0518,7.0518,7.003,6.9236,6.8136,6.7588,6.6821,6.5614,6.5485,6.5571,6.5666,6.5534,6.549,6.5648,6.5497,6.4991,6.3956,6.4001,6.4492,6.5342,6.5331,6.5418,6.5437,6.5542,6.5711,6.5748,6.6418,6.704,6.7477,6.8574,6.9809,7.1167,7.1836,7.2623,7.3338,7.3554,7.3497,7.362,7.3356,7.361,7.3215,7.19,7.0687,7.0518,7.0518,7.0518,7.0912,7.1607,7.2143,7.2238,7.221,7.2492,7.33,7.2746,7.2266,7.221,7.2228,7.221,7.2238,7.221,7.2548,7.3225,7.3441,7.3515,7.3423,7.3469,7.2961,7.0779,7.0801,7.0775,7.0801,7.0801,7.0775,7.0801,7.0779,0.0,0.0,0.0,7.0699,7.0801,7.0775,7.0861,7.1118,7.1608,7.2644,7.3439,7.4005,7.4991,7.5773,7.6342,7.618,7.6272,7.6693,7.6508,7.6403,7.6403,7.6527,7.7384,7.8783,7.9174,7.9674,8.0198,8.024,8.0861,8.2066,8.1962,8.186,8.1915,8.0506,7.9142,7.7949,7.5535,7.3602,7.2217,7.1138,7.0518,7.0518,6.9278,6.8186,6.7289,6.6021,6.474,6.3617,6.3467,6.3811,6.4537,6.3709,6.3622,6.4545,6.3727,6.268,6.1529,6.2329,6.2988,6.3129,6.3182,6.3182,6.3208,6.4044,6.4643,6.4624,6.5524,6.6637,6.7806,6.832,6.9016,7.0363,7.0797,7.1025,7.1279,7.1353,7.1195,7.124,7.1438,7.1205,7.1138,7.0817,7.0292,7.0292,7.0207,7.0405,7.0518,7.0771,7.0856,7.0912,7.0912,7.0969,7.1138,7.1025,7.0884,7.0884,7.0902,7.0912,7.0884,7.0912,7.0969,7.1149,7.124,7.1205,7.1223,7.1223,7.0986,7.0191,0.0,7.0191,7.0191,0.0,7.0191,6.9531,6.8468,6.8514,6.8798,6.9429,6.9916,7.0191,7.0191,7.0191,7.0297,7.0582,7.1165,7.1681,7.2129,7.2722,7.3297,7.3933,7.3959,7.4171,7.4594,7.4641,7.4936,7.5459,7.491,7.5579,7.7411,7.7315,7.7586,7.8317,7.9376,7.9893,7.9854,8.007,8.0236,8.0394,7.8801,7.7648,7.6973,7.4022,0.0,0.0,0.0,0.0,0.0,0.0,0.0,0.0,0.0,0.0,6.365,6.2835,6.2222,6.1894,6.1356,6.12,6.166,6.1124,6.0596,5.9999,6.0474,6.1071,6.1669,6.1722,6.1959,6.2513,6.3112,6.3455,6.349,6.4549,6.5592,6.6376,6.7072,6.8126,6.936,6.9694,6.9931,7.0461,7.0518,7.0518,7.0518,7.0518,7.0574,7.0461,6.953,6.8695,6.8712,6.8667,6.8701,6.8741,6.9152,6.9666,6.9626,6.9341,6.9496,7.0381,6.9734,6.9237,6.9626,6.9694,6.9649,6.9694,6.9694,6.9875,7.0394,7.0518,7.0236,6.8893,6.8221,6.7836,6.932,6.943,6.943,6.9493,6.9556,6.9472,6.839,6.6762,6.6843,6.7376,6.8357,6.9175,6.9535,6.9556,6.9556,6.9577,6.9556,6.9785,7.0077,7.0507,7.0817,7.1383,7.2141,7.2271,7.252,7.2892,7.2913,7.3387,7.4278,7.3334,7.3872,7.5709,7.5521,7.5941,7.7033,0.0,0.0,0.0,7.8185,7.8593,7.8602,7.71,7.6142,7.5863,7.2932,0.0,7.1583,7.0554,7.0186,7.061,7.0233,0.0,0.0,0.0,0.0,0.0,0.0,0.0,0.0,0.0,0.0,0.0,5.8562,5.8377,5.8783,5.9004,5.9481,6.0421,6.0736,6.121,6.1958,6.209,6.2187,6.2354,6.3379,6.4282,6.4739,6.5739,6.6969,6.8233,6.8458,6.8791,6.9604,6.9869,6.9812,6.97,6.9858,6.9841,6.9784,6.8148,6.6947,6.6862,6.7076,6.6919,6.6862,6.777,6.8424,6.8362,6.7873,6.8124,6.9309,6.8451,6.7817,6.829,6.8424,6.8441,6.8441,6.8441,6.8706,6.966,6.9812,6.9276,6.7302,6.5952,6.5161,6.6393,6.6789,6.6789,6.6989,6.7254,6.6953,6.6612,6.636,6.6701,6.6939,6.7117,6.7265,6.7295,6.7315,6.7315,6.7315,6.7371,6.8341,6.884,6.8974,7.0337,7.1168,7.163,7.2099,7.252,7.2913,7.2913,7.2965,7.3123,7.2992,7.378,7.5437,7.546,7.6229,7.7697,7.7024,7.6601,7.6441,7.7808,7.8745,7.9188,7.9275,7.8769,7.7676,7.7273,7.5896,7.3467,7.2953,7.226,7.1126,7.0344,6.953,6.8449,6.6576,6.4286,0.0,6.0001,0.0,0.0,0.0,0.0,0.0,0.0,0.0,0.0,5.8628,5.9165,5.9323,6.0455,6.0836,5.996,6.0179,6.063,6.1296,6.1592,6.2494,6.4466,6.4875,6.5549,6.6972,6.7149,6.7161,6.7358,6.7358,6.7342,6.7499,6.7471,6.7403,6.7314,6.7076,6.6806,6.6862,6.6862,6.6862,6.6891,6.7048,6.7189,6.7144,6.7024,6.7062,6.7438,6.7158,6.7029,6.71,6.7189,6.7161,6.7133,6.7161,6.7234,6.7483,6.7556,6.7398,6.6879,6.5868,6.5198,6.6274,6.6258,6.6258,6.6503,6.6843,6.666,6.6605,6.6645,6.6782,6.6843,6.6843,6.6843,6.6843,6.6843,6.6843,6.6843,6.6914,6.7422,6.7671,6.7676,6.834,6.9043,6.9703,6.9906,7.0352,7.0936,7.0956,7.1299,7.1847,7.1273,7.2134,7.4408,7.3819,7.3873,7.4586,7.4319,7.4485,7.5124,7.6022,7.6822,7.7462,7.8609,7.8605,7.7289,7.7316,7.6628,7.5018,7.4163,7.3264,7.23,7.187,7.083,6.8876,6.6156,6.3538,0.0,0.0,0.0,0.0,0.0,0.0,0.0,0.0,0.0,0.0,0.0,5.6872,5.7532,5.9667,6.0595,5.9551,6.0416,6.097,6.0826,6.1492,6.2316,6.312,6.4384,6.5056,6.4857,6.5456,6.5912,6.5912,6.5896,6.6122,6.6778,6.5678,6.5074,6.571,6.5896,6.6134,6.675,6.6862,6.6862,6.6862,6.6862,6.6862,6.683,6.6505,6.6372,6.678,6.6505,6.6372,6.6752,6.6862,6.6862,6.6862,6.6862,6.6862,6.6862,6.6862,6.6862,6.6806,6.5356,6.4096,6.6437,6.6203,6.5126,6.4924,6.537,6.5475,6.5707,6.5956,6.6056,6.6076,6.6076,6.6096,6.5923,6.5624,6.5415,6.5415,6.5675,6.5969,6.6308,6.6623,6.7024,6.7615,6.8354,6.848,6.881,6.9336,6.9111,6.9579,7.0647,6.9677,7.0383,7.2582,7.2153,7.1833,7.1795,7.2305,7.3076,7.4079,7.4921,7.5558,7.6019,7.7455,7.7691,7.6623,7.7309,7.7203,7.6156,7.5388,7.4496,7.3378,7.2428,7.091,6.8586,6.4841,0.0,0.0,0.0,0.0,0.0,0.0,0.0,0.0,0.0,5.0746,5.1247,0.0,5.4734,0.0,5.8807,6.014,5.9415,6.0308,0.0,0.0,6.0986,6.1425,6.151,6.3312,6.4156,6.3125,6.4023,6.4768,6.474,6.4689,6.5138,6.6332,6.4931,6.3986,6.4639,6.4931,6.5347,6.5807,6.5904,6.6105,6.64,6.6429,6.636,6.6652,6.6308,6.6162,6.6764,6.6372,6.6156,6.6747,6.6862,6.6862,6.6862,6.6862,6.6794,6.6512,6.6665,6.6862,6.6834,6.5186,6.3698,6.5865,6.5906,6.1778,6.0497,6.1181,6.1544,6.2288,6.3291,6.3679,6.3815,6.3815,6.3834,6.3237,6.2164,6.1198,0.0,6.2285,6.3357,6.4568,6.6007,6.7451,6.8354,6.8771,6.9119,6.9342,6.9322,6.8275,6.84,6.9447,6.885,6.8966,6.9913,7.1151,7.1545,7.1301,7.2311,7.3101,7.3573,7.5693,7.6518,7.6002,7.6471,7.6711,7.6623,7.9016,7.9118,7.6705,7.7336,7.6621,7.4044,7.0573,6.8005,6.6452,0.0,0.0,0.0,0.0,0.0,0.0,0.0,0.0,0.0,0.0,0.0,0.0,0.0,0.0,5.5996,5.8051,0.0,5.8962,5.8634,0.0,0.0,0.0,5.8475,5.9896,6.1087,6.196,6.2555,0.0,0.0,6.3671,6.348,6.387,6.5406,6.5409,6.4942,6.3828,6.4448,6.4714,6.3848,6.3535,6.4043,6.5475,6.522,6.517,6.6037,6.659,6.67,6.6705,6.6651,6.6752,6.6721,6.6834,6.6806,6.6834,6.6677,6.6512,6.5432,6.6065,6.6778,6.6609,6.5601,6.4649,6.1858,6.0148,5.8597,5.8143,5.8385,5.859,5.9294,6.0324,6.0428,6.0526,6.0526,6.0508,5.9935,5.8861,5.8421,0.0,0.0,0.0,6.206,6.4156,6.4792,6.5647,6.6688,6.6861,6.7052,6.7262,6.7518,6.788,6.8366,6.9332,6.8483,6.5872,0.0,0.0,6.9158,7.0361,7.192,7.3802,7.553,7.6302,7.5984,7.6377,7.6995,7.785,7.9683,7.9386,7.6826,7.627,7.4188,7.0165,6.7791,6.5121,0.0,0.0,0.0,0.0,0.0,0.0,0.0,0.0,0.0,0.0,0.0,4.6,4.6213,0.0,0.0,0.0,5.2768,5.3574,5.5543,5.7552,0.0,0.0,0.0,0.0,0.0,0.0,0.0,5.9739,6.1413,6.2618,6.2627,6.238,6.2458,6.3081,6.3036,6.2931,6.2967,0.0,6.3851,6.4476,6.4117,6.4153,6.5302,6.4848,6.4465,6.4921,6.557,6.5741,6.488,6.5315,6.5501,6.4876,6.4663,6.4635,6.4635,6.4635,6.4481,6.4074,6.434,6.4635,6.4635,6.3835,6.3129,5.6597,0.0,0.0,0.0,0.0,5.455,5.5169,5.6117,5.6117,5.6117,5.6142,5.61,0.0,0.0,0.0,0.0,0.0,0.0,5.918,6.168,6.2692,6.3803,6.5021,6.5047,6.5169,6.5429,6.5698,6.5973,6.6327,6.7157,6.5813,6.2362,0.0,0.0,0.0,0.0,7.1116,7.3333,7.6277,7.7448,7.678,7.7905,7.8602,7.882,7.9431,7.8827,7.6947,7.5015,7.1935,6.7641,6.5244,0.0,0.0,0.0,0.0,0.0,0.0,0.0,0.0,0.0,0.0,0.0,0.0,0.0,0.0,0.0,0.0,0.0,0.0,0.0,5.2709,5.5724,5.7313,0.0,0.0,0.0,0.0,0.0,0.0,0.0,0.0,0.0,6.0548,6.1155,6.1708,0.0,0.0,6.2188,6.2443,6.2676,6.3195,6.4154,6.373,0.0,6.4773,6.426,6.3817,6.4206,6.4647,6.4503,6.3068,6.3723,6.3955,6.2582,6.2575,6.2449,6.1769,6.1817,6.2134,6.2161,6.2417,6.2645,6.2631,6.2111,6.1616,0.0,0.0,0.0,0.0,0.0,0.0,0.0,0.0,5.0457,5.0457,0.0,5.0472,0.0,0.0,0.0,0.0,0.0,5.3386,0.0,0.0,6.1858,6.3837,6.4263,6.4255,6.4326,6.4256,6.2335,6.1996,6.2864,6.1015,0.0,0.0,0.0,0.0,0.0,0.0,7.0951,7.1633,7.8254,8.0862,7.872,8.1371,8.1668,7.9225,7.8098,7.7434,7.7027,7.4013,7.092,6.7855,6.3051,0.0,0.0,0.0,0.0,0.0,0.0,0.0,0.0,0.0,0.0,0.0,0.0,0.0,0.0,0.0,0.0,0.0,0.0,0.0,0.0,5.2832,0.0,0.0,0.0,0.0,0.0,0.0,0.0,0.0,0.0,0.0,5.7149,5.9771,6.1931,6.2296,0.0,0.0,0.0,0.0,6.299,6.1671,6.1395,6.1901,6.3427,6.3069,6.3055,6.4268,0.0,0.0,6.2206,6.2395,6.2168,6.0629,6.1037,6.0796,5.8137,5.8739,5.9602,5.9644,6.0518,6.1376,6.142,6.0876,6.0765,0.0,0.0,0.0,0.0,0.0,0.0,0.0,0.0,0.0,4.6531,0.0,4.5956,0.0,0.0,0.0,0.0,0.0,0.0,0.0,0.0,5.5542,5.7021,5.8634,5.8618,5.8238,0.0,5.7738,5.6709,0.0,0.0,0.0,0.0,0.0,0.0,0.0,0.0,6.8618,7.0804,7.5248,7.7194,7.6581,7.9273,8.0331,7.9399,7.9819,7.8639,7.5759,7.0062,6.5967,0.0,0.0,0.0,0.0,0.0,0.0,0.0,0.0,0.0,0.0,0.0,0.0,0.0,0.0,0.0,0.0,0.0,0.0,0.0,0.0,0.0,0.0,0.0,5.0778,0.0,0.0,0.0,0.0,0.0,0.0,0.0,0.0,0.0,5.5859,5.8177,6.0231,6.1116,6.225,6.2787,6.2274,0.0,0.0,0.0,0.0,0.0,0.0,0.0,6.2154,6.2215,6.1191,6.0381,6.0807,6.0843,6.034,5.8902,0.0,0.0,5.7129,5.7176,5.7483,5.7657,5.7307,5.694,5.6759,5.6865,5.6919,0.0,0.0,0.0,0.0,0.0,0.0,0.0,0.0,0.0,4.2489,4.1667,0.0,0.0,0.0,0.0,0.0,0.0,0.0,0.0,0.0,0.0,0.0,5.3911,5.4044,0.0,0.0,0.0,0.0,0.0,0.0,0.0,0.0,0.0,0.0,0.0,0.0,6.732,6.9824,7.445,7.6695,7.6393,7.8826,7.9919,7.94,8.0399,7.8839,7.446,0.0,0.0,0.0,0.0,0.0,0.0,0.0,0.0,0.0,0.0,0.0,0.0,0.0,0.0,0.0,0.0,0.0,0.0,0.0,0.0,0.0,0.0,0.0,0.0,0.0,4.7704,0.0,0.0,0.0,0.0,0.0,0.0,0.0,0.0,0.0,0.0,0.0,5.8116,5.9379,6.0859,6.1935,6.2261,6.2714,6.3179,0.0,0.0,0.0,0.0,0.0,0.0,0.0,0.0,0.0,0.0,0.0,0.0,0.0,0.0,5.6107,5.5479,5.5386,5.5433,5.5618,0.0,0.0,0.0,0.0,0.0,0.0,0.0,0.0,0.0,0.0,0.0,0.0,0.0,0.0,0.0,3.7441,0.0,0.0,3.7355,0.0,0.0,0.0,0.0,0.0,0.0,0.0,0.0,0.0,0.0,0.0,0.0,0.0,0.0,0.0,0.0,0.0,0.0,0.0,0.0,0.0,0.0,6.7038,6.8481,7.6108,7.9625,7.8504,8.0391,8.0633,7.9159,7.9605,7.7714,7.3233,0.0,0.0,0.0,0.0,0.0,0.0,0.0,0.0,0.0,0.0,0.0,0.0,0.0,0.0,0.0,0.0,0.0,0.0,0.0,0.0,0.0,0.0,0.0,0.0,0.0,0.0,4.692,4.8082,4.8307,0.0,0.0,0.0,0.0,0.0,0.0,0.0,0.0,0.0,0.0,5.9448,6.1347,6.2375,6.2323,6.2731,6.4294,6.3444,6.3238,6.506,6.5309,6.4613,0.0,0.0,0.0,0.0,0.0,0.0,0.0,0.0,0.0,0.0,0.0,0.0,0.0,0.0,0.0,0.0,0.0,0.0,0.0,0.0,0.0,0.0,0.0,0.0,0.0,0.0,0.0,0.0,0.0,0.0,0.0,0.0,0.0,0.0,0.0,0.0,0.0,0.0,0.0,0.0,0.0,0.0,0.0,0.0,0.0,0.0,0.0,0.0,0.0,0.0,0.0,0.0,0.0,0.0,6.5303,6.7888,7.3742,7.6786,7.6754,7.922,7.9808,7.8513,7.8494,7.5448,0.0,0.0,0.0,0.0,0.0,0.0,0.0,0.0,0.0,0.0,0.0,0.0,0.0,0.0,0.0,0.0,0.0,0.0,0.0,0.0,0.0,0.0,0.0,0.0,0.0,0.0,0.0,0.0,4.6201,4.67,4.7312,0.0,0.0,0.0,0.0,0.0,0.0,0.0,0.0,0.0,0.0,5.9089,6.0822,6.1251,6.1514,6.1816,6.218,6.258,6.2984,6.2618,6.1896,6.0821,0.0,0.0,0.0,0.0,0.0,0.0,0.0,0.0,0.0,0.0,0.0,0.0,0.0,0.0,0.0,0.0,0.0,0.0,0.0,0.0,0.0,0.0,0.0,0.0,0.0,0.0,0.0,0.0,0.0,0.0,0.0,0.0,0.0,0.0,0.0,0.0,0.0,0.0,0.0,0.0,0.0,0.0,0.0,0.0,0.0,0.0,0.0,0.0,0.0,0.0,0.0,0.0,0.0,6.4095,6.7701,7.1966,7.4674,7.561,7.6814,7.7313,7.6991,7.6435,7.354,0.0,0.0,0.0,0.0,0.0,0.0,0.0,0.0,0.0,0.0,0.0,0.0,0.0,0.0,0.0,0.0,0.0,0.0,0.0,0.0,0.0,0.0,0.0,0.0,0.0,0.0,0.0,0.0,4.3333,4.4563,4.5975,0.0,0.0,0.0,0.0,0.0,0.0,0.0,0.0,0.0,0.0,5.7513,5.9234,5.9679,0.0,0.0,6.0841,6.1148,6.173,6.1923,6.151,5.9943,5.8273,0.0,0.0,0.0,0.0,0.0,0.0,0.0,0.0,0.0,0.0,0.0,0.0,0.0,0.0,0.0,0.0,0.0,0.0,0.0,0.0,0.0,0.0,0.0,0.0,0.0,0.0,0.0,0.0,0.0,0.0,0.0,0.0,0.0,0.0,0.0,0.0,0.0,0.0,0.0,0.0,0.0,0.0,0.0,0.0,0.0,0.0,0.0,0.0,0.0,0.0,0.0,0.0,6.3083,6.7407,7.0724,7.3183,7.469,7.3802,7.3847,7.4877,7.3659,7.1645,0.0,0.0,0.0,0.0,0.0,0.0,0.0,0.0,0.0,0.0,0.0,0.0,0.0,0.0,0.0,0.0,0.0,0.0,0.0,0.0,0.0,0.0,0.0,0.0,0.0,0.0,0.0,0.0,0.0,0.0,0.0,0.0,0.0,0.0,0.0,0.0,0.0,0.0,0.0,0.0,0.0,5.6473,5.7736,5.7819,5.8472,0.0,0.0,5.9167,6.0779,6.2384,6.2437,5.9208,0.0,0.0,0.0,0.0,0.0,0.0,0.0,0.0,0.0,0.0,0.0,0.0,0.0,0.0,0.0,0.0,0.0,0.0,0.0,0.0,0.0,0.0,0.0,0.0,0.0,0.0,0.0,0.0,0.0,0.0,0.0,0.0,0.0,0.0,0.0,0.0,0.0,0.0,0.0,0.0,0.0,0.0,0.0,0.0,0.0,0.0,0.0,0.0,0.0,0.0,0.0,0.0,0.0,0.0,6.3603,6.8598,7.1572,7.2381,7.3149,7.3718,7.3955,7.1562,0.0,0.0,0.0,0.0,0.0,0.0,0.0,0.0,0.0,0.0,0.0,0.0,0.0,0.0,0.0,0.0,0.0,0.0,0.0,0.0,0.0,0.0,0.0,0.0,0.0,0.0,0.0,3.1557,0.0,0.0,0.0,0.0,0.0,0.0,0.0,0.0,0.0,0.0,0.0,0.0,0.0,0.0,5.5336,5.6953,5.7022,5.7251,0.0,0.0,5.7643,5.7154,5.8297,5.8274,0.0,0.0,0.0,0.0,0.0,0.0,0.0,0.0,0.0,0.0,0.0,0.0,0.0,0.0,0.0,0.0,0.0,0.0,0.0,0.0,0.0,0.0,0.0,0.0,0.0,0.0,0.0,0.0,0.0,0.0,0.0,0.0,0.0,0.0,0.0,0.0,0.0,0.0,0.0,0.0,0.0,0.0,0.0,0.0,0.0,0.0,0.0,0.0,0.0,0.0,0.0,0.0,0.0,0.0,5.7656,6.2232,6.5517,6.7933,6.9518,6.977,7.0186,7.08,6.8564,6.5697,0.0,0.0,0.0,0.0,0.0,0.0,0.0,0.0,0.0,0.0,0.0,0.0,0.0,0.0,0.0,0.0,0.0,0.0,0.0,0.0,0.0,0.0,0.0,0.0,0.0,0.0,0.0,0.0,0.0,0.0,0.0,0.0,0.0,0.0,0.0,0.0,0.0,0.0,0.0,0.0,0.0,0.0,5.5114,5.531,0.0,0.0,0.0,5.6313,5.4866,0.0,0.0,0.0,0.0,0.0,0.0,0.0,0.0,0.0,0.0,0.0,0.0,0.0,0.0,0.0,0.0,0.0,0.0,0.0,0.0,0.0,0.0,0.0,0.0,0.0,0.0,0.0,0.0,0.0,0.0,0.0,0.0,0.0,0.0,0.0,0.0,0.0,0.0,0.0,0.0,0.0,0.0,0.0,0.0,0.0,0.0,0.0,0.0,0.0,0.0,0.0,0.0,0.0,0.0,0.0,0.0,0.0,6.1404,6.1973,6.3588,6.6307,6.5452,6.5561,6.6755,6.543,6.3441,0.0,0.0,0.0,0.0,0.0,0.0,0.0,0.0,0.0,0.0,0.0,0.0,0.0,0.0,0.0,0.0,0.0,0.0,0.0,0.0,0.0,0.0,0.0,0.0,0.0,0.0,0.0,0.0,0.0,0.0,0.0,0.0,0.0,0.0,0.0,0.0,0.0,0.0,0.0,0.0,0.0,5.1431,5.2847,5.302,5.2995,0.0,0.0,5.4871,5.3266,5.4461,0.0,0.0,0.0,0.0,0.0,0.0,0.0,0.0,0.0,0.0,0.0,0.0,0.0,0.0,0.0,0.0,0.0,0.0,0.0,0.0,0.0,0.0,0.0,0.0,0.0,0.0,0.0,0.0,0.0,0.0,0.0,0.0,0.0,0.0,0.0,0.0,0.0,0.0,0.0,0.0,0.0,0.0,0.0,0.0,0.0,0.0,0.0,0.0,0.0,0.0,0.0,0.0,0.0,0.0,0.0,0.0,5.7144,5.954,6.1644,6.3585,6.4486,6.5091,6.5331,6.3937,6.1997,0.0,0.0,0.0,0.0,0.0,0.0,0.0,0.0,0.0,0.0,0.0,0.0,0.0,0.0,0.0,0.0,0.0,0.0,0.0,0.0,0.0,0.0,0.0,0.0,0.0,0.0,0.0,0.0,0.0,0.0,0.0,0.0,0.0,0.0,0.0,0.0,0.0,0.0,0.0,0.0,0.0,5.0074,5.1487,5.1014,0.0,0.0,0.0,0.0,5.0936,5.2086,0.0,0.0,0.0,0.0,0.0,0.0,0.0,0.0,0.0,0.0,0.0,0.0,0.0,0.0,0.0,0.0,0.0,0.0,0.0,0.0,0.0,0.0,0.0,0.0,0.0,0.0,0.0,0.0,0.0,0.0,0.0,0.0,0.0,0.0,0.0,0.0,0.0,0.0,0.0,0.0,0.0,0.0,0.0,0.0,0.0,0.0,0.0,0.0,0.0,0.0,0.0,0.0,0.0,0.0,0.0,0.0,5.5998,5.8316,6.0192,6.1803,6.2539,6.2905,6.2947,6.2177,6.0555,0.0,0.0,0.0,0.0,0.0,0.0,0.0,0.0,0.0,0.0,0.0,0.0,0.0,0.0,0.0,0.0,0.0,0.0,0.0,0.0,0.0,0.0,0.0,0.0,0.0,0.0,0.0,0.0,0.0,0.0,0.0,0.0,0.0,0.0,0.0,0.0,0.0,0.0,0.0,0.0,4.6884,4.7958,4.9435,0.0,0.0,0.0,0.0,0.0,0.0,5.0171,4.9791,0.0,0.0,0.0,0.0,0.0,0.0,0.0,0.0,0.0,0.0,0.0,0.0,0.0,0.0,0.0,0.0,0.0,0.0,0.0,0.0,0.0,0.0,0.0,0.0,0.0,0.0,0.0,0.0,0.0,0.0,0.0,0.0,0.0,0.0,0.0,0.0,0.0,0.0,0.0,0.0,0.0,0.0,0.0,0.0,0.0,0.0,0.0,0.0,0.0,0.0,0.0,0.0,0.0,0.0,0.0,5.6292,5.7548,5.9045,6.081,6.0739,6.0739,6.0833,6.0739,5.9429,5.6796,0.0,0.0,0.0,0.0,0.0,0.0,0.0,0.0,0.0,0.0,0.0,0.0,0.0,0.0,0.0,0.0,0.0,0.0,0.0,0.0,0.0,0.0,0.0,0.0,0.0,0.0,0.0,0.0,0.0,0.0,0.0,0.0,0.0,0.0,0.0,0.0,0.0,0.0,0.0,4.51,4.5748,0.0,0.0,0.0,0.0,0.0,0.0,0.0,0.0,4.7628,0.0,0.0,0.0,0.0,0.0,0.0,0.0,0.0,0.0,0.0,0.0,0.0,0.0,0.0,0.0,0.0,0.0,0.0,0.0,0.0,0.0,0.0,0.0,0.0,0.0,0.0,0.0,0.0,0.0,0.0,0.0,0.0,0.0,0.0,0.0,0.0,0.0,0.0,0.0,0.0,0.0,0.0,0.0,0.0,0.0,0.0,0.0,0.0,0.0,0.0,0.0,0.0,0.0,0.0,0.0,0.0,5.6555,5.8051,6.0701,6.0796,6.0796,6.0876,6.0805,5.9506,5.6837,0.0,0.0,0.0,0.0,0.0,0.0,0.0,0.0,0.0,0.0,0.0,0.0,0.0,0.0,0.0,0.0,0.0,0.0,0.0,0.0,0.0,0.0,0.0,0.0,0.0,0.0,0.0,0.0,0.0,0.0,0.0,0.0,0.0,0.0,0.0,0.0,0.0,0.0,4.3615,4.3772,0.0,0.0,0.0,0.0,0.0,0.0,0.0,0.0,4.6598,0.0,0.0,0.0,0.0,0.0,0.0,0.0,0.0,0.0,0.0,0.0,0.0,0.0,0.0,0.0,0.0,0.0,0.0,0.0,0.0,0.0,0.0,0.0,0.0,0.0,0.0,0.0,0.0,0.0,0.0,0.0,0.0,0.0,0.0,0.0,0.0,0.0,0.0,0.0,0.0,0.0,0.0,0.0,0.0,0.0,0.0,0.0,0.0,0.0,0.0,0.0,0.0,0.0,0.0,0.0,0.0,0.0,0.0,5.8706,6.094,6.104,6.1413,6.2043,6.0038,5.7895,0.0,0.0,0.0,0.0,0.0,0.0,0.0,0.0,0.0,0.0,0.0,0.0,0.0,0.0,0.0,0.0,0.0,0.0,0.0,0.0,0.0,0.0,0.0,0.0,0.0,0.0,0.0,0.0,0.0,0.0,0.0,0.0,0.0,0.0,0.0,0.0,0.0,0.0,0.0,0.0,0.0,0.0,0.0,0.0,0.0,0.0,0.0,0.0,0.0,0.0,0.0,0.0,0.0,0.0,0.0,0.0,0.0,0.0,0.0,0.0,0.0,0.0,0.0,0.0,0.0,0.0,0.0,0.0,0.0,0.0,0.0,0.0,0.0,0.0,0.0,0.0,0.0,0.0,0.0,0.0,0.0,0.0,0.0,0.0,0.0,0.0,0.0,0.0,0.0,0.0,0.0,0.0,0.0,0.0,0.0,0.0,0.0,0.0,0.0,0.0,0.0,0.0,0.0,0.0,0.0,0.0,0.0,0.0,5.8752,6.0718,6.0827,6.1524,6.2905,5.861,5.5527,0.0,0.0,0.0,0.0,0.0,0.0,0.0,0.0,0.0,0.0,0.0,0.0,0.0,0.0,0.0,0.0,0.0,0.0,0.0,0.0,0.0,0.0,0.0,0.0,0.0,0.0,0.0,0.0,0.0,0.0,0.0,0.0,0.0,0.0,0.0,0.0,0.0,0.0,0.0,0.0,0.0,0.0,0.0,0.0,0.0,0.0,0.0,0.0,4.5076,0.0,0.0,0.0,0.0,0.0,0.0,0.0,0.0,0.0,0.0,0.0,0.0,0.0,0.0,0.0,0.0,0.0,0.0,0.0,0.0,0.0,0.0,0.0,0.0,0.0,0.0,0.0,0.0,0.0,0.0,0.0,0.0,0.0,0.0,0.0,0.0,0.0,0.0,0.0,0.0,0.0,0.0,0.0,0.0,0.0,0.0,0.0,0.0,0.0,0.0,0.0,0.0,0.0,0.0,0.0,0.0,0.0,0.0,0.0,5.6364,5.9386,5.9494,6.0161,6.1403,5.6344,5.264,0.0,0.0,0.0,0.0,0.0,0.0,0.0,0.0,0.0,0.0,0.0,0.0,0.0,0.0,0.0,0.0,0.0,0.0,0.0,0.0,0.0,0.0,0.0,0.0,0.0,0.0,0.0,0.0,0.0,0.0,0.0,0.0,0.0,0.0,0.0,0.0,0.0,0.0,0.0,0.0,0.0,0.0,0.0,0.0,0.0,0.0,0.0,0.0,0.0,0.0,0.0,0.0,0.0,0.0,0.0,0.0,0.0,0.0,0.0,0.0,0.0,0.0,0.0,0.0,0.0,0.0,0.0,0.0,0.0,0.0,0.0,0.0,0.0,0.0,0.0,0.0,0.0,0.0,0.0,0.0,0.0,0.0,0.0,0.0,0.0,0.0,0.0,0.0,0.0,0.0,0.0,0.0,0.0,0.0,0.0,0.0,0.0,0.0,0.0,0.0,0.0,0.0,0.0,0.0,0.0,0.0,0.0,0.0,5.483,5.7978,5.8123,5.8101,5.8051,5.318,5.0221,0.0,0.0,0.0,0.0,0.0,0.0,0.0,0.0,0.0,0.0,0.0,0.0,0.0,0.0,0.0,0.0,0.0,0.0,0.0,0.0,0.0,0.0,0.0,0.0,0.0,0.0,0.0,0.0,0.0,0.0,0.0,0.0,0.0,0.0,0.0,0.0,0.0,0.0,0.0,0.0,0.0,0.0,0.0,0.0,0.0,0.0,0.0,0.0,0.0,0.0,0.0,0.0,0.0,0.0,0.0,0.0,0.0,0.0,0.0,0.0,0.0,0.0,0.0,0.0,0.0,0.0,0.0,0.0,0.0,0.0,0.0,0.0,0.0,0.0,0.0,0.0,0.0,0.0,0.0,0.0,0.0,0.0,0.0,0.0,0.0,0.0,0.0,0.0,0.0,0.0,0.0,0.0,0.0,0.0,0.0,0.0,0.0,0.0,0.0,0.0,0.0,0.0,0.0,0.0,0.0,0.0,0.0,0.0,0.0,5.5952,5.5567,5.4661,5.3346,5.0075,4.8103,0.0,0.0,0.0,0.0,0.0,0.0,0.0,0.0,0.0,0.0,0.0,0.0,0.0,0.0,0.0,0.0,0.0,0.0,0.0,0.0,0.0,0.0,0.0,0.0,0.0,0.0,0.0,0.0,0.0,0.0,0.0,0.0,0.0,0.0,0.0,0.0,0.0,0.0,0.0,0.0,0.0,0.0,0.0,0.0,0.0,0.0,0.0,0.0,0.0,0.0,0.0,0.0,0.0,0.0,0.0,0.0,0.0,0.0,0.0,0.0,0.0,0.0,0.0,0.0,0.0,0.0,0.0,0.0,0.0,0.0,0.0,0.0,0.0,0.0,0.0,0.0,0.0,0.0,0.0,0.0,0.0,0.0,0.0,0.0,0.0,0.0,0.0,0.0,0.0,0.0,0.0,0.0,0.0,0.0,0.0,0.0,0.0,0.0,0.0,0.0,0.0,0.0,0.0,0.0,0.0,0.0,0.0,0.0,0.0,5.3443,5.1063,4.917,4.7683,4.7215,4.6349,0.0,0.0,0.0,0.0,0.0,0.0,0.0,0.0,0.0,0.0,0.0,0.0,0.0,0.0,0.0,0.0,0.0,0.0,0.0,0.0,0.0,0.0,0.0,0.0,0.0,0.0,0.0,0.0,0.0,0.0,0.0,0.0,0.0,0.0,0.0,0.0,0.0,0.0,0.0,0.0,0.0,0.0,0.0,0.0,0.0,0.0,0.0,0.0,0.0,0.0,0.0,0.0,0.0,0.0,0.0,0.0,0.0,0.0,0.0,0.0,0.0,0.0,0.0,0.0,0.0,0.0,0.0,0.0,0.0,0.0,0.0,0.0,0.0,0.0,0.0,0.0,0.0,0.0,0.0,0.0,0.0,0.0,0.0,0.0,0.0,0.0,0.0,0.0,0.0,0.0,0.0,0.0,0.0,0.0,0.0,0.0,0.0,0.0,0.0,0.0,0.0,0.0,0.0,0.0,0.0,0.0,0.0,0.0,0.0,5.0939,4.9182,4.7962,4.7532,4.6292,4.5371,4.4804,0.0,0.0,0.0,0.0,0.0,0.0,0.0,0.0,0.0,0.0,0.0,0.0,0.0,0.0,0.0,0.0,0.0,0.0,0.0,0.0,0.0,0.0,0.0,0.0,0.0,0.0,0.0,0.0,0.0,0.0,0.0,0.0,0.0,0.0,0.0,0.0,0.0,0.0,0.0,0.0,0.0,0.0,0.0,0.0,0.0,0.0,0.0,0.0,0.0,0.0,0.0,0.0,0.0,0.0,0.0,0.0,0.0,0.0,0.0,0.0,0.0,0.0,0.0,0.0,0.0,0.0,0.0,0.0,0.0,0.0,0.0,0.0,0.0,0.0,0.0,0.0,0.0,0.0,0.0,0.0,0.0,0.0,0.0,0.0,0.0,0.0,0.0,0.0,0.0,0.0,0.0,0.0,0.0,0.0,0.0,0.0,0.0,0.0,0.0,0.0,0.0,0.0,0.0,0.0,0.0,0.0,0.0,0.0,4.9827,4.8362,4.7499,4.7135,4.5773,4.4796,0.0,0.0,0.0,0.0,0.0,0.0,0.0,0.0,0.0,0.0,0.0,0.0,0.0,0.0,0.0,0.0,0.0,0.0,0.0,0.0,0.0,0.0,0.0,0.0,0.0,0.0,0.0,0.0,0.0,0.0,0.0,0.0,0.0,0.0,0.0,0.0,0.0,0.0,0.0,0.0,0.0,0.0,0.0,0.0,0.0,0.0,0.0,0.0,0.0,0.0,0.0,0.0,0.0,0.0,0.0,0.0,0.0,0.0,0.0,0.0,0.0,0.0,0.0,0.0,0.0,0.0,0.0,0.0,0.0,0.0,0.0,0.0,0.0,0.0,0.0,0.0,0.0,0.0,0.0,0.0,0.0,0.0,0.0,0.0,0.0,0.0,0.0,0.0,0.0,0.0,0.0,0.0,0.0,0.0,0.0,0.0,0.0,0.0,0.0,0.0,0.0,0.0,0.0,0.0,0.0,0.0,0.0,0.0,5.2393,5.0062,4.8739,4.7343,4.5789,4.5414,4.4576,0.0,0.0,0.0,0.0,0.0,0.0,0.0,0.0,0.0,0.0,0.0,0.0,0.0,0.0,0.0,0.0,0.0,0.0,0.0,0.0,0.0,0.0,0.0,0.0,0.0,0.0,0.0,0.0,0.0,0.0,0.0,0.0,0.0,0.0,0.0,0.0,0.0,0.0,0.0,0.0,0.0,0.0,0.0,0.0,0.0,0.0,0.0,0.0,0.0,0.0,0.0,0.0,0.0,0.0,0.0,0.0,0.0,0.0,0.0,0.0,0.0,0.0,0.0,0.0,0.0,0.0,0.0,0.0,0.0,0.0,0.0,0.0,0.0,0.0,0.0,0.0,0.0,0.0,0.0,0.0,0.0,0.0,0.0,0.0,0.0,0.0,0.0,0.0,0.0,0.0,0.0,0.0,0.0,0.0,0.0,0.0,0.0,0.0,0.0,0.0,0.0,0.0,0.0,0.0,0.0,0.0,0.0,0.0,0.0,5.128,0.0,4.8233,0.0,4.438,4.2947,0.0,0.0,0.0,0.0,0.0,0.0,0.0,0.0,0.0,0.0,0.0,0.0,0.0,0.0,0.0,0.0,0.0,0.0,0.0,0.0,0.0,0.0,0.0,0.0,0.0,0.0,0.0,0.0,0.0,0.0,0.0,0.0,0.0,0.0,0.0,0.0,0.0,0.0,0.0,0.0,0.0,0.0,0.0,0.0,0.0,0.0,0.0,0.0,0.0,0.0,0.0,0.0,0.0,0.0,0.0,0.0,0.0,0.0,0.0,0.0,0.0,0.0,0.0,0.0,0.0,0.0,0.0,0.0,0.0,0.0,0.0,0.0,0.0,0.0,0.0,0.0,0.0,0.0,0.0,0.0,0.0,0.0,0.0,0.0,0.0,0.0,0.0,0.0,0.0,0.0,0.0,0.0,0.0,0.0,0.0,0.0,0.0,0.0,0.0,0.0,0.0,0.0,0.0,0.0,0.0,0.0,0.0,0.0,0.0,5.194,5.1394,4.9362,4.5881,4.3986,4.2012,0.0,0.0,0.0,0.0,0.0,0.0,0.0,0.0,0.0,0.0,0.0,0.0,0.0,0.0,0.0,0.0,0.0,0.0,0.0,0.0,0.0,0.0,0.0,0.0,0.0,0.0,0.0,0.0,0.0,0.0,0.0,0.0,0.0,0.0,0.0,0.0,0.0,0.0,0.0,0.0,0.0,0.0,0.0,0.0,0.0,0.0,0.0,0.0,0.0,0.0,0.0,0.0,0.0,0.0,0.0,0.0,0.0,0.0,0.0,0.0,0.0,0.0,0.0,0.0,0.0,0.0,0.0,0.0,0.0,0.0,0.0,0.0,0.0,0.0,0.0,0.0,0.0,0.0,0.0,0.0,0.0,0.0,0.0,0.0,0.0,0.0,0.0,0.0,0.0,0.0,0.0,0.0,0.0,0.0,0.0,0.0,0.0,0.0,0.0,0.0,0.0,0.0,0.0,0.0,0.0,0.0,0.0,0.0,0.0,5.197,5.2539,5.0682,4.6321,4.4112,4.1604,0.0,0.0,0.0,0.0,0.0,0.0,0.0,0.0,0.0,0.0,0.0,0.0,0.0,0.0,0.0,0.0,0.0,0.0,0.0,0.0,0.0,0.0,0.0,0.0,0.0,0.0,0.0,0.0,0.0,0.0,0.0,0.0,0.0,0.0,0.0,0.0,0.0,0.0,0.0,0.0,0.0,0.0,0.0,0.0,0.0,0.0,0.0,0.0,0.0,0.0,0.0,0.0,0.0,0.0,0.0,0.0,0.0,0.0,0.0,0.0,0.0,0.0,0.0,0.0,0.0,0.0,0.0,0.0,0.0,0.0,0.0,0.0,0.0,0.0,0.0,0.0,0.0,0.0,0.0,0.0,0.0,0.0,0.0,0.0,0.0,0.0,0.0,0.0,0.0,0.0,0.0,0.0,0.0,0.0,0.0,0.0,0.0,0.0,0.0,0.0,0.0,0.0,0.0,0.0,0.0,0.0,0.0,0.0,0.0,0.0,5.3213,5.2886,4.9431,4.4414,4.0242,3.7042,0.0,0.0,0.0,0.0,0.0,0.0,0.0,0.0,0.0,0.0,0.0,0.0,0.0,0.0,0.0,0.0,0.0,0.0,0.0,0.0,0.0,0.0,0.0,0.0,0.0,0.0,0.0,0.0,0.0,0.0,0.0,0.0,0.0,0.0,0.0,0.0,0.0,0.0,0.0,0.0,0.0,0.0,0.0,0.0,0.0,0.0,0.0,0.0,0.0,0.0,0.0,0.0,0.0,0.0,0.0,0.0,0.0,0.0,0.0,0.0,0.0,0.0,0.0,0.0,0.0,0.0,0.0,0.0,0.0,0.0,0.0,0.0,0.0,0.0,0.0,0.0,0.0,0.0,0.0,0.0,0.0,0.0,0.0,0.0,0.0,0.0,0.0,0.0,0.0,0.0,0.0,0.0,0.0,0.0,0.0,0.0,0.0,0.0,0.0,0.0,0.0,0.0,0.0,0.0,0.0,0.0,0.0,0.0,0.0,0.0,5.2714,5.1023,4.5515,4.07,0.0,0.0,0.0,0.0,0.0,0.0,0.0,0.0,0.0,0.0,0.0,0.0,0.0,0.0,0.0,0.0,0.0,0.0,0.0,0.0,0.0,0.0,0.0,0.0,0.0,0.0,0.0,0.0,0.0,0.0,0.0,0.0,0.0,0.0,0.0,0.0,0.0,0.0,0.0,0.0,0.0,0.0,0.0,0.0,0.0,0.0,0.0,0.0,0.0,0.0,0.0,0.0,0.0,0.0,0.0,0.0,0.0,0.0,0.0,0.0,0.0,0.0,0.0,0.0,0.0,0.0,0.0,0.0,0.0,0.0,0.0,0.0,0.0,0.0,0.0,0.0,0.0,0.0,0.0,0.0,0.0,0.0,0.0,0.0,0.0,0.0,0.0,0.0,0.0,0.0,0.0,0.0,0.0,0.0,0.0,0.0,0.0,0.0,0.0,0.0,0.0,0.0,0.0,0.0,0.0,0.0,0.0,0.0,0.0,0.0,0.0,5.1185,5.108,4.6822,0.0,3.7968,0.0,0.0,0.0,0.0,0.0,0.0,0.0,0.0,0.0,0.0,0.0,0.0,0.0,0.0,0.0,0.0,0.0,0.0,0.0,0.0,0.0,0.0,0.0,0.0,0.0,0.0,0.0,0.0,0.0,0.0,0.0,0.0,0.0,0.0,0.0,0.0,0.0,0.0,0.0,0.0,0.0,0.0,0.0,0.0,0.0,0.0,0.0,0.0,0.0,0.0,0.0,0.0,0.0,0.0,0.0,0.0,0.0,0.0,0.0,0.0,0.0,0.0,0.0,0.0,0.0,0.0,0.0,0.0,0.0,0.0,0.0,0.0,0.0,0.0,0.0,0.0,0.0,0.0,0.0,0.0,0.0,0.0,0.0,0.0,0.0,0.0,0.0,0.0,0.0,0.0,0.0,0.0,0.0,0.0,0.0,0.0,0.0,0.0,0.0,0.0,0.0,0.0,0.0,0.0,0.0,0.0,0.0,0.0,0.0,0.0,0.0,0.0,4.6546,4.3672,4.1246,0.0,0.0,0.0,0.0,0.0,0.0,0.0,0.0,0.0,0.0,0.0,0.0,0.0,0.0,0.0,0.0,0.0,0.0,0.0,0.0,0.0,0.0,0.0,0.0,0.0,0.0,0.0,0.0,0.0,0.0,0.0,0.0,0.0,0.0,0.0,0.0,0.0,0.0,0.0,0.0,0.0,0.0,0.0,0.0,0.0,0.0,0.0,0.0,0.0,0.0,0.0,0.0,0.0,0.0,0.0,0.0,0.0,0.0,0.0,0.0,0.0,0.0,0.0,0.0,0.0,0.0,0.0,0.0,0.0,0.0,0.0,0.0,0.0,0.0,0.0,0.0,0.0,0.0,0.0,0.0,0.0,0.0,0.0,0.0,0.0,0.0,0.0,0.0,0.0,0.0,0.0,0.0,0.0,0.0,0.0,0.0,0.0,0.0,0.0,0.0,0.0,0.0,0.0,0.0,0.0,0.0,0.0,0.0,0.0,0.0,4.9602,4.9482,4.5871,4.35,4.2514,0.0,0.0,0.0,0.0,0.0,0.0,0.0,0.0,0.0,0.0,0.0,0.0,0.0,0.0,0.0,0.0,0.0,0.0,0.0,0.0,0.0,0.0,0.0,0.0,0.0,0.0,0.0,0.0,0.0,0.0,0.0,0.0,0.0,0.0,0.0,0.0,0.0,0.0,0.0,0.0,0.0,0.0,0.0,0.0,0.0,0.0,0.0,0.0,0.0,0.0,0.0,0.0,0.0,0.0,0.0,0.0,0.0,0.0,0.0,0.0,0.0,0.0,0.0,0.0,0.0,0.0,0.0,0.0,0.0,0.0,0.0,0.0,0.0,0.0,0.0,0.0,0.0,0.0,0.0,0.0,0.0,0.0,0.0,0.0,0.0,0.0,0.0,0.0,0.0,0.0,0.0,0.0,0.0,0.0,0.0,0.0,0.0,0.0,0.0,0.0,0.0,0.0,0.0,0.0,0.0,0.0,0.0,0.0,0.0,0.0,0.0,0.0,0.0,0.0,4.2715,0.0,0.0,0.0,0.0,0.0,0.0,0.0,0.0,0.0,0.0,0.0,0.0,0.0,0.0,0.0,0.0,0.0,0.0,0.0,0.0,0.0,0.0,0.0,0.0,0.0,0.0,0.0,0.0,0.0,0.0,0.0,0.0,0.0,0.0,0.0,0.0,0.0,0.0,0.0,0.0,0.0,0.0,0.0,0.0,0.0,0.0,0.0,0.0,0.0,0.0,0.0,0.0,0.0,0.0,0.0,0.0,0.0,0.0,0.0,0.0,0.0,0.0,0.0,0.0,0.0,0.0,0.0,0.0,0.0,0.0,0.0,0.0,0.0,0.0,0.0,0.0,0.0,0.0,0.0,0.0,0.0,0.0,0.0,0.0,0.0,0.0,0.0,0.0,0.0,0.0,0.0,0.0,0.0,0.0,0.0,0.0,0.0,0.0,0.0,0.0,0.0,0.0,0.0,0.0,0.0,0.0,0.0,0.0,0.0,0.0,0.0,0.0,0.0,0.0,0.0,0.0,0.0,0.0,0.0,0.0,0.0,0.0,0.0,0.0,0.0,0.0,0.0,0.0,0.0,0.0,0.0,0.0,0.0,0.0,0.0,0.0,0.0,0.0,0.0,0.0,0.0,0.0,0.0,0.0,0.0,0.0,0.0,0.0,0.0,0.0,0.0,0.0,0.0,0.0,0.0,0.0,0.0,0.0,0.0,0.0,0.0,0.0,0.0,0.0,0.0,0.0,0.0,0.0,0.0,0.0,0.0,0.0,0.0,0.0,0.0,0.0,0.0,0.0,0.0,0.0,0.0,0.0,0.0,0.0,0.0,0.0,0.0,0.0,0.0,0.0,0.0,0.0,0.0,0.0,0.0,0.0,0.0,0.0,0.0,0.0,0.0,0.0,0.0,0.0,0.0,0.0,0.0,0.0,0.0,0.0,0.0,0.0,0.0,0.0,0.0,0.0,0.0,0.0,0.0,0.0,0.0,0.0,0.0,0.0,0.0,0.0,0.0,0.0,0.0,0.0,0.0,0.0,0.0,0.0,0.0,0.0,0.0,0.0,0.0,0.0,0.0,0.0,0.0,0.0,0.0,0.0,0.0,0.0,0.0,0.0,0.0,0.0,0.0,0.0,0.0,0.0,0.0,0.0,0.0,0.0,0.0,0.0,0.0,0.0,0.0,0.0,0.0,0.0,0.0,0.0,0.0,0.0,0.0,0.0,0.0,0.0,0.0,0.0,0.0,0.0,0.0,0.0,0.0,0.0,0.0,0.0,0.0,0.0,0.0,0.0,0.0,0.0,0.0,0.0,0.0,0.0,0.0,0.0,0.0,0.0,0.0,0.0,0.0,0.0,0.0,0.0,0.0,0.0,0.0,0.0,0.0,0.0,0.0,0.0,0.0,0.0,0.0,0.0,0.0,0.0,0.0,0.0,0.0,0.0,0.0,0.0,0.0,0.0,0.0,0.0,0.0,0.0,0.0,0.0,0.0,0.0,0.0,0.0,0.0,0.0,0.0,0.0,0.0,0.0,0.0,0.0,0.0,0.0,0.0,0.0,0.0,0.0,0.0,0.0,0.0,0.0,0.0,0.0,0.0,0.0,0.0,0.0,0.0,0.0,0.0,0.0,0.0,0.0,0.0,0.0,0.0,0.0,0.0,0.0,0.0,0.0,0.0,0.0,0.0,0.0,0.0,0.0,0.0,0.0,0.0,0.0,0.0,0.0,0.0,0.0,0.0,0.0,0.0,0.0,0.0,0.0,0.0,0.0,0.0,0.0,0.0,0.0,0.0,0.0,0.0,0.0,0.0,0.0,0.0,0.0,0.0,0.0,0.0,0.0,0.0,0.0,0.0,0.0,0.0,0.0,0.0,0.0,0.0,0.0,0.0,0.0,0.0,0.0,0.0,0.0,0.0,0.0,0.0,0.0,0.0,0.0,0.0,0.0,0.0,0.0,0.0,0.0,0.0,0.0,0.0,0.0,0.0,0.0,0.0,0.0,0.0,0.0,0.0,0.0,0.0,0.0,0.0,0.0,0.0,0.0,0.0,0.0,0.0,0.0,0.0,0.0,0.0,0.0,0.0,0.0,0.0,0.0,0.0,0.0,0.0,0.0,0.0,0.0,0.0,0.0,0.0,0.0,0.0,0.0,0.0,0.0,0.0,0.0,0.0,0.0,0.0,0.0,0.0,0.0,0.0,0.0,0.0,0.0,0.0,0.0,0.0,0.0,0.0,0.0,0.0,0.0,0.0,0.0,0.0,0.0,0.0,0.0,0.0,0.0,0.0,0.0,0.0,0.0,0.0,0.0,0.0,0.0,0.0,0.0,0.0,0.0,0.0,0.0,0.0,0.0,0.0,0.0,0.0,0.0,0.0,0.0,0.0,0.0,0.0,0.0,0.0,0.0,0.0,0.0,0.0,0.0,0.0,0.0,0.0,0.0,0.0,0.0,0.0,0.0,0.0,0.0,0.0,0.0,0.0,0.0,0.0,0.0,0.0,0.0,0.0,0.0,0.0,0.0,0.0,0.0,0.0,0.0,0.0,0.0,0.0,0.0,0.0,0.0,0.0,0.0,0.0,0.0,0.0,0.0,0.0,0.0,0.0,0.0,0.0,0.0,0.0,0.0,0.0,0.0,0.0,0.0,0.0,0.0,0.0,0.0,0.0,0.0,0.0,0.0,0.0,0.0,0.0,0.0,0.0,0.0,0.0,0.0,0.0,0.0,0.0,0.0,0.0,0.0,0.0,0.0,0.0,0.0,0.0,0.0,0.0,0.0,0.0,0.0,0.0,0.0,0.0,0.0,0.0,0.0,0.0,0.0,0.0,0.0,0.0,0.0,0.0,0.0,0.0,0.0,0.0,0.0,0.0,0.0,0.0,0.0,0.0,0.0,0.0,0.0,0.0,0.0,0.0,0.0,0.0,0.0,0.0,0.0,0.0,0.0,0.0,0.0,0.0,0.0,0.0,0.0,0.0,0.0,0.0,0.0,0.0,0.0,0.0,0.0,0.0,0.0,0.0,0.0,0.0,0.0,0.0,0.0,0.0,0.0,0.0,0.0,0.0,0.0,0.0,0.0,0.0,0.0,0.0,0.0,0.0,0.0,0.0,0.0,0.0,0.0,0.0,0.0,0.0,0.0,0.0,0.0,0.0,0.0,0.0,0.0,0.0,0.0,0.0,0.0,0.0,0.0,0.0,0.0,0.0,0.0,0.0,0.0,0.0,0.0,0.0,0.0,0.0,0.0,0.0,0.0,0.0,0.0,0.0,0.0,0.0,0.0,0.0,0.0,0.0,0.0,0.0,0.0,0.0,0.0,0.0,0.0,0.0,0.0,0.0,0.0,0.0,0.0,0.0,0.0,0.0,0.0,0.0,0.0,0.0,0.0,0.0,0.0,0.0,0.0,0.0,0.0,0.0,0.0,0.0,0.0,0.0,0.0,0.0,0.0,0.0,0.0,0.0,0.0,0.0,0.0,0.0,0.0,0.0,0.0,0.0,0.0,0.0,0.0,0.0,0.0,0.0,0.0,0.0,0.0,0.0,0.0,0.0,0.0,0.0,0.0,0.0,0.0,0.0,0.0,0.0,0.0,0.0,0.0,0.0,0.0,0.0,0.0,0.0,0.0,0.0,0.0,0.0,0.0,0.0,0.0,0.0,0.0,0.0,0.0,0.0,0.0,0.0,0.0,0.0,0.0,0.0,0.0,0.0,0.0,0.0,0.0,0.0,0.0,0.0,0.0,0.0,0.0,0.0,0.0,0.0,0.0,0.0,0.0,0.0,0.0,0.0,0.0,0.0,0.0,0.0,0.0,0.0,0.0,0.0,0.0,0.0,0.0,0.0,0.0,0.0,0.0,0.0,0.0,0.0,0.0,0.0,0.0,0.0,0.0,0.0,0.0,0.0,0.0,0.0,0.0,0.0,0.0,0.0,0.0,0.0,0.0,0.0,0.0,0.0,0.0,0.0,0.0,0.0,0.0,0.0,0.0,0.0,0.0,0.0,0.0,0.0,0.0,0.0,0.0,0.0,0.0,0.0,0.0,0.0,0.0,0.0,0.0,0.0,0.0,0.0,0.0,0.0,0.0,0.0,0.0,0.0,0.0,0.0,0.0,0.0,0.0,0.0,0.0,0.0,0.0,0.0,0.0,0.0,0.0,0.0,0.0,0.0,0.0,0.0,0.0,0.0,0.0,0.0,0.0,0.0,0.0,0.0,0.0,0.0,0.0,0.0,0.0,0.0,0.0,0.0,0.0,0.0,0.0,0.0,0.0,0.0,0.0,0.0,0.0,0.0,0.0,0.0,0.0,0.0,0.0,0.0,0.0,0.0,0.0,0.0,0.0,0.0,0.0,0.0,0.0,0.0,0.0,0.0,0.0]}],[{"header":{"parameterUnit":"kt","parameterCategory":2,"dx":1,"dy":1,"la1":29.587661999999998,"la2":31.0,"lo1":-88.76705300000003,"lo2":-86.6583820000003,"nx":115,"ny":88,"refTime":"2022-10-27T00:00:00:Z","depth":0,"parameterNumber":2,"parameterNumberName":"V-component_of_WINDS"},"data":[10.2445,10.2445,10.2445,10.2445,10.2445,10.2445,10.2445,10.2445,10.2445,10.2445,10.2445,10.2445,10.2445,10.2445,10.2445,10.2445,10.2445,10.2445,10.2445,10.2423,10.2145,10.1873,10.1432,10.0794,10.0187,9.9825,9.9598,9.9552,9.9559,9.9513,9.9393,9.8745,9.8791,9.8329,9.7347,9.7473,9.7607,9.7999,9.7824,9.6205,9.3498,8.9799,8.5301,8.2712,8.0785,8.0455,8.0253,8.0253,8.0253,8.0253,8.0253,8.0253,8.0253,8.0253,8.0253,8.0176,8.0201,7.9668,7.9186,7.8424,7.7738,7.6392,7.5122,7.4738,7.4408,7.4027,7.3719,7.3719,7.3694,7.3694,7.3694,7.3694,7.3694,7.3694,7.3694,7.3694,7.3694,7.3694,7.3694,7.3694,7.3694,7.3694,7.3694,7.3694,7.3694,7.3694,7.3694,7.3694,7.3694,7.3694,7.3694,7.3694,7.3694,7.3694,7.3694,7.3694,7.3694,7.3694,7.3671,7.3515,7.3311,7.3039,7.2564,7.2065,7.1518,7.1176,7.097,7.0834,7.079,7.079,7.079,7.079,7.0816,7.1109,7.1672,10.2445,10.2445,10.2445,10.2445,10.2445,10.2445,10.2445,10.2445,10.2445,10.2445,10.2445,10.2445,10.2445,10.2445,10.2445,10.2445,10.2445,10.2445,10.2445,10.2423,10.2306,10.2013,10.1617,10.1203,10.0615,10.0165,9.9848,9.9712,9.9278,9.9112,9.8439,9.7082,9.6766,9.6752,9.6596,9.6699,9.6955,9.7483,9.6709,9.4789,9.1757,8.8461,8.4531,8.19,8.0378,8.0303,8.0253,8.0253,8.0253,8.0253,8.0253,8.0253,8.0253,8.0253,8.0253,8.0253,8.0253,8.0151,7.9846,7.916,7.8551,7.7611,7.6062,7.5221,7.4916,7.4459,7.3875,7.3719,7.3694,7.3694,7.3694,7.3694,7.3694,7.3694,7.3694,7.3694,7.3694,7.3694,7.3694,7.3694,7.3694,7.3694,7.3694,7.3694,7.3694,7.3694,7.3694,7.3694,7.3694,7.3694,7.3694,7.3694,7.3694,7.3694,7.3694,7.3694,7.3694,7.3694,7.3649,7.3403,7.3064,7.2542,7.2042,7.1586,7.1336,7.1062,7.088,7.088,7.0813,7.079,7.0811,7.088,7.0834,7.0889,7.1354,10.2445,10.2445,10.2445,10.2445,10.2445,10.2445,10.2445,10.2445,10.2445,10.2445,10.2445,10.2445,10.2445,10.2445,10.2445,10.2445,10.2445,10.2445,10.2445,10.2445,10.2328,10.2013,10.1807,10.1484,10.072,10.0503,10.0239,9.9318,9.8266,9.8081,9.7831,9.6747,9.6487,9.6483,9.6459,9.6364,9.6379,9.6118,9.5107,9.2459,8.876,8.5825,8.2588,8.1399,8.0278,8.0278,8.0253,8.0253,8.0253,8.0253,8.0253,8.0253,8.0253,8.0253,8.0253,8.0253,8.0253,8.0253,8.0126,7.9745,7.9262,7.8271,7.6925,7.5805,7.5501,7.497,7.4383,7.3719,7.3694,7.3694,7.3694,7.3694,7.3694,7.3694,7.3694,7.3694,7.3694,7.3694,7.3694,7.3694,7.3694,7.3694,7.3694,7.3694,7.3694,7.3694,7.3694,7.3694,7.3694,7.3694,7.3694,7.3694,7.3694,7.3694,7.3694,7.3694,7.3694,7.3694,7.3694,7.3359,7.2907,7.2225,7.1722,7.17,7.1541,7.113,7.1039,7.113,7.1086,7.0811,7.0857,7.0924,7.0857,7.0816,7.1011,10.2445,10.2445,10.2445,10.2445,10.2445,10.2445,10.2445,10.2445,10.2445,10.2445,10.2379,10.2095,10.1845,10.1757,10.1764,10.1735,10.1985,10.2117,10.2379,10.2423,10.1867,10.1395,10.1329,10.0354,9.9692,9.9585,9.91,9.8127,9.6973,9.645,9.6194,9.4902,9.4515,9.4248,9.4296,9.4321,9.4193,9.394,9.1842,8.837,8.5839,8.3124,8.1495,8.0633,8.0253,8.0253,8.0253,8.0253,8.0253,8.0253,8.0253,8.0253,8.0253,8.0253,8.0253,8.0253,8.0253,8.0253,8.0202,8.0101,7.9795,7.8932,7.7992,7.6872,7.5983,7.5478,7.4843,7.4078,7.3694,7.3694,7.3694,7.3694,7.3694,7.3694,7.3694,7.3694,7.3694,7.3694,7.3694,7.3694,7.3694,7.3694,7.3694,7.3694,7.3694,7.3694,7.3694,7.3694,7.3694,7.3694,7.3694,7.3694,7.3694,7.3694,7.3694,7.3694,7.3694,7.3694,7.3512,7.3176,7.2769,7.2158,7.1563,7.1677,7.17,7.1427,7.1244,7.1313,7.1153,7.088,7.081,7.0833,7.0788,7.079,7.079,10.2445,10.2445,10.2445,10.2445,10.2445,10.2445,10.2445,10.2445,10.2445,10.2423,10.2117,10.1084,10.0563,10.0428,10.048,10.048,10.1047,10.1417,10.1639,10.2358,10.1077,10.0338,9.9705,9.8624,9.7965,9.6525,9.5932,9.6454,9.5403,9.4653,9.3436,9.0751,9.113,9.1557,9.1676,9.1546,9.1396,9.0794,8.7756,8.5063,8.3133,8.2224,8.147,8.0481,8.0253,8.0253,8.0253,8.0253,8.0253,8.0253,8.0253,8.0253,8.0253,8.0253,8.0253,8.0253,8.0253,8.0253,8.0253,8.0253,8.01,7.9744,7.9035,7.7865,7.6824,7.6138,7.5173,7.4357,7.3773,7.3694,7.3694,7.3694,7.3694,7.3694,7.3694,7.3694,7.3694,7.3694,7.3694,7.3694,7.3694,7.3694,7.3694,7.3694,7.3694,7.3694,7.3694,7.3694,7.3694,7.3694,7.3694,7.3694,7.3694,7.3694,7.3694,7.3694,7.3694,7.356,7.3311,7.2994,7.2747,7.218,7.1472,7.1518,7.1609,7.145,7.1427,7.1336,7.1199,7.0947,7.0834,7.0811,7.0765,7.079,7.0767,10.2445,10.2445,10.2445,10.2445,10.2445,10.2445,10.2445,10.2445,10.2445,10.1897,10.1129,10.048,9.9744,9.9008,9.894,9.9357,10.0052,10.0174,10.0444,10.0466,9.9556,9.8946,9.8601,9.7854,9.6364,9.5932,9.5427,9.4629,9.4193,9.324,9.1951,9.0013,9.0169,9.022,8.9777,8.9124,8.8775,8.6773,8.4886,8.2937,8.19,8.1341,8.0886,8.0328,8.0253,8.0253,8.0253,8.0253,8.0253,8.0253,8.0253,8.0253,8.0253,8.0253,8.0253,8.0253,8.0253,8.0253,8.0253,8.0253,8.0253,7.9949,7.9162,7.8424,7.7636,7.6748,7.5681,7.4614,7.4103,7.3694,7.3694,7.3694,7.3694,7.3694,7.3694,7.3694,7.3694,7.3694,7.3694,7.3694,7.3694,7.3694,7.3694,7.3694,7.3694,7.3694,7.3694,7.3694,7.3694,7.3694,7.3694,7.3694,7.3694,7.3694,7.3694,7.3694,7.3694,7.3605,7.3311,7.3042,7.2769,7.2361,7.1997,7.1768,7.1563,7.1654,7.177,7.1588,7.1267,7.1109,7.0949,7.088,7.0834,7.0813,7.0791,10.2445,10.2445,10.2445,10.2445,10.2445,10.2445,10.2445,10.2358,10.1933,10.1358,10.0203,9.9455,9.8225,9.7457,9.7358,9.7988,9.8312,9.8497,9.8825,9.8595,9.8058,9.7072,9.6388,9.5845,9.466,9.3809,9.3292,9.2898,9.2102,9.014,8.8928,8.8776,8.7847,8.821,8.7844,8.7266,8.5427,8.3673,8.2503,8.1571,8.114,8.0735,8.0532,8.0328,8.0253,8.0253,8.0253,8.0253,8.0253,8.0253,8.0253,8.0253,8.0253,8.0253,8.0253,8.0253,8.0253,8.0253,8.0253,8.0253,8.0253,8.005,7.9617,7.9009,7.8322,7.7459,7.6367,7.5148,7.4281,7.3824,7.3694,7.3694,7.3694,7.3694,7.3694,7.3694,7.3694,7.3694,7.3694,7.3694,7.3694,7.3694,7.3694,7.3694,7.3694,7.3694,7.3694,7.3694,7.3694,7.3694,7.3694,7.3694,7.3694,7.3694,7.3694,7.3694,7.3694,7.3649,7.3381,7.3109,7.2837,7.2609,7.2451,7.2225,7.1906,7.1906,7.1974,7.1656,7.1221,7.1062,7.0949,7.0903,7.0857,7.0813,7.0767,10.2445,10.2445,10.2445,10.2445,10.2445,10.2445,10.2401,10.224,10.095,10.0278,10.0006,9.7199,9.6235,9.5973,9.5901,9.614,9.6378,9.7241,9.7569,9.74,9.6203,9.5094,9.4056,9.3056,9.1863,9.007,8.9532,9.0348,8.881,8.7648,8.654,8.5796,8.5438,8.5361,8.5003,8.4107,8.2807,8.2101,8.1166,8.081,8.0709,8.0354,8.0279,8.0253,8.0253,8.0253,8.0253,8.0253,8.0253,8.0253,8.0253,8.0253,8.0253,8.0253,8.0253,8.0253,8.0253,8.0253,8.0253,8.0253,8.0253,8.0228,8.0074,7.9567,7.8754,7.7713,7.6697,7.5605,7.4408,7.4002,7.3694,7.3694,7.3694,7.3694,7.3694,7.3694,7.3694,7.3694,7.3694,7.3694,7.3694,7.3694,7.3694,7.3694,7.3694,7.3694,7.3694,7.3694,7.3694,7.3694,7.3694,7.3694,7.3694,7.3694,7.3694,7.3694,7.3671,7.3671,7.3426,7.3291,7.2927,7.2677,7.2587,7.2474,7.2225,7.1906,7.1654,7.1381,7.113,7.0993,7.0834,7.0836,7.0836,7.079,7.079,10.2445,10.2445,10.2445,10.2445,10.2445,10.2445,10.1845,10.0839,9.9442,9.8202,9.7368,9.6425,9.5354,9.4535,9.4441,9.4632,9.5786,9.547,9.5133,9.5211,9.3965,9.2833,9.1861,9.0959,8.9815,8.9147,8.863,8.8188,8.7537,8.6709,8.5917,8.5078,8.4265,8.3604,8.274,8.2004,8.0962,8.0886,8.0709,8.0253,8.0253,8.0253,8.0253,8.0253,8.0253,8.0253,8.0253,8.0253,8.0253,8.0253,8.0253,8.0253,8.0253,8.0253,8.0253,8.0253,8.0253,8.0253,8.0253,8.0253,8.0253,8.0253,8.0253,8.0074,7.9567,7.8017,7.6976,7.5935,7.4589,7.4027,7.3697,7.3694,7.3694,7.3694,7.3694,7.3694,7.3694,7.3694,7.3694,7.3694,7.3694,7.3694,7.3694,7.3694,7.3694,7.3694,7.3694,7.3694,7.3694,7.3694,7.3694,7.3694,7.3694,7.3694,7.3694,7.3694,7.3671,7.3675,7.363,7.3585,7.3221,7.2792,7.2792,7.2724,7.2406,7.2042,7.1563,7.1153,7.097,7.0834,7.079,7.079,7.079,7.079,7.079,10.2445,10.2445,10.2445,10.2445,10.2445,10.2445,10.1646,10.0248,9.9146,9.7667,9.6068,9.5185,9.4368,9.3808,9.366,9.383,9.4288,9.3189,9.259,9.2727,9.1964,9.0707,8.9994,8.9635,8.9018,8.8293,8.798,8.7484,8.6906,8.5687,8.5256,8.4697,8.3452,8.2537,8.1471,8.0861,8.0253,8.0253,8.0253,8.0253,8.0253,8.0253,8.0253,8.0253,8.0253,8.0253,8.0253,8.0253,8.0253,8.0253,8.0253,8.0253,8.0253,8.0253,8.0253,8.0253,8.0253,8.0253,8.0253,8.0253,8.0253,8.0253,8.0253,8.0278,8.0125,7.8449,7.7509,7.6646,7.5272,7.4281,7.3748,7.3671,7.3694,7.3694,7.3694,7.3694,7.3694,7.3694,7.3694,7.3694,7.3694,7.3694,7.3694,7.3694,7.3694,7.3694,7.3694,7.3694,7.3694,7.3694,7.3694,7.3694,7.3694,7.3694,7.3694,7.3694,7.3671,7.363,7.3608,7.3608,7.3359,7.2949,7.2859,7.2792,7.2519,7.2223,7.1724,7.1244,7.0972,7.079,7.079,7.079,7.079,7.079,7.079,10.2379,10.2445,10.2445,10.2401,10.2248,10.2379,10.1425,9.9773,9.9562,9.8092,9.5522,9.4295,9.3562,9.3488,9.3241,9.2967,9.2542,9.2095,9.1416,9.0679,9.0274,8.9584,8.8915,8.8449,8.8085,8.7143,8.7064,8.7195,8.688,8.561,8.4341,8.363,8.2614,8.1495,8.043,8.0253,8.0253,8.0253,8.0253,8.0253,8.0253,8.0253,8.0253,8.0253,8.0253,8.0253,8.0253,8.0253,8.0253,8.0253,8.0253,8.0253,8.0253,8.0253,8.0253,8.0253,8.0253,8.0253,8.0253,8.0253,8.0253,8.0253,8.0253,8.0253,8.0049,7.916,7.8043,7.6951,7.578,7.4738,7.4078,7.3694,7.3694,7.3694,7.3694,7.3694,7.3694,7.3694,7.3694,7.3694,7.3694,7.3694,7.3694,7.3694,7.3694,7.3694,7.3694,7.3694,7.3694,7.3694,7.3694,7.3694,7.3694,7.3694,7.3694,7.3694,7.3649,7.356,7.347,7.3378,7.3176,7.3106,7.2994,7.2789,7.2564,7.2201,7.1793,7.136,7.104,7.0765,7.0765,7.079,7.079,7.079,7.079,10.1536,10.2423,10.2445,10.1867,10.0995,10.0928,9.9517,9.7434,9.7223,9.5973,9.4197,9.3783,9.3515,9.3269,9.282,9.2172,9.1694,9.1038,9.0122,8.9456,8.8966,8.8397,8.7772,8.7379,8.7353,8.7063,8.6905,8.6854,8.6753,8.6194,8.4925,8.3325,8.1827,8.0938,8.0279,8.0253,8.0253,8.0253,8.0253,8.0253,8.0253,8.0253,8.0253,8.0253,8.0253,8.0253,8.0253,8.0253,8.0253,8.0253,8.0253,8.0253,8.0253,8.0253,8.0253,8.0253,8.0253,8.0253,8.0253,8.0253,8.0253,8.0253,8.0253,8.0253,7.9974,7.9187,7.817,7.7103,7.5958,7.4815,7.3824,7.3694,7.3694,7.3694,7.3694,7.3694,7.3694,7.3694,7.3694,7.3694,7.3694,7.3694,7.3694,7.3694,7.3694,7.3694,7.3694,7.3694,7.3694,7.3694,7.3694,7.3694,7.3694,7.3694,7.3694,7.3694,7.3671,7.356,7.3448,7.3289,7.3266,7.3423,7.3378,7.2949,7.2542,7.2203,7.1838,7.145,7.113,7.0787,7.0765,7.079,7.079,7.079,7.079,10.0787,10.1558,10.0966,10.0196,9.9374,9.9403,9.8045,9.6016,9.5806,9.4944,9.3537,9.3491,9.3318,9.282,9.2172,9.1543,9.0607,8.9841,8.894,8.8292,8.7954,8.7536,8.7247,8.6958,8.6905,8.6905,8.688,8.6804,8.6348,8.5408,8.4569,8.363,8.2004,8.0962,8.0354,8.0253,8.0253,8.0253,8.0253,8.0253,8.0253,8.0253,8.0253,8.0253,8.0253,8.0253,8.0253,8.0253,8.0253,8.0253,8.0253,8.0253,8.0253,8.0253,8.0253,8.0253,8.0253,8.0253,8.0253,8.0253,8.0253,8.0253,8.0253,8.0253,8.0202,7.9669,7.8627,7.7306,7.6339,7.5224,7.4103,7.3694,7.3694,7.3694,7.3694,7.3694,7.3694,7.3694,7.3694,7.3694,7.3694,7.3694,7.3694,7.3694,7.3694,7.3694,7.3694,7.3694,7.3694,7.3694,7.3694,7.3694,7.3694,7.3694,7.3694,7.3694,7.3694,7.3582,7.3445,7.3266,7.3109,7.3333,7.3311,7.2949,7.2519,7.2203,7.1861,7.1516,7.1174,7.088,7.0765,7.079,7.079,7.079,7.079,10.0074,10.0045,9.875,9.8173,9.7825,9.7848,9.6983,9.5446,9.5542,9.4729,9.3562,9.3466,9.3019,9.232,9.1997,9.0962,8.9122,8.8811,8.8319,8.7615,8.7011,8.7143,8.6958,8.6931,8.6959,8.7142,8.6906,8.6477,8.5741,8.5156,8.3833,8.3224,8.1826,8.1139,8.0607,8.0253,8.0253,8.0253,8.0253,8.0253,8.0253,8.0253,8.0253,8.0253,8.0253,8.0253,8.0253,8.0253,8.0253,8.0253,8.0253,8.0253,8.0253,8.0253,8.0253,8.0253,8.0253,8.0253,8.0253,8.0253,8.0253,8.0253,8.0253,8.0253,8.0253,8.0228,7.9135,7.7281,7.6849,7.5757,7.4434,7.3694,7.3694,7.3694,7.3694,7.3694,7.3694,7.3694,7.3694,7.3694,7.3694,7.3694,7.3694,7.3694,7.3694,7.3694,7.3694,7.3694,7.3694,7.3694,7.3694,7.3694,7.3694,7.3694,7.3694,7.3694,7.3694,7.3605,7.3512,7.3311,7.3132,7.293,7.2997,7.2724,7.2657,7.2248,7.1861,7.1541,7.1197,7.0926,7.079,7.079,7.079,7.079,7.079,9.7574,9.8589,9.9397,9.8416,9.6397,9.6373,9.5494,9.4172,9.4148,9.3906,9.3565,9.3491,9.3392,9.2994,9.222,9.1518,9.0912,9.0224,8.9224,8.8526,8.811,8.7745,8.7378,8.7142,8.7458,8.8214,8.7431,8.7227,8.6591,8.5081,8.2792,8.1116,8.1191,8.0608,8.0328,8.0253,8.0253,8.0253,8.0253,8.0253,8.0253,8.0253,8.0253,8.0253,8.0253,8.0253,8.0253,8.0253,8.0253,8.0253,8.0253,8.0253,8.0253,8.0253,8.0253,8.0278,7.9947,7.9974,8.0076,7.9999,8.0228,8.0253,8.0253,8.01,8.0152,8.0202,7.9339,7.7179,7.7001,7.5831,7.4332,7.3671,7.3694,7.3694,7.3694,7.3694,7.3694,7.3694,7.3694,7.3694,7.3694,7.3694,7.3694,7.3694,7.3694,7.3694,7.3694,7.3694,7.3694,7.3694,7.3694,7.3694,7.3694,7.3694,7.3694,7.3694,7.3694,7.3649,7.3627,7.3493,7.3381,7.3176,7.2837,7.2792,7.2814,7.2384,7.1838,7.1541,7.122,7.1017,7.0836,7.0813,7.079,7.079,7.0742,9.5278,9.6088,9.6969,9.633,9.4895,9.4826,9.4267,9.3611,9.3515,9.3515,9.3515,9.3515,9.3515,9.3244,9.2422,9.1719,9.1088,9.0479,8.9815,8.9405,8.9302,8.8992,8.8371,8.8371,8.8163,8.8526,8.811,8.8032,8.726,8.5362,8.3173,8.1777,8.0888,8.0253,8.0253,8.0253,8.0253,8.0253,8.0253,8.0253,8.0253,8.0253,8.0253,8.0253,8.0253,8.0253,8.0253,8.0253,8.0253,8.0253,8.0253,8.0253,8.0278,8.0228,8.0228,8.0201,7.9516,7.9187,7.9415,7.9008,7.8755,7.8806,7.9187,7.9592,7.9643,7.9795,7.9363,7.7228,7.7001,7.5932,7.4256,7.3722,7.3694,7.3694,7.3694,7.3694,7.3694,7.3694,7.3694,7.3694,7.3694,7.3694,7.3694,7.3694,7.3694,7.3694,7.3694,7.3694,7.3694,7.3694,7.3694,7.3694,7.3694,7.3694,7.3694,7.3694,7.3694,7.3671,7.3649,7.3582,7.3515,7.3266,7.2837,7.2654,7.2702,7.2384,7.1883,7.1563,7.1356,7.113,7.088,7.0836,7.079,7.0742,7.0548,9.3783,9.3832,9.3857,9.366,9.3614,9.3587,9.354,9.3515,9.3515,9.3515,9.3515,9.3515,9.3515,9.3318,9.2547,9.1644,9.1037,9.0885,9.0809,9.0504,9.0428,9.0249,9.007,9.0121,8.925,8.9018,8.85,8.8449,8.7287,8.4953,8.3452,8.2741,8.1192,8.0253,8.0253,8.0253,8.0253,8.0253,8.0253,8.0253,8.0253,8.0253,8.0253,8.0253,8.0253,8.0253,8.0253,7.9947,7.9898,7.9898,7.9897,7.9846,7.9897,7.9872,7.9923,7.9643,7.8779,7.7763,7.8678,7.8576,7.8146,7.8425,7.8627,7.8728,7.9287,7.9744,7.9389,7.7255,7.6748,7.5681,7.4132,7.3697,7.3694,7.3694,7.3694,7.3694,7.3694,7.3694,7.3694,7.3694,7.3694,7.3694,7.3694,7.3694,7.3694,7.3694,7.3694,7.3694,7.3694,7.3694,7.3694,7.3694,7.3694,7.3694,7.3694,7.3694,7.3694,7.3694,7.3627,7.356,7.3493,7.3333,7.2882,7.2609,7.2451,7.2271,7.1951,7.17,7.1495,7.129,7.1086,7.0949,7.0739,7.0524,7.0259,9.5378,9.5378,9.5354,9.4656,9.3611,9.3515,9.3515,9.3515,9.3515,9.3515,9.3515,9.3515,9.3515,9.3441,9.3217,9.3068,9.2919,9.2746,9.222,9.1719,9.1493,9.0986,9.0172,8.9533,8.925,8.9224,8.8242,8.6814,8.5898,8.4291,8.3147,8.2258,8.109,8.0253,8.0253,8.0253,8.0253,8.0253,8.0253,8.0253,8.0253,8.0253,8.0253,8.0253,8.0253,8.0253,8.0176,7.9617,7.9212,7.8957,7.8449,7.784,7.7713,7.7662,7.8474,7.9871,7.9897,7.972,7.9771,7.9365,7.8882,7.8881,7.9643,7.9822,7.9923,7.9593,7.9363,7.7357,7.6265,7.5069,7.3954,7.3694,7.3694,7.3694,7.3694,7.3694,7.3694,7.3694,7.3694,7.3694,7.3694,7.3694,7.3694,7.3694,7.3694,7.3694,7.3694,7.3694,7.3694,7.3694,7.3694,7.3694,7.3694,7.3694,7.3694,7.3694,7.3694,7.3694,7.3627,7.3538,7.3448,7.3333,7.3199,7.2927,7.2747,7.2609,7.2178,7.1859,7.1502,7.1248,7.1216,7.0842,7.0127,6.9746,6.948,9.4677,9.4705,9.4729,9.4221,9.3587,9.3515,9.3515,9.3515,9.3515,9.3515,9.3515,9.3515,9.3515,9.3515,9.3515,9.3515,9.3466,9.3491,9.3217,9.2696,9.2172,9.1543,9.1037,8.9969,8.961,8.8732,8.7209,8.5515,8.4494,8.3401,8.2588,8.1799,8.0835,8.0278,8.0253,8.0253,8.0253,8.0253,8.0253,8.0253,8.0253,8.0253,8.0253,8.0253,8.0253,8.0253,8.0176,7.9567,7.9365,7.9212,7.883,7.8627,7.8322,7.8017,7.7763,7.8957,7.8855,7.8779,7.9289,7.8882,7.8806,7.8805,7.916,7.9389,7.9415,7.9339,7.8932,7.7636,7.6441,7.4792,7.3773,7.3697,7.3694,7.3694,7.3694,7.3694,7.3694,7.3694,7.3694,7.3694,7.3694,7.3694,7.3694,7.3694,7.3694,7.3694,7.3694,7.3694,7.3694,7.3694,7.3694,7.3694,7.3694,7.3694,7.3694,7.3694,7.3694,7.3694,7.3627,7.3493,7.3333,7.3154,7.3039,7.3104,7.3221,7.3199,7.2691,7.1939,7.1472,7.1078,7.0563,7.0,6.9389,6.8845,6.8481,9.3515,9.3515,9.3515,9.3515,9.3515,9.3515,9.3515,9.3515,9.3515,9.3515,9.3515,9.3515,9.3515,9.3515,9.3515,9.3515,9.3515,9.3491,9.3343,9.287,9.2292,9.159,9.1078,8.9962,8.8823,8.7644,8.5974,8.4568,8.3629,8.2588,8.2206,8.1799,8.0835,8.0303,8.0253,8.0253,8.0253,8.0253,8.0253,8.0253,8.0253,8.0253,8.0253,8.0253,8.0253,8.0253,8.0252,8.01,7.9998,7.9973,7.982,7.9822,7.9644,7.8551,7.8297,7.8805,7.8576,7.8652,7.8957,7.807,7.7408,7.7406,7.7916,7.8246,7.8271,7.827,7.7967,7.7306,7.6062,7.4792,7.3799,7.3694,7.3694,7.3694,7.3694,7.3694,7.3694,7.3694,7.3694,7.3694,7.3694,7.3694,7.3694,7.3694,7.3694,7.3694,7.3694,7.3694,7.3694,7.3694,7.3694,7.3694,7.3694,7.3694,7.3694,7.3694,7.3694,7.3694,7.3649,7.3467,7.3356,7.3084,7.3034,7.3204,7.3338,7.2929,7.252,7.2122,7.1234,6.9771,6.9391,6.9081,6.8425,6.7769,6.7408,9.3515,9.3515,9.3515,9.3515,9.3515,9.3515,9.3515,9.3515,9.3515,9.3515,9.3515,9.3515,9.3515,9.3515,9.3515,9.3515,9.3461,9.3409,9.2789,9.2159,9.163,9.0938,8.9971,8.876,8.7172,8.4519,8.3957,8.3729,8.3197,8.2613,8.185,8.1749,8.0834,8.0328,8.0253,8.0253,8.0253,8.0253,8.0253,8.0253,8.0253,8.0253,8.0253,8.0253,8.0253,8.0253,8.0101,7.9542,7.8932,7.8754,7.7941,7.8576,7.9617,7.9846,7.9922,7.9771,7.9365,7.9211,7.9135,7.8679,7.807,7.8246,7.7763,7.7306,7.7279,7.7253,7.6847,7.6087,7.5455,7.4665,7.3849,7.3694,7.3694,7.3694,7.3694,7.3694,7.3694,7.3694,7.3694,7.3694,7.3694,7.3694,7.3694,7.3694,7.3694,7.3694,7.3694,7.3694,7.3694,7.3694,7.3694,7.3694,7.3694,7.3694,7.3694,7.3694,7.3694,7.3694,7.3694,7.3627,7.3605,7.3021,7.2543,7.2967,7.265,7.1914,7.1367,7.1228,7.0276,6.8518,6.7886,6.7903,6.7432,6.6761,6.6403,9.2939,9.3488,9.3515,9.3515,9.3515,9.3515,9.3515,9.3515,9.3515,9.3515,9.3515,9.3515,9.3515,9.3515,9.3488,9.3131,9.2721,9.2533,9.1992,9.102,9.0169,8.9327,8.8176,8.6817,8.5158,8.3058,8.2667,8.2272,8.1849,8.1318,8.114,8.0988,8.0581,8.0303,8.0253,8.0253,8.0253,8.0253,8.0253,8.0253,8.0253,8.0253,8.0253,8.0253,8.0253,8.0253,8.0253,7.9669,7.9516,7.9187,7.85,7.8373,7.916,7.8806,7.8525,7.8525,7.8525,7.8525,7.8525,7.8043,7.7687,7.766,7.7281,7.7027,7.6949,7.6364,7.5805,7.5275,7.4716,7.4281,7.3748,7.3694,7.3694,7.3694,7.3694,7.3694,7.3694,7.3694,7.3694,7.3694,7.3694,7.3694,7.3694,7.3694,7.3694,7.3694,7.3694,7.3694,7.3694,7.3519,7.3544,7.3468,7.3544,7.3417,7.344,7.3367,7.324,7.3163,7.3113,7.3138,7.3062,7.2579,7.2024,7.1617,7.1287,7.062,7.0328,7.0266,6.972,6.8221,6.7193,6.69,6.6501,6.589,6.5472,9.2066,9.3106,9.3131,9.327,9.3461,9.3515,9.3515,9.3515,9.3515,9.3515,9.3515,9.3515,9.3515,9.3515,9.3461,9.2885,9.1929,9.2148,9.1274,9.0083,8.8791,8.7602,8.6226,8.5174,8.3533,8.2235,8.1654,8.1103,8.0548,8.0481,8.0279,8.0354,8.0328,8.0253,8.0253,8.0253,8.0253,8.0253,8.0253,8.0253,8.0253,8.0253,8.0253,8.0253,8.0253,8.0253,8.0253,8.0253,8.0025,7.949,7.8676,7.8108,7.8397,7.7908,7.7625,7.7625,7.7476,7.7285,7.7023,7.6849,7.6618,7.6544,7.6214,7.624,7.6189,7.5348,7.497,7.4738,7.4205,7.3799,7.3694,7.3694,7.3694,7.3694,7.3694,7.3694,7.3694,7.3694,7.3694,7.3694,7.3694,7.3694,7.3694,7.3694,7.3694,7.3694,7.3694,7.3694,7.3519,7.3341,7.3163,7.2935,7.2706,7.2071,7.2046,7.202,7.202,7.2046,7.2147,7.2198,7.1998,7.1592,7.116,7.0648,7.0013,6.9649,6.9348,6.9197,6.8557,6.7802,6.6873,6.6377,6.5798,6.5062,6.4587,9.0912,9.1953,9.1953,9.253,9.3324,9.3488,9.3379,9.3461,9.3488,9.3515,9.3515,9.3515,9.3515,9.3515,9.3488,9.2885,9.182,9.2584,9.1708,9.0025,8.8613,8.6906,8.5116,8.4085,8.2988,8.1772,8.081,8.0472,8.0326,8.0253,8.0253,8.0253,8.0253,8.0253,8.0253,8.0253,8.0253,8.0253,8.0253,8.0253,8.0253,8.0151,8.0049,8.0024,7.9998,7.9898,7.9974,7.9974,7.9314,7.7408,7.7253,7.7476,7.812,7.8233,7.7978,7.776,7.7516,7.734,7.6933,7.5856,7.5424,7.53,7.4611,7.4053,7.4256,7.423,7.4027,7.405,7.3795,7.3694,7.3694,7.3694,7.3694,7.3621,7.3519,7.3621,7.3694,7.3694,7.3694,7.3694,7.3621,7.3646,7.3694,7.3694,7.357,7.2732,7.2884,7.2833,7.271,7.2405,7.2151,7.21,7.1563,7.0826,7.0801,7.0801,7.0953,7.1106,7.1284,7.1029,7.0805,7.0195,7.0013,6.9759,6.9048,6.8593,6.838,6.7692,6.6876,6.6261,6.6242,6.5802,6.5298,6.478,6.4635,8.9581,9.0728,9.0752,9.1001,9.1516,9.2205,9.2451,9.2612,9.3161,9.3515,9.3515,9.3515,9.3515,9.3515,9.3488,9.2885,9.1926,9.2284,9.1137,8.909,8.8275,8.6513,8.4492,8.3621,8.2514,8.1051,8.0522,8.0302,8.0253,8.0253,8.0253,8.0227,8.0253,8.0253,8.0176,8.0253,8.0253,8.0252,8.0253,8.0253,8.0201,7.9668,7.9363,7.9186,7.8652,7.8349,7.8398,7.8373,7.7992,7.7078,7.6314,7.6119,7.6457,7.5994,7.5632,7.5635,7.5655,7.5545,7.5035,7.4637,7.4309,7.4208,7.3979,7.3697,7.3694,7.3694,7.3694,7.3694,7.3694,7.3694,7.3694,7.3694,7.3694,7.3446,7.2452,7.1665,7.1617,7.1741,7.1639,7.1639,7.1665,7.1639,7.1617,7.1592,7.1592,7.169,7.1893,7.1821,7.177,7.1262,7.0881,7.0881,7.0547,7.0242,7.0166,7.0162,7.0263,7.0394,7.0398,6.9785,6.9129,6.8138,6.8087,6.8083,6.7824,6.7575,6.7472,6.7075,6.6396,6.6131,6.5619,6.5372,6.5231,6.4904,6.4996,8.8329,8.9468,8.9495,8.9687,9.0096,9.0864,9.1274,9.141,9.2202,9.2421,9.2639,9.2888,9.2994,9.3051,9.3297,9.2833,9.2093,9.212,9.0786,8.8407,8.7783,8.617,8.4529,8.3902,8.2841,8.1389,8.1029,8.0545,8.0278,8.0253,8.01,7.9871,7.9719,7.9668,7.9465,7.9287,7.9414,7.9414,7.9363,7.9338,7.9186,7.85,7.8121,7.8044,7.7433,7.7103,7.7001,7.7001,7.6597,7.5376,7.4512,7.435,7.4563,7.4235,7.4061,7.4022,7.3787,7.3459,7.3251,7.3166,7.3214,7.3192,7.3468,7.3671,7.3694,7.3694,7.3694,7.3694,7.3694,7.3694,7.3694,7.3694,7.3443,7.3065,7.1563,7.0394,7.0344,7.0191,7.0191,7.0191,7.0293,7.0369,7.0398,7.0394,7.0394,7.0394,7.042,7.042,7.05,7.0195,6.9764,6.9759,6.9505,6.9454,6.9429,6.945,6.9475,6.951,6.9154,6.8565,6.7859,6.7122,6.697,6.6843,6.7168,6.7265,6.6995,6.6848,6.6868,6.6721,6.6274,6.5906,6.5623,6.5235,6.5328,8.7124,8.8111,8.8165,8.8789,8.9741,9.0014,9.0096,9.0096,9.0339,9.0451,9.0612,9.141,9.1871,9.2069,9.2724,9.2557,9.2038,9.2451,9.1086,8.852,8.6996,8.6273,8.5463,8.4518,8.3481,8.2613,8.1856,8.1093,8.0099,7.9949,7.9744,7.8728,7.8627,7.8195,7.7459,7.7205,7.7255,7.7179,7.7128,7.7154,7.7128,7.6949,7.6874,7.6824,7.657,7.6392,7.629,7.6189,7.464,7.1417,7.1779,7.2475,7.3027,7.3709,7.3854,7.3763,7.3298,7.2521,7.1895,7.1987,7.2133,7.214,7.2874,7.3694,7.3338,7.3189,7.3211,7.324,7.3316,7.3417,7.3417,7.3367,7.2884,7.2071,7.075,7.0039,7.0115,6.9967,6.9785,6.9886,7.014,7.0115,6.984,6.9861,6.9886,6.9891,6.9835,6.9734,6.9611,6.9099,6.8769,6.8387,6.8006,6.7981,6.8083,6.8083,6.8108,6.8087,6.7833,6.7498,6.7072,6.6919,6.6863,6.6843,6.6965,6.6939,6.6843,6.6843,6.6843,6.6782,6.6701,6.6625,6.6236,6.5736,6.5766,8.6578,8.691,8.6937,8.7288,8.772,8.8516,8.8813,8.8899,8.9608,8.9987,9.0042,9.0479,9.0666,9.0752,9.1107,9.1001,9.0776,9.1079,9.0103,8.8138,8.6855,8.5868,8.5046,8.3432,8.2078,8.1328,8.0947,8.0212,7.9184,7.8501,7.7968,7.7636,7.756,7.7001,7.5986,7.5859,7.5526,7.4992,7.4916,7.4916,7.4741,7.418,7.3776,7.3722,7.3087,7.2757,7.2684,7.2684,7.1893,7.0696,7.1016,7.1922,7.2622,7.2548,7.2456,7.2311,7.1703,7.1065,7.0836,7.1313,7.1493,7.107,7.1749,7.2117,7.162,7.144,7.1487,7.1461,7.1538,7.1487,7.1512,7.1487,7.0979,6.9984,6.9429,6.8921,6.823,6.8083,6.8133,6.821,6.8205,6.8108,6.8108,6.8103,6.8108,6.8087,6.8087,6.8087,6.8006,6.7798,6.7625,6.7346,6.7066,6.7016,6.6889,6.6843,6.6843,6.6843,6.6843,6.6843,6.6843,6.6843,6.6843,6.6843,6.6843,6.6843,6.6843,6.6843,6.6843,6.6681,6.6605,6.6852,6.7187,6.66,6.6833,8.6339,8.6555,8.6532,8.6464,8.6437,8.7178,8.751,8.762,8.8407,8.8867,8.8922,8.9199,8.9414,8.9468,8.9851,9.0014,8.9932,8.9113,8.8161,8.6878,8.5704,8.4716,8.3759,8.2066,8.1049,8.0906,8.0605,7.9797,7.8621,7.7799,7.7001,7.654,7.6394,7.5833,7.4792,7.436,7.3878,7.3141,7.276,7.2557,7.2503,7.1839,7.1411,7.1309,7.0623,6.9785,6.92,6.9171,6.915,6.9099,7.003,7.0978,7.1808,7.1814,7.1666,7.1591,7.0829,7.0356,7.0443,7.0976,7.1148,7.0804,7.114,7.1164,7.07,7.0412,7.0267,7.0242,7.0191,7.0191,7.0191,7.0191,6.9632,6.8235,6.8083,6.7752,6.7193,6.697,6.6843,6.6843,6.6843,6.6843,6.6914,6.696,6.7066,6.7021,6.6995,6.6995,6.6965,6.7041,6.6843,6.6843,6.6843,6.6889,6.6843,6.6843,6.6843,6.6843,6.6843,6.6843,6.6843,6.6843,6.6843,6.6843,6.6843,6.6843,6.6843,6.6843,6.6843,6.6762,6.6757,6.7171,6.7834,6.8216,6.845,8.6349,8.7019,8.7079,8.6758,8.6396,8.6464,8.6387,8.6469,8.6523,8.6714,8.696,8.762,8.8111,8.8275,8.9113,8.9796,8.9304,8.7588,8.6136,8.5044,8.381,8.3154,8.2881,8.1556,8.1389,8.2286,8.1555,8.0079,7.815,7.778,7.6873,7.549,7.5272,7.4716,7.3671,7.2608,7.1995,7.1614,7.0678,7.0195,7.0191,7.0115,7.0039,7.0043,7.009,6.9124,6.7143,6.7066,6.7168,6.7219,6.8001,6.9086,7.0645,7.1459,7.1854,7.1654,7.1093,7.0737,7.0704,7.0972,7.1115,7.0891,7.127,7.1392,7.1018,7.051,7.0089,7.0101,7.011,7.0068,7.006,6.9988,6.9224,6.7366,6.7112,6.7066,6.6889,6.6843,6.6843,6.6843,6.6843,6.6843,6.6843,6.6843,6.6843,6.6843,6.6843,6.6843,6.6843,6.6843,6.6843,6.6843,6.6843,6.6843,6.6843,6.6843,6.6843,6.6843,6.6843,6.6843,6.6843,6.6843,6.6843,6.6843,6.6843,6.6843,6.6843,6.6843,6.6843,6.6889,6.7016,6.7163,6.778,6.8397,6.9131,8.6515,8.7368,8.7214,8.6989,8.6808,8.6468,8.6332,8.6332,8.6332,8.6332,8.6359,8.6687,8.6878,8.696,8.7288,8.7502,8.737,8.6714,8.6086,8.5649,8.4525,8.3564,8.269,8.1445,8.109,8.1203,7.9835,7.8039,7.6346,7.55,7.4854,7.423,7.418,7.3621,7.2478,7.1313,7.0344,6.9603,6.8561,6.7956,6.793,6.7956,6.791,6.8037,6.8697,6.8367,6.6965,6.6843,6.6843,6.7045,6.8249,6.9264,6.9858,7.0673,7.1143,7.1058,7.0364,6.9812,6.9911,7.0523,7.0612,7.006,7.0562,7.0694,7.0109,6.9801,6.9661,6.964,6.964,6.9358,6.9039,6.8902,6.8573,6.7947,6.7227,6.6863,6.6843,6.6843,6.6843,6.6843,6.6843,6.6843,6.6843,6.6843,6.6843,6.6843,6.6843,6.6843,6.6843,6.6843,6.6843,6.6843,6.6843,6.6843,6.6843,6.6843,6.6843,6.6843,6.6843,6.6843,6.6843,6.6843,6.6843,6.6843,6.6843,6.6843,6.6843,6.6843,6.6843,6.6843,6.6939,6.7244,6.7919,6.8399,6.8784,8.6726,8.7539,8.7547,8.7456,8.7277,8.6934,8.6776,8.6803,8.6645,8.66,8.6555,8.6396,8.6332,8.6332,8.6486,8.6486,8.6332,8.6332,8.6086,8.559,8.4907,8.3968,8.2744,8.1494,8.0871,8.0619,7.9163,7.7584,7.6146,7.5134,7.449,7.4202,7.3875,7.3316,7.2503,7.1407,7.0496,6.9755,6.826,6.7473,6.7579,6.7498,6.7722,6.8057,6.8794,6.8688,6.7524,6.7498,6.7458,6.7373,6.8652,6.9558,6.9936,7.0712,7.12,7.1116,7.06,7.031,7.0368,7.0885,7.0897,7.0414,7.0615,7.0509,6.9995,6.9597,6.9394,6.9401,6.9421,6.944,6.9073,6.881,6.8559,6.8175,6.7434,6.6843,6.6843,6.6843,6.6843,6.6843,6.6843,6.6843,6.6843,6.6843,6.6843,6.6843,6.6843,6.6843,6.6843,6.6843,6.6843,6.6843,6.6843,6.6843,6.6843,6.6843,6.6843,6.6843,6.6843,6.6843,6.6843,6.6843,6.6843,6.6843,6.6843,6.6843,6.6843,6.6843,6.6843,6.6843,6.6843,6.732,6.8383,6.8498,6.8704,8.676,8.7173,8.7921,8.7885,8.758,8.7508,8.7564,8.7585,8.7249,8.7097,8.7029,8.6622,8.6373,8.6396,8.6854,8.6808,8.635,8.6332,8.5786,8.4907,8.4743,8.4028,8.2766,8.1548,8.0899,8.0523,7.9382,7.8409,7.7592,7.6678,7.5884,7.4927,7.4072,7.3646,7.3417,7.2401,7.1893,7.1617,6.9759,6.8743,6.8794,6.8819,6.9175,6.9607,6.9992,6.9454,6.8565,6.8489,6.8376,6.8167,6.8929,6.9754,7.0603,7.1394,7.187,7.1861,7.1843,7.1843,7.1786,7.1786,7.1832,7.1729,7.1203,7.0843,7.0731,7.0143,6.9766,6.959,6.9727,7.0007,7.0507,6.9949,6.9185,6.848,6.7554,6.7005,6.6883,6.6843,6.6843,6.6843,6.6843,6.6843,6.6843,6.6843,6.6843,6.6843,6.6843,6.6843,6.6843,6.6843,6.6843,6.6843,6.6843,6.6843,6.6843,6.6843,6.6843,6.6843,6.6843,6.6843,6.6843,6.6843,6.6843,6.6843,6.6843,6.6843,6.6843,6.6843,6.6843,6.6843,6.6843,6.7117,6.793,6.8383,6.8408,8.4502,8.4783,8.589,8.6555,8.6934,8.6562,8.6859,8.7591,8.7557,8.749,8.7496,8.7384,8.7164,8.6921,8.7007,8.6831,8.6355,8.6332,8.6114,8.5868,8.5813,8.4743,8.2903,8.2389,8.133,7.9695,7.8625,7.8026,7.7597,7.623,7.4927,7.4135,7.3805,7.3694,7.3548,7.2528,7.235,7.2909,7.0906,7.0144,7.0902,7.1026,6.9967,6.8078,6.8591,6.8514,6.7417,6.7325,6.731,6.7247,6.8626,6.9538,6.9793,7.1138,7.1899,7.1899,7.1899,7.1899,7.1899,7.1899,7.1899,7.1899,7.1775,7.1604,7.1566,7.1375,7.1234,7.1176,7.1261,7.1261,7.1509,7.0866,7.0034,6.9146,6.8354,6.7575,6.7005,6.6843,6.6883,6.6843,6.6883,6.6843,6.6843,6.6843,6.6843,6.6843,6.6843,6.6843,6.6843,6.6843,6.6843,6.6843,6.6843,6.6843,6.6843,6.6843,6.6843,6.6843,6.6843,6.6843,6.6843,6.6843,6.6843,6.6843,6.6843,6.6843,6.6843,6.6843,6.6843,6.6843,6.6843,6.7016,6.7448,6.7371,6.7385,8.4409,8.4416,8.5178,8.5813,8.6149,8.5877,8.6139,8.6739,8.6598,8.6783,8.7217,8.6946,8.6505,8.6116,8.5968,8.5609,8.5093,8.492,8.5126,8.5568,8.559,8.5126,8.4165,8.3318,8.2089,8.0583,7.905,7.8295,7.809,7.685,7.547,7.4335,7.385,7.3694,7.3621,7.2963,7.3214,7.4208,7.2528,7.1944,7.2528,7.2198,7.075,6.857,6.8891,6.8764,6.7747,6.7595,6.7529,6.75,6.8348,6.9198,6.9917,7.0904,7.1612,7.188,7.1899,7.1899,7.1899,7.1899,7.1899,7.1899,7.1899,7.1899,7.1899,7.1899,7.1899,7.1899,7.188,7.1899,7.1851,7.1192,7.0565,6.9995,6.9211,6.8513,6.791,6.7655,6.7414,6.7394,6.7086,6.6843,6.6843,6.6843,6.6843,6.6843,6.6843,6.6843,6.6843,6.6843,6.6843,6.6843,6.6843,6.6843,6.6843,6.6843,6.6843,6.6843,6.6843,6.6843,6.6843,6.6843,6.6843,6.6843,6.6843,6.6843,6.6843,6.6843,6.6843,6.6843,6.6843,6.6843,6.6843,6.6843,6.6782,8.5142,8.5199,8.5058,8.5178,8.515,8.5263,8.5411,8.5489,8.5025,8.5493,8.6251,8.5651,8.5138,8.4722,8.4465,8.4044,8.3505,8.3011,8.3466,8.4307,8.4361,8.4858,8.529,8.3542,8.2575,8.2007,8.0107,7.9034,7.8992,7.8105,7.685,7.5234,7.4033,7.3544,7.3646,7.3497,7.403,7.5148,7.4284,7.3751,7.3621,7.2528,7.1334,7.0111,6.9886,6.9429,6.8383,6.8464,6.8325,6.8124,6.8051,6.8792,7.0157,7.0405,7.0745,7.1442,7.1517,7.1618,7.1563,7.1572,7.1508,7.1618,7.1462,7.1536,7.1681,7.1599,7.159,7.1481,7.1536,7.1426,7.1515,7.1009,7.0578,7.0274,6.9823,6.9414,6.9106,6.8678,6.8175,6.8135,6.7267,6.6843,6.6843,6.6843,6.6843,6.6843,6.6843,6.6843,6.6843,6.6843,6.6843,6.6843,6.6843,6.6843,6.6843,6.6843,6.6843,6.6843,6.6843,6.6843,6.6843,6.6843,6.6843,6.6843,6.6843,6.6843,6.6843,6.6843,6.6843,6.6843,6.6843,6.6843,6.6843,6.6843,6.6823,8.2687,8.2687,8.2667,8.2667,8.2772,8.3647,8.4585,8.5488,8.5355,8.4947,8.4341,8.4093,8.4287,8.4687,8.4686,8.4162,8.3454,8.3303,8.3229,8.3203,8.3231,8.2777,8.2051,8.1581,8.0838,7.9937,7.9391,7.9118,7.9013,7.8168,7.7197,7.5957,7.3565,7.2757,7.3646,7.2782,7.329,7.5071,7.497,7.451,7.3671,7.2528,7.0957,6.9099,6.8108,6.7498,6.7315,6.7244,6.7224,6.7166,6.6991,6.7329,6.8268,6.8157,6.8398,6.9113,6.9195,6.9213,6.9213,6.9213,6.9222,6.924,6.9195,6.9605,7.0352,6.9723,6.9222,6.9195,6.9286,6.9259,6.9395,6.9821,7.002,6.9388,6.9891,6.9796,6.8705,6.8334,6.7975,6.7267,6.7005,6.6818,6.6843,6.6843,6.6843,6.6843,6.6843,6.6843,6.6843,6.6843,6.6843,6.6843,6.6843,6.6762,6.6843,6.6812,6.6812,6.6843,6.6838,6.6812,6.6863,6.6863,6.6838,6.6787,6.6812,6.6762,6.6838,6.6838,6.6812,6.6843,6.6843,6.6843,6.6843,6.6843,6.6782,8.18,8.18,8.18,8.18,8.1877,8.2546,8.3175,8.3788,8.3244,8.2546,8.1962,8.2546,8.3003,8.3375,8.3168,8.2787,8.232,8.2137,8.2131,8.2242,8.2269,8.2064,8.1706,8.1144,8.0517,7.9889,7.9391,7.9118,7.9034,7.8216,7.7512,7.6909,7.4589,7.3452,7.3618,7.3014,7.3522,7.5173,7.4741,7.3976,7.2859,7.1258,6.9556,6.7854,6.6183,6.5384,6.5359,6.5339,6.5359,6.5319,6.5405,6.5843,6.6807,6.688,6.7342,6.833,6.8402,6.8402,6.8402,6.8402,6.8402,6.8402,6.8402,6.8466,6.8512,6.7893,6.781,6.8347,6.8402,6.8402,6.8429,6.8976,6.9158,6.8681,6.8877,6.878,6.7896,6.7158,6.6692,6.6662,6.6386,6.635,6.6833,6.6843,6.6843,6.6843,6.6843,6.6843,6.6843,6.6025,6.5359,6.5339,6.5339,6.5364,6.5339,6.5771,6.6147,6.6127,6.6172,6.6375,6.6812,6.6381,6.6203,6.6172,6.6152,6.6172,6.6127,6.6147,6.6426,6.6635,6.6843,6.6843,6.6843,6.6843,6.6402,8.1256,8.1284,8.1313,8.1304,8.1304,8.1304,8.1304,8.1191,8.0119,7.962,7.9696,8.0825,8.1284,8.1264,8.084,8.0611,8.0511,8.0418,8.0601,8.1195,8.1395,8.1823,8.2279,8.1224,8.0668,8.0544,7.9609,7.9118,7.9034,7.8337,7.7788,7.7411,7.6014,7.4607,7.3532,7.3395,7.3929,7.4944,7.4154,7.3144,7.2063,7.0013,6.8411,6.7218,6.5139,6.3934,6.3809,6.3662,6.3529,6.3529,6.3785,6.4423,6.5476,6.5769,6.6494,6.7686,6.7811,6.7938,6.8111,6.7974,6.7965,6.8129,6.801,6.7337,6.612,6.613,6.6711,6.7738,6.7801,6.7928,6.791,6.8019,6.812,6.8084,6.7698,6.7296,6.7073,6.5897,6.5312,6.5858,6.5466,6.539,6.607,6.6228,6.6177,6.6324,6.605,6.6279,6.5923,6.4774,6.3682,6.3529,6.3529,6.3529,6.3885,6.4475,6.4958,6.5079,6.5054,6.5308,6.5999,6.5537,6.5105,6.5054,6.5034,6.5054,6.5079,6.5054,6.5359,6.5969,6.6127,6.6157,6.6147,6.6152,6.5695,7.8652,7.8632,7.8604,7.8632,7.8632,7.8604,7.8632,7.8652,0.0,0.0,0.0,7.8519,7.8632,7.8604,7.8527,7.8295,7.8104,7.906,7.9359,7.9144,8.0198,8.0505,8.0228,8.0015,7.9718,7.9418,7.9227,7.9118,7.9118,7.8944,7.8105,7.6747,7.629,7.4827,7.2409,7.2249,7.2808,7.3852,7.3799,7.3344,7.2711,7.1382,7.0173,6.9115,6.6974,6.5548,6.4989,6.4088,6.3529,6.3529,6.3031,6.3099,6.3889,6.3512,6.3794,6.4808,6.4902,6.5468,6.6721,6.5937,6.581,6.6766,6.5919,6.4872,6.3715,6.4473,6.5155,6.5336,6.5391,6.5391,6.5418,6.6247,6.683,6.6847,6.7667,6.7589,6.6307,6.5832,6.5102,6.4264,6.3956,6.3987,6.4215,6.4247,6.4139,6.4145,6.4323,6.4184,6.4088,6.3764,6.3326,6.3326,6.325,6.3427,6.3529,6.3758,6.3834,6.3885,6.3885,6.3936,6.4088,6.3987,6.3859,6.3859,6.384,6.3885,6.3859,6.3885,6.3936,6.4133,6.4145,6.4184,6.4164,6.4164,6.3916,7.7955,0.0,7.7955,7.7955,0.0,7.7955,7.7222,7.6084,7.6093,7.645,7.7109,7.7692,7.7955,7.7955,7.7955,7.7859,7.7704,7.8303,7.8398,7.7986,7.8627,7.8559,7.7909,7.7936,7.7734,7.7329,7.7335,7.7684,7.8182,7.7656,7.6952,7.6196,7.5153,7.3666,7.1882,7.1903,7.1897,7.194,7.1701,7.1457,7.1165,6.9297,6.8021,6.7467,6.4844,0.0,0.0,0.0,0.0,0.0,0.0,0.0,0.0,0.0,0.0,6.3546,6.3179,6.3145,6.3466,6.2983,6.3029,6.3746,6.3261,6.2715,6.2131,6.2622,6.3206,6.379,6.3845,6.4091,6.4664,6.5247,6.5602,6.5567,6.5435,6.5093,6.4238,6.351,6.294,6.2658,6.2684,6.2932,6.3478,6.3529,6.3529,6.3529,6.3529,6.358,6.3478,6.264,6.1922,6.1903,6.1896,6.1859,6.1928,6.2265,6.2659,6.276,6.3019,6.3299,6.3511,6.3377,6.3132,6.276,6.2684,6.2678,6.2684,6.2684,6.2881,6.3383,6.3529,6.3275,6.2099,6.1427,6.0946,7.7411,7.7364,7.7364,7.7307,7.725,7.7326,7.6205,7.435,7.4277,7.487,7.5877,7.6827,7.7269,7.725,7.725,7.7231,7.725,7.7504,7.7445,7.7156,7.7284,7.6969,7.6312,7.6241,7.6004,7.5647,7.5627,7.6119,7.7001,7.6064,7.5542,7.5379,7.373,7.242,7.1482,0.0,0.0,0.0,6.9707,6.9533,6.9351,6.7207,6.5935,6.562,6.2565,0.0,6.3018,6.1773,6.1789,6.3369,6.39,0.0,0.0,0.0,0.0,0.0,0.0,0.0,0.0,0.0,0.0,0.0,6.051,6.0319,6.0772,6.1033,6.1628,6.2568,6.2791,6.3178,6.388,6.3911,6.3976,6.4183,6.3172,6.2416,6.2381,6.1437,6.083,6.1471,6.1505,6.1872,6.2672,6.2945,6.2894,6.2792,6.29,6.2919,6.2868,6.1395,6.0346,6.0269,6.0429,6.032,6.0269,6.102,6.1542,6.1554,6.2093,6.2493,6.2715,6.2586,6.2211,6.1691,6.1542,6.1523,6.1523,6.1523,6.1796,6.2722,6.2894,6.2411,6.0632,5.9351,5.8414,7.5541,7.5242,7.5242,7.5013,7.4775,7.5097,7.5044,7.476,7.4405,7.4344,7.4541,7.4664,7.4739,7.472,7.472,7.472,7.4823,7.5942,7.6413,7.6394,7.7054,7.7116,7.6687,7.6351,7.6004,7.5627,7.5627,7.5682,7.5846,7.5709,7.4834,7.3327,7.303,7.2062,7.042,6.9467,6.8972,6.8866,6.9332,6.9362,6.8913,6.8232,6.7423,6.6305,6.3416,6.246,6.3688,6.1486,6.1071,6.2962,6.3721,6.3713,6.2757,6.2321,6.1372,0.0,5.8866,0.0,0.0,0.0,0.0,0.0,0.0,0.0,0.0,6.0446,6.13,6.1464,6.2059,6.2111,6.1215,6.0839,6.1195,6.2511,6.2539,6.2392,6.239,6.224,6.1696,6.0601,6.0461,6.0505,6.0683,6.0683,6.0701,6.081,6.0785,6.069,6.0676,6.0429,6.0218,6.0269,6.0269,6.0269,6.0295,6.0404,6.0531,6.0523,6.0714,6.0615,6.0821,6.0735,6.0652,6.0516,6.0531,6.0505,6.048,6.0505,6.0538,6.0828,6.0861,6.0752,6.0251,5.9275,5.8544,7.4786,7.485,7.485,7.4633,7.4277,7.4441,7.4542,7.4506,7.4332,7.4277,7.4277,7.4277,7.4277,7.4277,7.4277,7.4277,7.4316,7.488,7.5115,7.5162,7.5484,7.5305,7.4747,7.4557,7.4136,7.3577,7.3558,7.3913,7.444,7.3886,7.3045,7.1934,7.1287,6.9912,6.786,6.7137,6.7066,6.7605,6.774,6.7408,6.6672,6.5197,6.4725,6.5177,6.24,6.1983,6.439,6.2818,6.2469,6.3755,6.4182,6.3636,6.1948,6.0987,5.951,0.0,0.0,0.0,0.0,0.0,0.0,0.0,0.0,0.0,0.0,0.0,5.7969,5.8705,6.1183,6.2134,6.0765,6.0979,6.107,6.0893,6.0165,5.9752,5.9899,5.994,5.9548,5.8525,5.8937,5.9282,5.9282,5.93,5.9503,6.0193,5.9202,5.8625,5.9166,5.93,5.9547,6.0168,6.0269,6.0269,6.0269,6.0269,6.0269,6.0306,6.0607,6.0752,6.036,6.0607,6.0752,6.0335,6.0269,6.0269,6.0269,6.0269,6.0269,6.0269,6.0269,6.0269,6.0218,5.8879,5.7554,7.4641,7.4747,7.3571,7.3141,7.3201,7.3158,7.3256,7.3493,7.3403,7.3384,7.3384,7.3366,7.3215,7.2923,7.2651,7.2651,7.2979,7.3225,7.3481,7.3709,7.3909,7.3627,7.2941,7.2876,7.2511,7.1956,7.1645,7.2091,7.3117,7.1996,7.1039,7.0436,6.9185,6.7426,6.5286,6.5175,6.551,6.6154,6.5776,6.5392,6.4855,6.3073,6.2843,6.4259,6.1254,6.1204,6.4578,6.3013,6.2718,6.4138,6.3552,6.2289,6.0447,5.8543,0.0,0.0,0.0,0.0,0.0,0.0,0.0,0.0,0.0,4.9434,4.9462,0.0,5.4259,0.0,5.942,6.1199,6.01,6.0176,0.0,0.0,5.7182,5.6317,5.6673,5.7006,5.6917,5.6248,5.7237,5.7999,5.7973,5.8087,5.8554,5.9497,5.8272,5.7393,5.7915,5.8272,5.8775,5.9285,5.9405,5.9521,5.9591,5.9388,5.9066,5.9424,6.0428,6.0926,6.0379,6.0752,6.0987,6.0397,6.0269,6.0269,6.0269,6.0269,6.0175,5.9921,6.0091,6.0269,6.0244,5.8726,5.7259,7.5146,7.4452,6.9943,6.8946,7.0264,6.9947,7.0404,7.1341,7.0995,7.0873,7.0873,7.0856,7.027,6.9192,6.7967,0.0,6.9288,7.0366,7.1318,7.2113,7.2848,7.2941,7.2548,7.2164,7.2002,7.1864,7.0817,7.0907,7.1954,7.0523,6.9343,6.8442,6.6932,6.5165,6.3394,6.4257,6.4568,6.4203,6.3831,6.4029,6.4876,6.4381,6.4154,6.4259,6.0734,6.0538,6.4043,6.0422,5.9796,6.3135,6.0709,5.8629,5.729,0.0,0.0,0.0,0.0,0.0,0.0,0.0,0.0,0.0,0.0,0.0,0.0,0.0,0.0,5.3342,5.6243,0.0,5.7974,5.6406,0.0,0.0,0.0,5.2449,5.3195,5.4313,5.4758,5.402,0.0,0.0,5.6548,5.6876,5.7351,5.8025,5.7964,5.7519,5.6657,5.7617,5.8173,5.7489,5.727,5.7443,5.8119,5.6914,5.6278,5.7248,5.8979,6.0222,6.016,6.0277,6.0335,6.0142,6.0244,6.0218,6.0244,6.0135,5.9921,5.8851,5.9453,6.0193,6.004,5.9003,5.8019,7.0226,6.7836,6.5761,6.5251,6.5848,6.5717,6.636,6.7476,6.7333,6.7295,6.7295,6.7312,6.6601,6.5372,6.4848,0.0,0.0,0.0,6.7801,6.9328,6.9671,7.0014,7.039,7.0226,7.0043,6.9842,7.007,7.0407,7.0834,7.0476,6.8,6.3612,0.0,0.0,6.0716,6.1705,6.2691,6.3592,6.4083,6.4523,6.4896,6.4551,6.3753,6.2586,6.0045,5.9618,6.1556,6.0974,6.011,5.8843,5.6947,5.4341,0.0,0.0,0.0,0.0,0.0,0.0,0.0,0.0,0.0,0.0,0.0,4.1169,4.0528,0.0,0.0,0.0,4.8512,4.9822,5.2107,5.3405,0.0,0.0,0.0,0.0,0.0,0.0,0.0,5.0182,5.1731,5.3363,5.4862,5.4047,5.3433,5.3639,5.3867,5.4165,5.4646,0.0,5.6058,5.7357,5.6789,5.6633,5.7742,5.659,5.57,5.6217,5.7725,5.8676,5.8386,5.881,5.8945,5.8447,5.8287,5.8261,5.8261,5.8261,5.8091,5.7692,5.7964,5.8261,5.8261,5.7163,5.6129,6.3831,0.0,0.0,0.0,0.0,6.0517,6.1237,6.2427,6.2427,6.2427,6.2455,6.2442,0.0,0.0,0.0,0.0,0.0,0.0,6.395,6.5927,6.7009,6.7788,6.8256,6.8284,6.8114,6.7865,6.7921,6.8131,6.8422,6.734,6.4218,5.9374,0.0,0.0,0.0,0.0,6.0071,6.1978,6.2355,6.2961,6.3893,6.2456,6.1515,6.1235,5.9686,5.9098,5.9747,5.987,5.8187,5.4561,5.2393,0.0,0.0,0.0,0.0,0.0,0.0,0.0,0.0,0.0,0.0,0.0,0.0,0.0,0.0,0.0,0.0,0.0,0.0,0.0,4.6993,4.9545,5.0096,0.0,0.0,0.0,0.0,0.0,0.0,0.0,0.0,0.0,5.1343,5.044,4.9942,0.0,0.0,5.1692,5.257,5.3059,5.3974,5.5768,5.5156,0.0,5.6214,5.5065,5.4414,5.5476,5.6011,5.635,5.6198,5.6719,5.68,5.5887,5.6066,5.5922,5.4859,5.4691,5.4791,5.4875,5.5101,5.5302,5.526,5.453,5.3769,0.0,0.0,0.0,0.0,0.0,0.0,0.0,0.0,5.6131,5.6131,0.0,5.6117,0.0,0.0,0.0,0.0,0.0,5.7879,0.0,0.0,6.5291,6.6867,6.651,6.6465,6.6502,6.6358,6.3884,6.326,6.411,5.9568,0.0,0.0,0.0,0.0,0.0,0.0,5.6563,5.8918,5.7707,5.8447,6.1364,5.754,5.7118,6.0586,5.9622,5.9116,5.9272,5.5646,5.2808,5.1075,4.6976,0.0,0.0,0.0,0.0,0.0,0.0,0.0,0.0,0.0,0.0,0.0,0.0,0.0,0.0,0.0,0.0,0.0,0.0,0.0,0.0,4.4356,0.0,0.0,0.0,0.0,0.0,0.0,0.0,0.0,0.0,0.0,4.5433,4.6149,4.7575,4.9635,0.0,0.0,0.0,0.0,5.2272,5.1719,5.1516,5.174,5.2577,5.1158,5.1175,5.4587,0.0,0.0,5.4075,5.403,5.3597,5.2937,5.3853,5.3552,4.949,4.9425,4.9873,4.9882,5.0612,5.1244,5.1309,5.1308,5.1498,0.0,0.0,0.0,0.0,0.0,0.0,0.0,0.0,0.0,5.1593,0.0,5.0732,0.0,0.0,0.0,0.0,0.0,0.0,0.0,0.0,5.7989,5.9306,6.0651,6.0667,6.0242,0.0,5.914,5.7331,0.0,0.0,0.0,0.0,0.0,0.0,0.0,0.0,5.5164,5.7049,5.7349,5.8866,6.1497,5.7793,5.6313,5.7555,5.6052,5.4491,5.3047,5.0641,4.8203,0.0,0.0,0.0,0.0,0.0,0.0,0.0,0.0,0.0,0.0,0.0,0.0,0.0,0.0,0.0,0.0,0.0,0.0,0.0,0.0,0.0,0.0,0.0,3.9717,0.0,0.0,0.0,0.0,0.0,0.0,0.0,0.0,0.0,4.1122,4.2584,4.434,4.595,4.7283,4.8642,5.0148,0.0,0.0,0.0,0.0,0.0,0.0,0.0,4.8342,5.01,4.9496,4.9168,5.0265,5.0519,5.0352,4.9644,0.0,0.0,4.6728,4.6611,4.6835,4.656,4.6329,4.6238,4.64,4.6331,4.6324,0.0,0.0,0.0,0.0,0.0,0.0,0.0,0.0,0.0,4.6752,4.5446,0.0,0.0,0.0,0.0,0.0,0.0,0.0,0.0,0.0,0.0,0.0,5.5553,5.5477,0.0,0.0,0.0,0.0,0.0,0.0,0.0,0.0,0.0,0.0,0.0,0.0,5.1715,5.4064,5.4996,5.6557,5.885,5.5483,5.4033,5.4793,5.3247,5.1751,5.0313,0.0,0.0,0.0,0.0,0.0,0.0,0.0,0.0,0.0,0.0,0.0,0.0,0.0,0.0,0.0,0.0,0.0,0.0,0.0,0.0,0.0,0.0,0.0,0.0,0.0,3.542,0.0,0.0,0.0,0.0,0.0,0.0,0.0,0.0,0.0,0.0,0.0,4.1502,4.2673,4.4318,4.6249,4.8452,4.8177,4.8506,0.0,0.0,0.0,0.0,0.0,0.0,0.0,0.0,0.0,0.0,0.0,0.0,0.0,0.0,4.3811,4.2763,4.2571,4.2511,4.2269,0.0,0.0,0.0,0.0,0.0,0.0,0.0,0.0,0.0,0.0,0.0,0.0,0.0,0.0,0.0,4.015,0.0,0.0,3.9971,0.0,0.0,0.0,0.0,0.0,0.0,0.0,0.0,0.0,0.0,0.0,0.0,0.0,0.0,0.0,0.0,0.0,0.0,0.0,0.0,0.0,0.0,4.637,5.004,5.0375,5.1309,5.3076,5.0386,5.0141,5.2301,5.148,5.1043,5.116,0.0,0.0,0.0,0.0,0.0,0.0,0.0,0.0,0.0,0.0,0.0,0.0,0.0,0.0,0.0,0.0,0.0,0.0,0.0,0.0,0.0,0.0,0.0,0.0,0.0,0.0,3.3006,3.4059,3.4398,0.0,0.0,0.0,0.0,0.0,0.0,0.0,0.0,0.0,0.0,4.2184,4.4163,4.5526,4.5854,4.626,4.6954,4.6121,4.5499,4.582,4.573,4.5796,0.0,0.0,0.0,0.0,0.0,0.0,0.0,0.0,0.0,0.0,0.0,0.0,0.0,0.0,0.0,0.0,0.0,0.0,0.0,0.0,0.0,0.0,0.0,0.0,0.0,0.0,0.0,0.0,0.0,0.0,0.0,0.0,0.0,0.0,0.0,0.0,0.0,0.0,0.0,0.0,0.0,0.0,0.0,0.0,0.0,0.0,0.0,0.0,0.0,0.0,0.0,0.0,0.0,0.0,4.5805,4.7674,4.8722,5.0313,5.2475,4.8963,4.8072,5.0018,4.8042,4.567,0.0,0.0,0.0,0.0,0.0,0.0,0.0,0.0,0.0,0.0,0.0,0.0,0.0,0.0,0.0,0.0,0.0,0.0,0.0,0.0,0.0,0.0,0.0,0.0,0.0,0.0,0.0,0.0,3.1846,3.2058,3.2441,0.0,0.0,0.0,0.0,0.0,0.0,0.0,0.0,0.0,0.0,4.2099,4.424,4.4425,4.4386,4.4681,4.3514,4.2734,4.3086,4.2137,4.1578,4.2144,0.0,0.0,0.0,0.0,0.0,0.0,0.0,0.0,0.0,0.0,0.0,0.0,0.0,0.0,0.0,0.0,0.0,0.0,0.0,0.0,0.0,0.0,0.0,0.0,0.0,0.0,0.0,0.0,0.0,0.0,0.0,0.0,0.0,0.0,0.0,0.0,0.0,0.0,0.0,0.0,0.0,0.0,0.0,0.0,0.0,0.0,0.0,0.0,0.0,0.0,0.0,0.0,0.0,4.3411,4.4917,4.6373,4.7917,4.9336,4.664,4.5882,4.7586,4.5502,4.2861,0.0,0.0,0.0,0.0,0.0,0.0,0.0,0.0,0.0,0.0,0.0,0.0,0.0,0.0,0.0,0.0,0.0,0.0,0.0,0.0,0.0,0.0,0.0,0.0,0.0,0.0,0.0,0.0,2.9177,2.9934,3.0828,0.0,0.0,0.0,0.0,0.0,0.0,0.0,0.0,0.0,0.0,3.9852,4.196,4.2055,0.0,0.0,4.1038,4.0234,4.0593,3.995,3.9399,3.9441,3.8319,0.0,0.0,0.0,0.0,0.0,0.0,0.0,0.0,0.0,0.0,0.0,0.0,0.0,0.0,0.0,0.0,0.0,0.0,0.0,0.0,0.0,0.0,0.0,0.0,0.0,0.0,0.0,0.0,0.0,0.0,0.0,0.0,0.0,0.0,0.0,0.0,0.0,0.0,0.0,0.0,0.0,0.0,0.0,0.0,0.0,0.0,0.0,0.0,0.0,0.0,0.0,0.0,3.9754,4.1789,4.3499,4.4573,4.4795,4.369,4.3689,4.4852,4.3633,4.1966,0.0,0.0,0.0,0.0,0.0,0.0,0.0,0.0,0.0,0.0,0.0,0.0,0.0,0.0,0.0,0.0,0.0,0.0,0.0,0.0,0.0,0.0,0.0,0.0,0.0,0.0,0.0,0.0,0.0,0.0,0.0,0.0,0.0,0.0,0.0,0.0,0.0,0.0,0.0,0.0,0.0,3.7667,3.892,3.9068,3.9185,0.0,0.0,3.7989,3.814,3.8581,3.8566,3.7358,0.0,0.0,0.0,0.0,0.0,0.0,0.0,0.0,0.0,0.0,0.0,0.0,0.0,0.0,0.0,0.0,0.0,0.0,0.0,0.0,0.0,0.0,0.0,0.0,0.0,0.0,0.0,0.0,0.0,0.0,0.0,0.0,0.0,0.0,0.0,0.0,0.0,0.0,0.0,0.0,0.0,0.0,0.0,0.0,0.0,0.0,0.0,0.0,0.0,0.0,0.0,0.0,0.0,0.0,3.8406,4.1371,4.2686,4.2211,4.2552,4.2857,4.3129,4.1655,0.0,0.0,0.0,0.0,0.0,0.0,0.0,0.0,0.0,0.0,0.0,0.0,0.0,0.0,0.0,0.0,0.0,0.0,0.0,0.0,0.0,0.0,0.0,0.0,0.0,0.0,0.0,2.0347,0.0,0.0,0.0,0.0,0.0,0.0,0.0,0.0,0.0,0.0,0.0,0.0,0.0,0.0,3.6496,3.7008,3.7319,3.7246,0.0,0.0,3.5779,3.4981,3.5441,3.5405,0.0,0.0,0.0,0.0,0.0,0.0,0.0,0.0,0.0,0.0,0.0,0.0,0.0,0.0,0.0,0.0,0.0,0.0,0.0,0.0,0.0,0.0,0.0,0.0,0.0,0.0,0.0,0.0,0.0,0.0,0.0,0.0,0.0,0.0,0.0,0.0,0.0,0.0,0.0,0.0,0.0,0.0,0.0,0.0,0.0,0.0,0.0,0.0,0.0,0.0,0.0,0.0,0.0,0.0,3.5397,3.7001,3.8978,4.004,4.0111,4.0282,4.0547,4.0851,3.9636,3.7692,0.0,0.0,0.0,0.0,0.0,0.0,0.0,0.0,0.0,0.0,0.0,0.0,0.0,0.0,0.0,0.0,0.0,0.0,0.0,0.0,0.0,0.0,0.0,0.0,0.0,0.0,0.0,0.0,0.0,0.0,0.0,0.0,0.0,0.0,0.0,0.0,0.0,0.0,0.0,0.0,0.0,0.0,3.4669,3.4856,0.0,0.0,0.0,3.4172,3.3191,0.0,0.0,0.0,0.0,0.0,0.0,0.0,0.0,0.0,0.0,0.0,0.0,0.0,0.0,0.0,0.0,0.0,0.0,0.0,0.0,0.0,0.0,0.0,0.0,0.0,0.0,0.0,0.0,0.0,0.0,0.0,0.0,0.0,0.0,0.0,0.0,0.0,0.0,0.0,0.0,0.0,0.0,0.0,0.0,0.0,0.0,0.0,0.0,0.0,0.0,0.0,0.0,0.0,0.0,0.0,0.0,0.0,3.6237,3.6619,3.7316,3.8306,3.7813,3.7852,3.8517,3.7776,3.6283,0.0,0.0,0.0,0.0,0.0,0.0,0.0,0.0,0.0,0.0,0.0,0.0,0.0,0.0,0.0,0.0,0.0,0.0,0.0,0.0,0.0,0.0,0.0,0.0,0.0,0.0,0.0,0.0,0.0,0.0,0.0,0.0,0.0,0.0,0.0,0.0,0.0,0.0,0.0,0.0,0.0,3.1459,3.2345,3.2134,3.1882,0.0,0.0,3.2665,3.1946,3.224,0.0,0.0,0.0,0.0,0.0,0.0,0.0,0.0,0.0,0.0,0.0,0.0,0.0,0.0,0.0,0.0,0.0,0.0,0.0,0.0,0.0,0.0,0.0,0.0,0.0,0.0,0.0,0.0,0.0,0.0,0.0,0.0,0.0,0.0,0.0,0.0,0.0,0.0,0.0,0.0,0.0,0.0,0.0,0.0,0.0,0.0,0.0,0.0,0.0,0.0,0.0,0.0,0.0,0.0,0.0,0.0,3.3745,3.5138,3.613,3.6642,3.7208,3.7604,3.7719,3.6868,3.5367,0.0,0.0,0.0,0.0,0.0,0.0,0.0,0.0,0.0,0.0,0.0,0.0,0.0,0.0,0.0,0.0,0.0,0.0,0.0,0.0,0.0,0.0,0.0,0.0,0.0,0.0,0.0,0.0,0.0,0.0,0.0,0.0,0.0,0.0,0.0,0.0,0.0,0.0,0.0,0.0,0.0,3.033,3.1147,3.0312,0.0,0.0,0.0,0.0,2.9241,2.96,0.0,0.0,0.0,0.0,0.0,0.0,0.0,0.0,0.0,0.0,0.0,0.0,0.0,0.0,0.0,0.0,0.0,0.0,0.0,0.0,0.0,0.0,0.0,0.0,0.0,0.0,0.0,0.0,0.0,0.0,0.0,0.0,0.0,0.0,0.0,0.0,0.0,0.0,0.0,0.0,0.0,0.0,0.0,0.0,0.0,0.0,0.0,0.0,0.0,0.0,0.0,0.0,0.0,0.0,0.0,0.0,3.2698,3.4073,3.4927,3.5323,3.5948,3.6227,3.6,3.574,3.4523,0.0,0.0,0.0,0.0,0.0,0.0,0.0,0.0,0.0,0.0,0.0,0.0,0.0,0.0,0.0,0.0,0.0,0.0,0.0,0.0,0.0,0.0,0.0,0.0,0.0,0.0,0.0,0.0,0.0,0.0,0.0,0.0,0.0,0.0,0.0,0.0,0.0,0.0,0.0,0.0,2.7824,2.832,2.9029,0.0,0.0,0.0,0.0,0.0,0.0,2.8205,2.7795,0.0,0.0,0.0,0.0,0.0,0.0,0.0,0.0,0.0,0.0,0.0,0.0,0.0,0.0,0.0,0.0,0.0,0.0,0.0,0.0,0.0,0.0,0.0,0.0,0.0,0.0,0.0,0.0,0.0,0.0,0.0,0.0,0.0,0.0,0.0,0.0,0.0,0.0,0.0,0.0,0.0,0.0,0.0,0.0,0.0,0.0,0.0,0.0,0.0,0.0,0.0,0.0,0.0,0.0,0.0,3.2418,3.3204,3.3875,3.4383,3.4737,3.4737,3.4418,3.4737,3.3816,3.1604,0.0,0.0,0.0,0.0,0.0,0.0,0.0,0.0,0.0,0.0,0.0,0.0,0.0,0.0,0.0,0.0,0.0,0.0,0.0,0.0,0.0,0.0,0.0,0.0,0.0,0.0,0.0,0.0,0.0,0.0,0.0,0.0,0.0,0.0,0.0,0.0,0.0,0.0,0.0,2.6137,2.623,0.0,0.0,0.0,0.0,0.0,0.0,0.0,0.0,2.6452,0.0,0.0,0.0,0.0,0.0,0.0,0.0,0.0,0.0,0.0,0.0,0.0,0.0,0.0,0.0,0.0,0.0,0.0,0.0,0.0,0.0,0.0,0.0,0.0,0.0,0.0,0.0,0.0,0.0,0.0,0.0,0.0,0.0,0.0,0.0,0.0,0.0,0.0,0.0,0.0,0.0,0.0,0.0,0.0,0.0,0.0,0.0,0.0,0.0,0.0,0.0,0.0,0.0,0.0,0.0,0.0,3.257,3.3242,3.4343,3.4484,3.4484,3.442,3.4468,3.3603,3.1688,0.0,0.0,0.0,0.0,0.0,0.0,0.0,0.0,0.0,0.0,0.0,0.0,0.0,0.0,0.0,0.0,0.0,0.0,0.0,0.0,0.0,0.0,0.0,0.0,0.0,0.0,0.0,0.0,0.0,0.0,0.0,0.0,0.0,0.0,0.0,0.0,0.0,0.0,2.5292,2.5097,0.0,0.0,0.0,0.0,0.0,0.0,0.0,0.0,2.5251,0.0,0.0,0.0,0.0,0.0,0.0,0.0,0.0,0.0,0.0,0.0,0.0,0.0,0.0,0.0,0.0,0.0,0.0,0.0,0.0,0.0,0.0,0.0,0.0,0.0,0.0,0.0,0.0,0.0,0.0,0.0,0.0,0.0,0.0,0.0,0.0,0.0,0.0,0.0,0.0,0.0,0.0,0.0,0.0,0.0,0.0,0.0,0.0,0.0,0.0,0.0,0.0,0.0,0.0,0.0,0.0,0.0,0.0,3.332,3.415,3.4206,3.4393,3.4746,3.343,3.205,0.0,0.0,0.0,0.0,0.0,0.0,0.0,0.0,0.0,0.0,0.0,0.0,0.0,0.0,0.0,0.0,0.0,0.0,0.0,0.0,0.0,0.0,0.0,0.0,0.0,0.0,0.0,0.0,0.0,0.0,0.0,0.0,0.0,0.0,0.0,0.0,0.0,0.0,0.0,0.0,0.0,0.0,0.0,0.0,0.0,0.0,0.0,0.0,0.0,0.0,0.0,0.0,0.0,0.0,0.0,0.0,0.0,0.0,0.0,0.0,0.0,0.0,0.0,0.0,0.0,0.0,0.0,0.0,0.0,0.0,0.0,0.0,0.0,0.0,0.0,0.0,0.0,0.0,0.0,0.0,0.0,0.0,0.0,0.0,0.0,0.0,0.0,0.0,0.0,0.0,0.0,0.0,0.0,0.0,0.0,0.0,0.0,0.0,0.0,0.0,0.0,0.0,0.0,0.0,0.0,0.0,0.0,0.0,3.3008,3.3613,3.3652,3.4038,3.4757,3.2009,3.0129,0.0,0.0,0.0,0.0,0.0,0.0,0.0,0.0,0.0,0.0,0.0,0.0,0.0,0.0,0.0,0.0,0.0,0.0,0.0,0.0,0.0,0.0,0.0,0.0,0.0,0.0,0.0,0.0,0.0,0.0,0.0,0.0,0.0,0.0,0.0,0.0,0.0,0.0,0.0,0.0,0.0,0.0,0.0,0.0,0.0,0.0,0.0,0.0,2.4395,0.0,0.0,0.0,0.0,0.0,0.0,0.0,0.0,0.0,0.0,0.0,0.0,0.0,0.0,0.0,0.0,0.0,0.0,0.0,0.0,0.0,0.0,0.0,0.0,0.0,0.0,0.0,0.0,0.0,0.0,0.0,0.0,0.0,0.0,0.0,0.0,0.0,0.0,0.0,0.0,0.0,0.0,0.0,0.0,0.0,0.0,0.0,0.0,0.0,0.0,0.0,0.0,0.0,0.0,0.0,0.0,0.0,0.0,0.0,3.1444,3.2412,3.245,3.2814,3.347,3.0295,2.8285,0.0,0.0,0.0,0.0,0.0,0.0,0.0,0.0,0.0,0.0,0.0,0.0,0.0,0.0,0.0,0.0,0.0,0.0,0.0,0.0,0.0,0.0,0.0,0.0,0.0,0.0,0.0,0.0,0.0,0.0,0.0,0.0,0.0,0.0,0.0,0.0,0.0,0.0,0.0,0.0,0.0,0.0,0.0,0.0,0.0,0.0,0.0,0.0,0.0,0.0,0.0,0.0,0.0,0.0,0.0,0.0,0.0,0.0,0.0,0.0,0.0,0.0,0.0,0.0,0.0,0.0,0.0,0.0,0.0,0.0,0.0,0.0,0.0,0.0,0.0,0.0,0.0,0.0,0.0,0.0,0.0,0.0,0.0,0.0,0.0,0.0,0.0,0.0,0.0,0.0,0.0,0.0,0.0,0.0,0.0,0.0,0.0,0.0,0.0,0.0,0.0,0.0,0.0,0.0,0.0,0.0,0.0,0.0,3.0295,3.1582,3.1394,3.1035,3.0643,2.7998,2.6528,0.0,0.0,0.0,0.0,0.0,0.0,0.0,0.0,0.0,0.0,0.0,0.0,0.0,0.0,0.0,0.0,0.0,0.0,0.0,0.0,0.0,0.0,0.0,0.0,0.0,0.0,0.0,0.0,0.0,0.0,0.0,0.0,0.0,0.0,0.0,0.0,0.0,0.0,0.0,0.0,0.0,0.0,0.0,0.0,0.0,0.0,0.0,0.0,0.0,0.0,0.0,0.0,0.0,0.0,0.0,0.0,0.0,0.0,0.0,0.0,0.0,0.0,0.0,0.0,0.0,0.0,0.0,0.0,0.0,0.0,0.0,0.0,0.0,0.0,0.0,0.0,0.0,0.0,0.0,0.0,0.0,0.0,0.0,0.0,0.0,0.0,0.0,0.0,0.0,0.0,0.0,0.0,0.0,0.0,0.0,0.0,0.0,0.0,0.0,0.0,0.0,0.0,0.0,0.0,0.0,0.0,0.0,0.0,0.0,3.0143,2.9332,2.836,2.7181,2.5739,2.4841,0.0,0.0,0.0,0.0,0.0,0.0,0.0,0.0,0.0,0.0,0.0,0.0,0.0,0.0,0.0,0.0,0.0,0.0,0.0,0.0,0.0,0.0,0.0,0.0,0.0,0.0,0.0,0.0,0.0,0.0,0.0,0.0,0.0,0.0,0.0,0.0,0.0,0.0,0.0,0.0,0.0,0.0,0.0,0.0,0.0,0.0,0.0,0.0,0.0,0.0,0.0,0.0,0.0,0.0,0.0,0.0,0.0,0.0,0.0,0.0,0.0,0.0,0.0,0.0,0.0,0.0,0.0,0.0,0.0,0.0,0.0,0.0,0.0,0.0,0.0,0.0,0.0,0.0,0.0,0.0,0.0,0.0,0.0,0.0,0.0,0.0,0.0,0.0,0.0,0.0,0.0,0.0,0.0,0.0,0.0,0.0,0.0,0.0,0.0,0.0,0.0,0.0,0.0,0.0,0.0,0.0,0.0,0.0,0.0,2.7987,2.5808,2.4331,2.3482,2.3573,2.3267,0.0,0.0,0.0,0.0,0.0,0.0,0.0,0.0,0.0,0.0,0.0,0.0,0.0,0.0,0.0,0.0,0.0,0.0,0.0,0.0,0.0,0.0,0.0,0.0,0.0,0.0,0.0,0.0,0.0,0.0,0.0,0.0,0.0,0.0,0.0,0.0,0.0,0.0,0.0,0.0,0.0,0.0,0.0,0.0,0.0,0.0,0.0,0.0,0.0,0.0,0.0,0.0,0.0,0.0,0.0,0.0,0.0,0.0,0.0,0.0,0.0,0.0,0.0,0.0,0.0,0.0,0.0,0.0,0.0,0.0,0.0,0.0,0.0,0.0,0.0,0.0,0.0,0.0,0.0,0.0,0.0,0.0,0.0,0.0,0.0,0.0,0.0,0.0,0.0,0.0,0.0,0.0,0.0,0.0,0.0,0.0,0.0,0.0,0.0,0.0,0.0,0.0,0.0,0.0,0.0,0.0,0.0,0.0,0.0,2.4862,2.3789,2.2909,2.2307,2.2438,2.2421,2.211,0.0,0.0,0.0,0.0,0.0,0.0,0.0,0.0,0.0,0.0,0.0,0.0,0.0,0.0,0.0,0.0,0.0,0.0,0.0,0.0,0.0,0.0,0.0,0.0,0.0,0.0,0.0,0.0,0.0,0.0,0.0,0.0,0.0,0.0,0.0,0.0,0.0,0.0,0.0,0.0,0.0,0.0,0.0,0.0,0.0,0.0,0.0,0.0,0.0,0.0,0.0,0.0,0.0,0.0,0.0,0.0,0.0,0.0,0.0,0.0,0.0,0.0,0.0,0.0,0.0,0.0,0.0,0.0,0.0,0.0,0.0,0.0,0.0,0.0,0.0,0.0,0.0,0.0,0.0,0.0,0.0,0.0,0.0,0.0,0.0,0.0,0.0,0.0,0.0,0.0,0.0,0.0,0.0,0.0,0.0,0.0,0.0,0.0,0.0,0.0,0.0,0.0,0.0,0.0,0.0,0.0,0.0,0.0,2.3136,2.2504,2.1929,2.1356,2.1588,2.1607,0.0,0.0,0.0,0.0,0.0,0.0,0.0,0.0,0.0,0.0,0.0,0.0,0.0,0.0,0.0,0.0,0.0,0.0,0.0,0.0,0.0,0.0,0.0,0.0,0.0,0.0,0.0,0.0,0.0,0.0,0.0,0.0,0.0,0.0,0.0,0.0,0.0,0.0,0.0,0.0,0.0,0.0,0.0,0.0,0.0,0.0,0.0,0.0,0.0,0.0,0.0,0.0,0.0,0.0,0.0,0.0,0.0,0.0,0.0,0.0,0.0,0.0,0.0,0.0,0.0,0.0,0.0,0.0,0.0,0.0,0.0,0.0,0.0,0.0,0.0,0.0,0.0,0.0,0.0,0.0,0.0,0.0,0.0,0.0,0.0,0.0,0.0,0.0,0.0,0.0,0.0,0.0,0.0,0.0,0.0,0.0,0.0,0.0,0.0,0.0,0.0,0.0,0.0,0.0,0.0,0.0,0.0,0.0,2.5518,2.3079,2.1955,2.1171,2.0461,2.0921,2.0831,0.0,0.0,0.0,0.0,0.0,0.0,0.0,0.0,0.0,0.0,0.0,0.0,0.0,0.0,0.0,0.0,0.0,0.0,0.0,0.0,0.0,0.0,0.0,0.0,0.0,0.0,0.0,0.0,0.0,0.0,0.0,0.0,0.0,0.0,0.0,0.0,0.0,0.0,0.0,0.0,0.0,0.0,0.0,0.0,0.0,0.0,0.0,0.0,0.0,0.0,0.0,0.0,0.0,0.0,0.0,0.0,0.0,0.0,0.0,0.0,0.0,0.0,0.0,0.0,0.0,0.0,0.0,0.0,0.0,0.0,0.0,0.0,0.0,0.0,0.0,0.0,0.0,0.0,0.0,0.0,0.0,0.0,0.0,0.0,0.0,0.0,0.0,0.0,0.0,0.0,0.0,0.0,0.0,0.0,0.0,0.0,0.0,0.0,0.0,0.0,0.0,0.0,0.0,0.0,0.0,0.0,0.0,0.0,0.0,2.4151,0.0,2.1506,0.0,2.0533,2.037,0.0,0.0,0.0,0.0,0.0,0.0,0.0,0.0,0.0,0.0,0.0,0.0,0.0,0.0,0.0,0.0,0.0,0.0,0.0,0.0,0.0,0.0,0.0,0.0,0.0,0.0,0.0,0.0,0.0,0.0,0.0,0.0,0.0,0.0,0.0,0.0,0.0,0.0,0.0,0.0,0.0,0.0,0.0,0.0,0.0,0.0,0.0,0.0,0.0,0.0,0.0,0.0,0.0,0.0,0.0,0.0,0.0,0.0,0.0,0.0,0.0,0.0,0.0,0.0,0.0,0.0,0.0,0.0,0.0,0.0,0.0,0.0,0.0,0.0,0.0,0.0,0.0,0.0,0.0,0.0,0.0,0.0,0.0,0.0,0.0,0.0,0.0,0.0,0.0,0.0,0.0,0.0,0.0,0.0,0.0,0.0,0.0,0.0,0.0,0.0,0.0,0.0,0.0,0.0,0.0,0.0,0.0,0.0,0.0,2.4531,2.327,2.1768,2.0158,2.0118,1.9772,0.0,0.0,0.0,0.0,0.0,0.0,0.0,0.0,0.0,0.0,0.0,0.0,0.0,0.0,0.0,0.0,0.0,0.0,0.0,0.0,0.0,0.0,0.0,0.0,0.0,0.0,0.0,0.0,0.0,0.0,0.0,0.0,0.0,0.0,0.0,0.0,0.0,0.0,0.0,0.0,0.0,0.0,0.0,0.0,0.0,0.0,0.0,0.0,0.0,0.0,0.0,0.0,0.0,0.0,0.0,0.0,0.0,0.0,0.0,0.0,0.0,0.0,0.0,0.0,0.0,0.0,0.0,0.0,0.0,0.0,0.0,0.0,0.0,0.0,0.0,0.0,0.0,0.0,0.0,0.0,0.0,0.0,0.0,0.0,0.0,0.0,0.0,0.0,0.0,0.0,0.0,0.0,0.0,0.0,0.0,0.0,0.0,0.0,0.0,0.0,0.0,0.0,0.0,0.0,0.0,0.0,0.0,0.0,0.0,2.42,2.3409,2.1972,2.0006,1.9654,1.9028,0.0,0.0,0.0,0.0,0.0,0.0,0.0,0.0,0.0,0.0,0.0,0.0,0.0,0.0,0.0,0.0,0.0,0.0,0.0,0.0,0.0,0.0,0.0,0.0,0.0,0.0,0.0,0.0,0.0,0.0,0.0,0.0,0.0,0.0,0.0,0.0,0.0,0.0,0.0,0.0,0.0,0.0,0.0,0.0,0.0,0.0,0.0,0.0,0.0,0.0,0.0,0.0,0.0,0.0,0.0,0.0,0.0,0.0,0.0,0.0,0.0,0.0,0.0,0.0,0.0,0.0,0.0,0.0,0.0,0.0,0.0,0.0,0.0,0.0,0.0,0.0,0.0,0.0,0.0,0.0,0.0,0.0,0.0,0.0,0.0,0.0,0.0,0.0,0.0,0.0,0.0,0.0,0.0,0.0,0.0,0.0,0.0,0.0,0.0,0.0,0.0,0.0,0.0,0.0,0.0,0.0,0.0,0.0,0.0,0.0,2.3293,2.2517,2.0744,1.9154,1.7891,1.6954,0.0,0.0,0.0,0.0,0.0,0.0,0.0,0.0,0.0,0.0,0.0,0.0,0.0,0.0,0.0,0.0,0.0,0.0,0.0,0.0,0.0,0.0,0.0,0.0,0.0,0.0,0.0,0.0,0.0,0.0,0.0,0.0,0.0,0.0,0.0,0.0,0.0,0.0,0.0,0.0,0.0,0.0,0.0,0.0,0.0,0.0,0.0,0.0,0.0,0.0,0.0,0.0,0.0,0.0,0.0,0.0,0.0,0.0,0.0,0.0,0.0,0.0,0.0,0.0,0.0,0.0,0.0,0.0,0.0,0.0,0.0,0.0,0.0,0.0,0.0,0.0,0.0,0.0,0.0,0.0,0.0,0.0,0.0,0.0,0.0,0.0,0.0,0.0,0.0,0.0,0.0,0.0,0.0,0.0,0.0,0.0,0.0,0.0,0.0,0.0,0.0,0.0,0.0,0.0,0.0,0.0,0.0,0.0,0.0,0.0,2.165,2.0566,1.849,1.6923,0.0,0.0,0.0,0.0,0.0,0.0,0.0,0.0,0.0,0.0,0.0,0.0,0.0,0.0,0.0,0.0,0.0,0.0,0.0,0.0,0.0,0.0,0.0,0.0,0.0,0.0,0.0,0.0,0.0,0.0,0.0,0.0,0.0,0.0,0.0,0.0,0.0,0.0,0.0,0.0,0.0,0.0,0.0,0.0,0.0,0.0,0.0,0.0,0.0,0.0,0.0,0.0,0.0,0.0,0.0,0.0,0.0,0.0,0.0,0.0,0.0,0.0,0.0,0.0,0.0,0.0,0.0,0.0,0.0,0.0,0.0,0.0,0.0,0.0,0.0,0.0,0.0,0.0,0.0,0.0,0.0,0.0,0.0,0.0,0.0,0.0,0.0,0.0,0.0,0.0,0.0,0.0,0.0,0.0,0.0,0.0,0.0,0.0,0.0,0.0,0.0,0.0,0.0,0.0,0.0,0.0,0.0,0.0,0.0,0.0,0.0,1.9953,1.9592,1.7652,0.0,1.5076,0.0,0.0,0.0,0.0,0.0,0.0,0.0,0.0,0.0,0.0,0.0,0.0,0.0,0.0,0.0,0.0,0.0,0.0,0.0,0.0,0.0,0.0,0.0,0.0,0.0,0.0,0.0,0.0,0.0,0.0,0.0,0.0,0.0,0.0,0.0,0.0,0.0,0.0,0.0,0.0,0.0,0.0,0.0,0.0,0.0,0.0,0.0,0.0,0.0,0.0,0.0,0.0,0.0,0.0,0.0,0.0,0.0,0.0,0.0,0.0,0.0,0.0,0.0,0.0,0.0,0.0,0.0,0.0,0.0,0.0,0.0,0.0,0.0,0.0,0.0,0.0,0.0,0.0,0.0,0.0,0.0,0.0,0.0,0.0,0.0,0.0,0.0,0.0,0.0,0.0,0.0,0.0,0.0,0.0,0.0,0.0,0.0,0.0,0.0,0.0,0.0,0.0,0.0,0.0,0.0,0.0,0.0,0.0,0.0,0.0,0.0,0.0,1.664,1.5545,1.4999,0.0,0.0,0.0,0.0,0.0,0.0,0.0,0.0,0.0,0.0,0.0,0.0,0.0,0.0,0.0,0.0,0.0,0.0,0.0,0.0,0.0,0.0,0.0,0.0,0.0,0.0,0.0,0.0,0.0,0.0,0.0,0.0,0.0,0.0,0.0,0.0,0.0,0.0,0.0,0.0,0.0,0.0,0.0,0.0,0.0,0.0,0.0,0.0,0.0,0.0,0.0,0.0,0.0,0.0,0.0,0.0,0.0,0.0,0.0,0.0,0.0,0.0,0.0,0.0,0.0,0.0,0.0,0.0,0.0,0.0,0.0,0.0,0.0,0.0,0.0,0.0,0.0,0.0,0.0,0.0,0.0,0.0,0.0,0.0,0.0,0.0,0.0,0.0,0.0,0.0,0.0,0.0,0.0,0.0,0.0,0.0,0.0,0.0,0.0,0.0,0.0,0.0,0.0,0.0,0.0,0.0,0.0,0.0,0.0,0.0,1.7565,1.7219,1.5697,1.4766,1.46,0.0,0.0,0.0,0.0,0.0,0.0,0.0,0.0,0.0,0.0,0.0,0.0,0.0,0.0,0.0,0.0,0.0,0.0,0.0,0.0,0.0,0.0,0.0,0.0,0.0,0.0,0.0,0.0,0.0,0.0,0.0,0.0,0.0,0.0,0.0,0.0,0.0,0.0,0.0,0.0,0.0,0.0,0.0,0.0,0.0,0.0,0.0,0.0,0.0,0.0,0.0,0.0,0.0,0.0,0.0,0.0,0.0,0.0,0.0,0.0,0.0,0.0,0.0,0.0,0.0,0.0,0.0,0.0,0.0,0.0,0.0,0.0,0.0,0.0,0.0,0.0,0.0,0.0,0.0,0.0,0.0,0.0,0.0,0.0,0.0,0.0,0.0,0.0,0.0,0.0,0.0,0.0,0.0,0.0,0.0,0.0,0.0,0.0,0.0,0.0,0.0,0.0,0.0,0.0,0.0,0.0,0.0,0.0,0.0,0.0,0.0,0.0,0.0,0.0,1.4124,0.0,0.0,0.0,0.0,0.0,0.0,0.0,0.0,0.0,0.0,0.0,0.0,0.0,0.0,0.0,0.0,0.0,0.0,0.0,0.0,0.0,0.0,0.0,0.0,0.0,0.0,0.0,0.0,0.0,0.0,0.0,0.0,0.0,0.0,0.0,0.0,0.0,0.0,0.0,0.0,0.0,0.0,0.0,0.0,0.0,0.0,0.0,0.0,0.0,0.0,0.0,0.0,0.0,0.0,0.0,0.0,0.0,0.0,0.0,0.0,0.0,0.0,0.0,0.0,0.0,0.0,0.0,0.0,0.0,0.0,0.0,0.0,0.0,0.0,0.0,0.0,0.0,0.0,0.0,0.0,0.0,0.0,0.0,0.0,0.0,0.0,0.0,0.0,0.0,0.0,0.0,0.0,0.0,0.0,0.0,0.0,0.0,0.0,0.0,0.0,0.0,0.0,0.0,0.0,0.0,0.0,0.0,0.0,0.0,0.0,0.0,0.0,0.0,0.0,0.0,0.0,0.0,0.0,0.0,0.0,0.0,0.0,0.0,0.0,0.0,0.0,0.0,0.0,0.0,0.0,0.0,0.0,0.0,0.0,0.0,0.0,0.0,0.0,0.0,0.0,0.0,0.0,0.0,0.0,0.0,0.0,0.0,0.0,0.0,0.0,0.0,0.0,0.0,0.0,0.0,0.0,0.0,0.0,0.0,0.0,0.0,0.0,0.0,0.0,0.0,0.0,0.0,0.0,0.0,0.0,0.0,0.0,0.0,0.0,0.0,0.0,0.0,0.0,0.0,0.0,0.0,0.0,0.0,0.0,0.0,0.0,0.0,0.0,0.0,0.0,0.0,0.0,0.0,0.0,0.0,0.0,0.0,0.0,0.0,0.0,0.0,0.0,0.0,0.0,0.0,0.0,0.0,0.0,0.0,0.0,0.0,0.0,0.0,0.0,0.0,0.0,0.0,0.0,0.0,0.0,0.0,0.0,0.0,0.0,0.0,0.0,0.0,0.0,0.0,0.0,0.0,0.0,0.0,0.0,0.0,0.0,0.0,0.0,0.0,0.0,0.0,0.0,0.0,0.0,0.0,0.0,0.0,0.0,0.0,0.0,0.0,0.0,0.0,0.0,0.0,0.0,0.0,0.0,0.0,0.0,0.0,0.0,0.0,0.0,0.0,0.0,0.0,0.0,0.0,0.0,0.0,0.0,0.0,0.0,0.0,0.0,0.0,0.0,0.0,0.0,0.0,0.0,0.0,0.0,0.0,0.0,0.0,0.0,0.0,0.0,0.0,0.0,0.0,0.0,0.0,0.0,0.0,0.0,0.0,0.0,0.0,0.0,0.0,0.0,0.0,0.0,0.0,0.0,0.0,0.0,0.0,0.0,0.0,0.0,0.0,0.0,0.0,0.0,0.0,0.0,0.0,0.0,0.0,0.0,0.0,0.0,0.0,0.0,0.0,0.0,0.0,0.0,0.0,0.0,0.0,0.0,0.0,0.0,0.0,0.0,0.0,0.0,0.0,0.0,0.0,0.0,0.0,0.0,0.0,0.0,0.0,0.0,0.0,0.0,0.0,0.0,0.0,0.0,0.0,0.0,0.0,0.0,0.0,0.0,0.0,0.0,0.0,0.0,0.0,0.0,0.0,0.0,0.0,0.0,0.0,0.0,0.0,0.0,0.0,0.0,0.0,0.0,0.0,0.0,0.0,0.0,0.0,0.0,0.0,0.0,0.0,0.0,0.0,0.0,0.0,0.0,0.0,0.0,0.0,0.0,0.0,0.0,0.0,0.0,0.0,0.0,0.0,0.0,0.0,0.0,0.0,0.0,0.0,0.0,0.0,0.0,0.0,0.0,0.0,0.0,0.0,0.0,0.0,0.0,0.0,0.0,0.0,0.0,0.0,0.0,0.0,0.0,0.0,0.0,0.0,0.0,0.0,0.0,0.0,0.0,0.0,0.0,0.0,0.0,0.0,0.0,0.0,0.0,0.0,0.0,0.0,0.0,0.0,0.0,0.0,0.0,0.0,0.0,0.0,0.0,0.0,0.0,0.0,0.0,0.0,0.0,0.0,0.0,0.0,0.0,0.0,0.0,0.0,0.0,0.0,0.0,0.0,0.0,0.0,0.0,0.0,0.0,0.0,0.0,0.0,0.0,0.0,0.0,0.0,0.0,0.0,0.0,0.0,0.0,0.0,0.0,0.0,0.0,0.0,0.0,0.0,0.0,0.0,0.0,0.0,0.0,0.0,0.0,0.0,0.0,0.0,0.0,0.0,0.0,0.0,0.0,0.0,0.0,0.0,0.0,0.0,0.0,0.0,0.0,0.0,0.0,0.0,0.0,0.0,0.0,0.0,0.0,0.0,0.0,0.0,0.0,0.0,0.0,0.0,0.0,0.0,0.0,0.0,0.0,0.0,0.0,0.0,0.0,0.0,0.0,0.0,0.0,0.0,0.0,0.0,0.0,0.0,0.0,0.0,0.0,0.0,0.0,0.0,0.0,0.0,0.0,0.0,0.0,0.0,0.0,0.0,0.0,0.0,0.0,0.0,0.0,0.0,0.0,0.0,0.0,0.0,0.0,0.0,0.0,0.0,0.0,0.0,0.0,0.0,0.0,0.0,0.0,0.0,0.0,0.0,0.0,0.0,0.0,0.0,0.0,0.0,0.0,0.0,0.0,0.0,0.0,0.0,0.0,0.0,0.0,0.0,0.0,0.0,0.0,0.0,0.0,0.0,0.0,0.0,0.0,0.0,0.0,0.0,0.0,0.0,0.0,0.0,0.0,0.0,0.0,0.0,0.0,0.0,0.0,0.0,0.0,0.0,0.0,0.0,0.0,0.0,0.0,0.0,0.0,0.0,0.0,0.0,0.0,0.0,0.0,0.0,0.0,0.0,0.0,0.0,0.0,0.0,0.0,0.0,0.0,0.0,0.0,0.0,0.0,0.0,0.0,0.0,0.0,0.0,0.0,0.0,0.0,0.0,0.0,0.0,0.0,0.0,0.0,0.0,0.0,0.0,0.0,0.0,0.0,0.0,0.0,0.0,0.0,0.0,0.0,0.0,0.0,0.0,0.0,0.0,0.0,0.0,0.0,0.0,0.0,0.0,0.0,0.0,0.0,0.0,0.0,0.0,0.0,0.0,0.0,0.0,0.0,0.0,0.0,0.0,0.0,0.0,0.0,0.0,0.0,0.0,0.0,0.0,0.0,0.0,0.0,0.0,0.0,0.0,0.0,0.0,0.0,0.0,0.0,0.0,0.0,0.0,0.0,0.0,0.0,0.0,0.0,0.0,0.0,0.0,0.0,0.0,0.0,0.0,0.0,0.0,0.0,0.0,0.0,0.0,0.0,0.0,0.0,0.0,0.0,0.0,0.0,0.0,0.0,0.0,0.0,0.0,0.0,0.0,0.0,0.0,0.0,0.0,0.0,0.0,0.0,0.0,0.0,0.0,0.0,0.0,0.0,0.0,0.0,0.0,0.0,0.0,0.0,0.0,0.0,0.0,0.0,0.0,0.0,0.0,0.0,0.0,0.0,0.0,0.0,0.0,0.0,0.0,0.0,0.0,0.0,0.0,0.0,0.0,0.0,0.0,0.0,0.0,0.0,0.0,0.0,0.0,0.0,0.0,0.0,0.0,0.0,0.0,0.0,0.0,0.0,0.0,0.0,0.0,0.0,0.0,0.0,0.0,0.0,0.0,0.0,0.0,0.0,0.0,0.0,0.0,0.0,0.0,0.0,0.0,0.0,0.0,0.0,0.0,0.0,0.0,0.0,0.0,0.0,0.0,0.0,0.0,0.0,0.0,0.0,0.0,0.0,0.0,0.0,0.0,0.0,0.0,0.0,0.0,0.0,0.0,0.0,0.0,0.0,0.0,0.0,0.0,0.0,0.0,0.0,0.0,0.0,0.0,0.0,0.0,0.0,0.0,0.0,0.0,0.0,0.0,0.0,0.0,0.0,0.0,0.0,0.0,0.0,0.0,0.0,0.0,0.0,0.0,0.0,0.0,0.0,0.0,0.0,0.0,0.0,0.0,0.0,0.0,0.0,0.0,0.0,0.0,0.0,0.0,0.0,0.0,0.0,0.0,0.0,0.0,0.0,0.0,0.0,0.0,0.0,0.0,0.0,0.0,0.0,0.0,0.0,0.0,0.0,0.0,0.0,0.0,0.0,0.0,0.0,0.0,0.0,0.0,0.0,0.0,0.0,0.0,0.0,0.0,0.0,0.0,0.0,0.0,0.0,0.0,0.0,0.0,0.0,0.0,0.0,0.0,0.0,0.0,0.0,0.0,0.0,0.0,0.0,0.0,0.0,0.0,0.0,0.0,0.0,0.0,0.0,0.0,0.0,0.0,0.0,0.0,0.0,0.0,0.0]}]]]